[[{"header":{"parameterUnit":"m.s-1","parameterCategory":1,"la1":30.6,"la2":29.2853,"lo1":-89.7004,"lo2":-87.6739,"dy":0.0162,"dx":0.0183,"nx":112,"ny":82,"refTime":"2023-11-21T06:00:00:Z","depth":0,"parameterNumber":2,"parameterNumberName":"U-component_of_WINDS"},"data":[0.0,0.0,0.0,0.0,0.0,0.0,0.0,0.0,0.0,0.0,0.0,0.0,0.0,0.0,0.0,0.0,0.0,0.0,0.0,0.0,0.0,0.0,0.0,0.0,0.0,0.0,0.0,0.0,0.0,0.0,0.0,0.0,0.0,0.0,0.0,0.0,0.0,0.0,0.0,0.0,0.0,0.0,0.0,0.0,0.0,0.0,0.0,0.0,0.0,0.0,0.0,0.0,0.0,0.0,0.0,0.0,0.0,0.0,0.0,0.0,0.0,0.0,0.0,0.0,0.0,0.0,0.0,0.0,0.0,0.0,0.0,0.0,0.0,0.0,0.0,0.0,0.0,0.0,0.0,0.0,0.0,0.0,0.0,0.0,0.0,0.0,0.0,0.0,0.0,0.0,0.0,4.2457,5.0345,5.5486,5.5997,5.4045,4.9008,4.0077,0.0,0.0,0.0,0.0,0.0,0.0,0.0,0.0,0.0,0.0,0.0,0.0,0.0,0.0,0.0,0.0,0.0,0.0,0.0,0.0,0.0,0.0,0.0,0.0,0.0,0.0,0.0,0.0,0.0,0.0,0.0,0.0,0.0,0.0,0.0,0.0,0.0,0.0,0.0,0.0,0.0,0.0,0.0,0.0,0.0,0.0,0.0,0.0,0.0,0.0,0.0,0.0,0.0,0.0,0.0,0.0,0.0,0.0,0.0,0.0,0.0,0.0,0.0,0.0,0.0,0.0,0.0,0.0,0.0,0.0,0.0,0.0,0.0,0.0,0.0,0.0,0.0,0.0,0.0,0.0,0.0,0.0,0.0,0.0,0.0,0.0,0.0,0.0,0.0,0.0,0.0,0.0,0.0,0.0,0.0,0.0,0.0,0.0,0.0,0.0,0.0,0.0,0.0,0.0,3.973,4.9721,5.3925,5.6065,5.6164,5.2496,4.7403,4.0901,0.0,0.0,0.0,0.0,0.0,0.0,0.0,0.0,0.0,0.0,0.0,0.0,0.0,0.0,0.0,0.0,0.0,0.0,0.0,0.0,0.0,0.0,0.0,0.0,0.0,0.0,0.0,0.0,0.0,0.0,0.0,0.0,0.0,0.0,0.0,0.0,0.0,0.0,0.0,0.0,0.0,0.0,0.0,0.0,0.0,0.0,0.0,0.0,0.0,0.0,0.0,0.0,0.0,0.0,0.0,0.0,0.0,0.0,0.0,0.0,0.0,0.0,0.0,0.0,0.0,0.0,0.0,0.0,0.0,0.0,0.0,0.0,0.0,0.0,0.0,0.0,0.0,0.0,0.0,0.0,0.0,0.0,0.0,0.0,0.0,0.0,0.0,0.0,0.0,0.0,0.0,0.0,0.0,0.0,0.0,0.0,0.0,0.0,0.0,0.0,0.0,0.0,0.0,3.7819,4.2828,5.2001,5.4812,5.6008,5.5939,5.2415,4.7657,4.1666,3.8366,0.0,0.0,0.0,0.0,0.0,0.0,0.0,0.0,0.0,0.0,0.0,0.0,0.0,0.0,0.0,0.0,0.0,0.0,0.0,0.0,0.0,0.0,0.0,0.0,0.0,0.0,0.0,0.0,0.0,0.0,0.0,0.0,0.0,0.0,0.0,0.0,0.0,0.0,0.0,0.0,0.0,0.0,0.0,0.0,0.0,0.0,0.0,0.0,0.0,0.0,0.0,0.0,0.0,0.0,0.0,0.0,0.0,0.0,0.0,0.0,0.0,0.0,0.0,0.0,0.0,0.0,0.0,0.0,0.0,0.0,0.0,0.0,0.0,0.0,0.0,0.0,0.0,0.0,0.0,0.0,0.0,0.0,0.0,0.0,0.0,0.0,0.0,0.0,0.0,0.0,0.0,0.0,0.0,0.0,0.0,0.0,0.0,0.0,0.0,0.0,0.0,0.0,4.2417,4.6364,5.271,5.4696,5.5358,5.4854,5.1532,4.7032,4.1269,3.7127,0.0,0.0,0.0,0.0,0.0,0.0,0.0,0.0,0.0,0.0,0.0,0.0,0.0,0.0,0.0,0.0,0.0,0.0,0.0,0.0,0.0,0.0,0.0,0.0,0.0,0.0,0.0,0.0,0.0,0.0,0.0,0.0,0.0,0.0,0.0,0.0,0.0,0.0,0.0,0.0,0.0,0.0,0.0,0.0,0.0,0.0,0.0,0.0,0.0,0.0,0.0,0.0,0.0,0.0,0.0,0.0,0.0,0.0,0.0,0.0,0.0,0.0,0.0,0.0,0.0,0.0,0.0,0.0,0.0,0.0,0.0,0.0,0.0,0.0,0.0,0.0,0.0,0.0,0.0,0.0,0.0,0.0,0.0,0.0,0.0,0.0,0.0,0.0,0.0,0.0,0.0,0.0,0.0,0.0,0.0,0.0,0.0,0.0,0.0,0.0,0.0,0.0,4.4658,5.0195,5.3088,5.4119,5.3938,5.2302,4.8349,4.3754,3.8586,3.502,0.0,0.0,0.0,0.0,0.0,0.0,0.0,0.0,0.0,0.0,0.0,0.0,0.0,0.0,0.0,0.0,0.0,0.0,0.0,0.0,0.0,0.0,0.0,0.0,0.0,0.0,0.0,0.0,0.0,0.0,0.0,0.0,0.0,0.0,0.0,0.0,0.0,0.0,0.0,0.0,0.0,0.0,0.0,0.0,0.0,0.0,0.0,0.0,0.0,0.0,0.0,0.0,0.0,0.0,0.0,0.0,0.0,0.0,0.0,0.0,0.0,0.0,0.0,0.0,0.0,0.0,0.0,0.0,0.0,0.0,0.0,0.0,0.0,0.0,0.0,0.0,0.0,0.0,0.0,0.0,0.0,0.0,0.0,0.0,0.0,0.0,0.0,0.0,0.0,0.0,0.0,0.0,0.0,0.0,0.0,0.0,0.0,0.0,0.0,0.0,0.0,0.0,4.3395,4.8523,0.0,5.3683,5.3584,5.1343,4.8704,4.4778,3.9157,0.0,0.0,0.0,0.0,0.0,0.0,0.0,0.0,0.0,0.0,0.0,0.0,0.0,0.0,0.0,0.0,0.0,0.0,0.0,0.0,0.0,0.0,0.0,0.0,0.0,0.0,0.0,0.0,0.0,0.0,0.0,0.0,0.0,0.0,0.0,0.0,0.0,0.0,0.0,0.0,0.0,0.0,0.0,0.0,0.0,0.0,0.0,0.0,0.0,0.0,0.0,0.0,0.0,0.0,0.0,0.0,0.0,0.0,0.0,0.0,0.0,0.0,0.0,0.0,0.0,0.0,0.0,0.0,0.0,0.0,0.0,0.0,0.0,0.0,0.0,0.0,0.0,0.0,0.0,0.0,0.0,0.0,0.0,0.0,0.0,0.0,0.0,0.0,0.0,0.0,0.0,0.0,0.0,0.0,0.0,0.0,0.0,0.0,0.0,0.0,0.0,0.0,3.7897,4.3372,4.8179,0.0,5.2747,5.2473,5.0452,4.7456,4.3733,3.9187,0.0,0.0,0.0,0.0,0.0,0.0,0.0,0.0,0.0,0.0,0.0,0.0,0.0,0.0,0.0,0.0,0.0,0.0,0.0,0.0,0.0,0.0,0.0,0.0,0.0,0.0,0.0,0.0,0.0,0.0,0.0,0.0,0.0,0.0,0.0,0.0,0.0,0.0,0.0,0.0,0.0,0.0,0.0,0.0,0.0,0.0,0.0,0.0,0.0,0.0,0.0,0.0,0.0,0.0,0.0,0.0,0.0,0.0,0.0,0.0,0.0,0.0,0.0,0.0,0.0,0.0,0.0,0.0,0.0,0.0,0.0,0.0,0.0,0.0,0.0,0.0,0.0,0.0,0.0,0.0,0.0,0.0,0.0,0.0,0.0,0.0,0.0,0.0,0.0,0.0,0.0,0.0,0.0,0.0,0.0,0.0,0.0,0.0,0.0,0.0,0.0,0.0,3.9069,4.5215,5.0028,5.1691,5.1166,5.0334,4.9442,4.3922,3.9802,0.0,0.0,0.0,0.0,0.0,0.0,0.0,0.0,0.0,0.0,0.0,0.0,0.0,0.0,0.0,0.0,0.0,0.0,0.0,0.0,0.0,0.0,0.0,0.0,0.0,0.0,0.0,0.0,0.0,0.0,0.0,0.0,0.0,0.0,0.0,0.0,0.0,0.0,0.0,0.0,0.0,0.0,0.0,0.0,0.0,0.0,0.0,0.0,0.0,0.0,0.0,0.0,0.0,0.0,0.0,0.0,0.0,0.0,0.0,0.0,0.0,0.0,0.0,0.0,0.0,0.0,0.0,0.0,0.0,0.0,0.0,0.0,0.0,0.0,0.0,0.0,0.0,0.0,0.0,0.0,0.0,0.0,0.0,0.0,0.0,0.0,0.0,0.0,0.0,0.0,0.0,0.0,0.0,0.0,0.0,0.0,0.0,0.0,0.0,0.0,0.0,0.0,0.0,3.8239,4.4837,4.9514,4.982,5.0356,4.9954,4.808,4.3915,4.0442,3.8145,0.0,0.0,0.0,0.0,0.0,0.0,0.0,0.0,0.0,0.0,0.0,0.0,0.0,0.0,0.0,0.0,0.0,0.0,0.0,0.0,0.0,0.0,0.0,0.0,0.0,0.0,0.0,0.0,0.0,0.0,0.0,0.0,0.0,0.0,0.0,0.0,0.0,0.0,0.0,0.0,0.0,0.0,0.0,0.0,0.0,0.0,0.0,0.0,0.0,0.0,0.0,0.0,0.0,0.0,0.0,0.0,0.0,0.0,0.0,0.0,0.0,0.0,0.0,0.0,0.0,0.0,0.0,0.0,0.0,0.0,0.0,0.0,0.0,0.0,0.0,0.0,0.0,0.0,0.0,0.0,0.0,0.0,0.0,0.0,0.0,0.0,0.0,0.0,0.0,0.0,0.0,0.0,0.0,0.0,0.0,0.0,0.0,0.0,0.0,0.0,0.0,0.0,3.7604,4.3647,4.8166,4.8916,4.9607,4.9247,4.7295,4.354,4.0498,3.864,0.0,0.0,0.0,0.0,0.0,0.0,0.0,0.0,0.0,0.0,0.0,0.0,0.0,0.0,0.0,0.0,0.0,0.0,0.0,0.0,0.0,0.0,0.0,0.0,0.0,0.0,0.0,0.0,0.0,0.0,0.0,0.0,0.0,0.0,0.0,0.0,0.0,0.0,0.0,0.0,0.0,0.0,0.0,0.0,0.0,0.0,0.0,0.0,0.0,0.0,0.0,0.0,0.0,0.0,0.0,0.0,0.0,0.0,0.0,0.0,0.0,0.0,0.0,0.0,0.0,0.0,0.0,0.0,0.0,0.0,0.0,0.0,0.0,0.0,0.0,0.0,0.0,0.0,0.0,0.0,0.0,0.0,0.0,0.0,0.0,0.0,0.0,0.0,0.0,0.0,0.0,0.0,0.0,0.0,0.0,0.0,0.0,0.0,0.0,0.0,0.0,0.0,3.7227,4.2154,4.6424,4.8607,4.8845,4.833,4.705,4.2972,4.0159,3.9356,0.0,0.0,0.0,0.0,0.0,0.0,0.0,0.0,0.0,0.0,0.0,0.0,0.0,0.0,0.0,0.0,0.0,0.0,0.0,0.0,0.0,0.0,0.0,0.0,0.0,0.0,0.0,0.0,0.0,0.0,0.0,0.0,0.0,0.0,0.0,0.0,0.0,0.0,0.0,0.0,0.0,0.0,0.0,0.0,0.0,0.0,0.0,0.0,0.0,0.0,0.0,0.0,0.0,0.0,0.0,0.0,0.0,0.0,0.0,0.0,2.9306,0.0,0.0,0.0,0.0,0.0,0.0,0.0,0.0,0.0,0.0,0.0,0.0,0.0,0.0,0.0,0.0,0.0,0.0,0.0,0.0,0.0,0.0,0.0,0.0,0.0,0.0,0.0,0.0,0.0,0.0,0.0,0.0,0.0,0.0,0.0,0.0,0.0,0.0,0.0,0.0,0.0,3.7648,4.2372,4.6133,4.7518,4.7664,4.7532,4.7247,4.3091,4.016,3.9358,3.592,0.0,0.0,0.0,0.0,0.0,0.0,0.0,0.0,0.0,0.0,0.0,0.0,0.0,0.0,0.0,0.0,0.0,0.0,0.0,0.0,0.0,0.0,0.0,0.0,0.0,0.0,0.0,0.0,0.0,0.0,0.0,0.0,0.0,0.0,0.0,0.0,0.0,0.0,0.0,0.0,0.0,0.0,0.0,0.0,0.0,0.0,0.0,0.0,0.0,0.0,0.0,0.0,0.0,0.0,0.0,0.0,0.0,0.0,0.0,0.0,3.0402,0.0,0.0,0.0,0.0,0.0,0.0,0.0,0.0,0.0,0.0,0.0,0.0,0.0,0.0,0.0,0.0,0.0,0.0,0.0,0.0,0.0,0.0,0.0,0.0,0.0,0.0,0.0,0.0,0.0,0.0,0.0,0.0,0.0,0.0,0.0,0.0,0.0,0.0,0.0,0.0,3.4457,4.0932,4.5825,4.6415,4.6977,4.7074,4.6535,4.357,4.1395,4.0546,3.7296,0.0,0.0,0.0,0.0,0.0,0.0,0.0,0.0,0.0,0.0,0.0,0.0,0.0,0.0,0.0,0.0,0.0,0.0,0.0,0.0,0.0,0.0,0.0,0.0,0.0,0.0,0.0,0.0,0.0,0.0,0.0,0.0,0.0,0.0,0.0,0.0,0.0,0.0,0.0,0.0,0.0,0.0,0.0,0.0,0.0,0.0,0.0,0.0,0.0,0.0,0.0,0.0,0.0,3.8584,3.9027,4.2187,3.941,3.9662,4.1995,3.6986,3.4136,3.2905,0.0,0.0,0.0,0.0,0.0,0.0,0.0,0.0,0.0,0.0,0.0,0.0,0.0,0.0,0.0,0.0,0.0,0.0,0.0,0.0,0.0,0.0,0.0,0.0,0.0,3.7254,3.7254,0.0,0.0,0.0,0.0,0.0,0.0,0.0,0.0,0.0,0.0,0.0,0.0,3.2378,4.0549,4.6323,4.587,4.6708,4.69,4.5917,4.428,4.2872,4.1869,3.9004,3.6869,0.0,0.0,0.0,0.0,0.0,0.0,0.0,0.0,0.0,0.0,0.0,0.0,0.0,0.0,0.0,0.0,0.0,0.0,0.0,0.0,0.0,0.0,0.0,0.0,0.0,0.0,0.0,0.0,0.0,0.0,0.0,0.0,2.9789,2.9789,0.0,0.0,0.0,0.0,0.0,0.0,0.0,0.0,0.0,0.0,0.0,0.0,0.0,3.1365,3.4788,3.7701,4.111,4.4919,4.4477,4.6054,4.9344,4.8899,4.8937,4.9478,5.1493,0.0,4.2916,3.4042,0.0,0.0,0.0,0.0,0.0,0.0,0.0,0.0,0.0,0.0,0.0,0.0,0.0,0.0,0.0,0.0,0.0,0.0,0.0,0.0,0.0,0.0,4.4263,4.4263,4.4263,4.4263,0.0,3.9775,3.6502,3.9107,3.739,0.0,0.0,0.0,0.0,0.0,0.0,0.0,3.8474,4.5521,4.9171,4.6966,4.7069,4.7148,4.6757,4.5143,4.347,4.1908,4.0664,3.8952,3.6636,3.5734,0.0,0.0,0.0,0.0,0.0,0.0,0.0,0.0,0.0,0.0,0.0,0.0,0.0,0.0,0.0,0.0,0.0,0.0,0.0,0.0,0.0,0.0,0.0,0.0,0.0,0.0,0.0,0.0,0.0,2.8318,3.1809,3.5622,3.2715,2.9806,0.0,0.0,0.0,0.0,0.0,0.0,0.0,0.0,0.0,3.6028,3.7932,4.0585,4.4008,4.5494,4.7939,5.1284,5.1284,5.2054,5.3515,5.3515,5.3515,5.3592,5.5054,5.4016,5.0649,4.2356,3.6698,3.3269,0.0,0.0,0.0,0.0,3.4212,3.5769,3.7661,3.9261,0.0,3.8296,0.0,0.0,0.0,0.0,0.0,0.0,0.0,0.0,0.0,0.0,0.0,4.8016,4.8478,4.7939,4.6015,4.4782,4.2777,0.0,3.8027,3.7719,3.5827,0.0,0.0,0.0,0.0,3.6407,4.5111,4.717,4.7648,4.7184,4.7105,4.6836,4.6223,4.5475,4.4318,4.2641,4.172,4.0315,3.8257,3.6888,3.5963,0.0,0.0,0.0,0.0,0.0,0.0,0.0,0.0,0.0,0.0,0.0,0.0,0.0,0.0,0.0,0.0,0.0,0.0,0.0,0.0,0.0,0.0,0.0,0.0,0.0,0.0,0.0,0.0,3.3079,3.7775,4.0206,3.4524,3.0402,0.0,0.0,0.0,0.0,0.0,0.0,3.7908,3.8081,3.9623,4.2995,4.6419,4.9401,5.1957,5.1977,5.3669,5.6995,5.6995,5.6995,5.6995,5.6995,5.6995,5.6995,5.6995,5.6514,5.5244,4.9344,4.3414,3.8081,3.8081,3.8081,3.8081,3.8081,3.8081,3.8563,4.1935,4.3111,4.2553,3.9179,0.0,4.3669,4.0242,0.0,0.0,0.0,0.0,3.9236,4.4282,4.6246,4.7554,5.0094,5.0709,4.9998,4.7458,4.8901,4.8206,0.0,3.976,4.0223,3.7294,0.0,0.0,0.0,0.0,4.0987,4.8993,4.7802,4.6494,4.7129,4.7026,4.6545,4.5669,4.5592,4.4975,4.3508,4.2602,4.1371,3.9686,3.795,3.6549,3.5523,0.0,0.0,0.0,0.0,0.0,0.0,0.0,0.0,0.0,0.0,0.0,0.0,0.0,0.0,0.0,0.0,0.0,0.0,0.0,0.0,0.0,0.0,0.0,0.0,0.0,0.0,0.0,0.0,0.0,4.161,3.4524,0.0,0.0,0.0,0.0,3.0383,3.6355,4.1476,4.4919,4.5092,4.667,5.0075,5.3439,5.5263,5.5456,5.5456,5.7168,6.0534,6.0534,6.0534,6.0534,6.0534,6.0534,6.0534,6.0534,5.8706,5.5436,5.19,4.8324,4.5092,4.5092,4.5092,4.5092,4.5092,4.5092,4.5573,4.8997,5.019,4.9613,4.6208,4.313,4.0129,3.6773,3.7853,0.0,0.0,4.5092,4.5169,4.5515,4.8016,5.0498,5.0652,5.0709,5.0652,5.0479,5.0575,4.9594,0.0,4.3934,4.2395,4.0552,0.0,3.55,3.55,4.0969,4.5859,4.7968,4.8084,4.7699,4.7005,4.6908,4.6545,4.5669,4.5592,4.5205,4.4299,4.347,4.2241,4.0514,3.8836,3.7168,3.5523,3.5509,0.0,0.0,0.0,0.0,0.0,0.0,0.0,0.0,0.0,0.0,0.0,0.0,0.0,0.0,0.0,0.0,0.0,0.0,0.0,0.0,0.0,0.0,0.0,0.0,0.0,0.0,0.0,0.0,5.1991,4.628,0.0,4.0317,3.7219,3.664,3.9933,4.4455,4.8536,5.1919,5.4189,5.5939,5.7151,5.6225,5.6764,5.8957,5.8976,5.9591,6.0803,6.0803,6.0803,6.0803,6.0803,6.0803,6.0803,6.0803,6.0111,5.888,5.7687,5.5189,5.2092,5.2092,5.2092,5.2092,5.2092,5.2092,5.2265,5.3496,5.3919,5.3362,4.9978,4.6573,4.3553,4.2356,4.2839,4.4034,4.5265,4.7189,4.8882,4.8882,4.9786,5.0709,5.0709,5.0709,5.0709,5.0709,5.0709,5.0344,4.9113,4.661,4.4513,4.388,4.2782,4.1991,4.1991,4.4051,4.5823,4.6417,4.7432,4.7853,4.7223,4.6492,4.5936,4.5631,4.509,4.4415,4.3585,4.2205,4.1148,4.0535,3.8894,3.7713,3.7127,3.6556,3.6026,0.0,0.0,0.0,0.0,0.0,0.0,0.0,0.0,0.0,0.0,0.0,0.0,0.0,0.0,0.0,0.0,0.0,0.0,0.0,0.0,0.0,0.0,0.0,0.0,0.0,0.0,5.3112,5.5068,5.359,5.0611,4.6035,4.4609,4.5857,5.038,5.2823,5.5074,5.7302,5.9572,6.0803,6.0803,5.8591,5.8514,6.0784,6.0803,6.0803,6.0803,6.0803,6.0803,6.0803,6.0803,6.0803,6.0803,6.0803,6.0803,6.0803,6.0803,5.9457,5.7305,5.6148,5.5706,5.5706,5.5706,5.5706,5.5706,5.5706,5.5706,5.5321,5.3112,5.0842,4.8805,4.7651,4.7324,4.7554,4.8689,5.063,5.2381,5.2381,5.2381,5.2381,5.2381,5.1517,5.0709,5.0709,5.0709,5.0709,5.0709,4.8863,4.7324,4.7324,4.6362,4.5592,4.5592,4.5592,4.5592,4.5592,4.6569,4.7221,4.7165,4.6225,4.5477,4.5188,4.4626,4.3953,4.3143,4.1741,4.0935,4.0935,3.9336,3.8432,3.8432,3.7582,3.6888,3.6348,0.0,0.0,0.0,0.0,0.0,0.0,0.0,0.0,0.0,0.0,0.0,0.0,0.0,0.0,0.0,0.0,0.0,0.0,0.0,0.0,0.0,0.0,0.0,4.3111,5.0149,5.4186,5.0127,5.5263,5.5708,4.6939,5.1919,5.711,6.0534,6.0803,6.0803,6.0803,6.0803,6.0803,6.0803,6.0803,6.0803,6.0803,6.0803,6.0803,6.0803,6.0803,6.0803,6.0803,6.0803,6.0818,6.0856,6.0824,6.0803,6.0803,6.0803,6.0803,6.0476,5.7148,5.586,5.586,5.586,5.586,5.584,5.5744,5.5706,5.5706,5.5706,5.5706,5.509,5.1842,5.0863,5.1534,5.4785,5.5706,5.5706,5.5706,5.5706,5.5706,5.5706,5.3227,5.0844,5.0789,5.0786,5.0786,5.0767,5.0729,5.0709,5.0709,4.7958,4.5765,4.5765,4.5669,0.0,4.5746,4.5669,4.5917,4.6774,4.6107,4.5265,4.4415,4.4274,4.3925,4.3143,4.2229,4.1727,4.1754,4.0183,3.9302,3.9302,3.8432,3.8007,3.8007,0.0,0.0,0.0,0.0,0.0,0.0,0.0,0.0,0.0,0.0,0.0,0.0,0.0,0.0,0.0,0.0,0.0,0.0,0.0,0.0,0.0,0.0,5.4392,5.1207,5.3612,5.5571,5.5244,5.8245,5.9363,5.6863,5.6052,5.711,6.0534,6.0803,6.0803,6.0803,6.0803,6.0803,6.0803,6.0803,6.0803,6.0803,6.0803,6.0803,6.0803,6.0803,6.0803,6.0803,6.0803,6.1325,6.2196,6.1214,6.0803,6.0803,6.0803,6.0803,6.0707,5.9764,5.9399,5.9399,5.9399,5.9399,5.9033,5.6552,5.5706,5.5706,5.5706,5.5706,5.5533,5.4593,5.4323,5.4516,5.5436,5.5706,5.5706,5.5706,5.5706,5.5706,5.5706,5.4997,5.3987,5.2774,5.2817,5.286,5.2088,5.1265,5.0709,5.0709,4.9921,4.9305,4.9305,4.7189,0.0,4.8978,4.7131,4.5688,4.5936,4.5746,4.5496,4.5265,4.3907,4.3072,4.3094,4.0911,3.9991,4.0812,3.9858,3.9302,3.9302,3.8432,3.8007,0.0,0.0,0.0,0.0,0.0,0.0,0.0,0.0,0.0,0.0,0.0,0.0,0.0,0.0,0.0,0.0,0.0,0.0,0.0,0.0,0.0,0.0,5.2296,5.9739,5.7822,5.7725,5.8341,5.9704,6.0839,6.1322,6.0842,5.8995,5.8668,6.0649,6.0803,6.0803,6.0803,6.0803,6.0434,5.9656,6.1782,6.2246,6.0803,6.0022,5.9632,5.9632,5.9632,6.0331,6.1636,6.1636,6.2056,0.0,6.0553,5.9632,5.9632,5.9632,5.9632,0.0,0.0,0.0,0.0,0.0,6.0803,6.0515,5.8533,5.7841,5.7591,5.6167,5.5706,5.5706,5.5706,5.5205,5.4648,5.4648,5.4922,5.5218,5.5331,5.5526,5.5706,5.5706,5.5346,5.4721,5.3751,5.3601,5.3487,5.2867,5.1445,0.0,5.0353,5.0551,5.0709,5.0709,4.9017,4.8459,5.044,4.8978,4.7119,4.5479,4.5308,4.5122,4.468,4.3254,0.0,0.0,0.0,3.9494,4.0307,3.9984,0.0,0.0,0.0,3.905,3.905,0.0,0.0,0.0,3.8471,3.8452,0.0,0.0,0.0,0.0,0.0,0.0,0.0,0.0,0.0,0.0,0.0,0.0,0.0,0.0,0.0,0.0,5.8819,6.3625,6.315,6.2207,6.205,6.3432,6.3166,6.2496,6.1476,6.138,6.138,6.138,6.138,6.1109,6.0514,0.0,0.0,0.0,0.0,6.4082,6.1063,5.938,5.8529,5.8529,5.8529,5.985,6.226,6.226,6.226,6.2095,5.9245,5.8002,5.8002,5.8002,5.8002,5.8175,5.982,6.0485,6.0485,6.0485,6.0485,6.0485,6.0485,0.0,0.0,5.72,5.6013,5.5706,5.5706,5.4727,5.3576,5.3288,5.394,5.4738,5.4835,5.5205,5.5564,5.5564,5.4794,5.4064,5.4064,5.3686,5.333,5.3272,5.1687,5.0222,4.9871,5.0293,5.0709,5.0709,5.0551,5.0429,5.0423,5.0429,4.9037,4.5393,0.0,0.0,4.3539,4.2668,4.1867,4.1126,4.0223,3.9845,4.0088,4.0332,4.0471,4.0494,4.0496,4.0496,4.0496,4.0496,4.0496,4.0477,3.9763,3.9821,0.0,0.0,0.0,0.0,0.0,0.0,0.0,0.0,0.0,0.0,0.0,0.0,0.0,0.0,0.0,6.263,6.5093,6.6724,6.6631,6.6381,6.5994,6.5458,6.5304,6.515,6.4939,6.4919,6.4919,6.4919,6.4919,6.3046,5.8762,5.9984,0.0,6.4307,6.3732,6.3087,6.2409,6.2056,6.1875,6.1875,0.0,0.0,5.8933,5.8933,5.8933,5.8896,5.8272,5.8002,5.8002,5.8002,5.8002,5.8048,5.8397,5.8547,5.8547,5.8547,5.8547,5.8547,5.8547,5.8547,5.8687,5.9546,5.7956,5.5706,5.5706,5.5956,0.0,5.3784,5.4571,5.582,5.4833,5.4645,5.473,5.473,5.4562,5.4391,5.4391,5.4314,5.4133,5.3757,5.3348,5.2239,4.9683,5.0062,5.0709,5.0709,4.9598,4.8763,4.8764,4.8757,4.7959,4.5842,4.5635,4.527,4.4419,4.3313,4.2715,4.28,4.1399,4.0429,4.0105,4.0148,4.0289,4.0492,4.0496,4.0496,4.0496,4.0496,4.0496,4.0496,4.0342,4.0342,0.0,0.0,0.0,0.0,0.0,0.0,0.0,0.0,0.0,0.0,0.0,3.8527,0.0,0.0,6.7843,6.617,6.7071,6.8282,6.9129,6.8494,6.7644,6.6843,6.6247,6.59,6.59,6.59,6.59,6.59,6.59,6.3588,5.8286,6.0415,6.2574,6.429,6.3333,6.2793,6.2793,6.2793,6.2793,6.2793,6.2793,6.1955,6.0395,6.0395,5.952,5.8002,5.8002,5.8002,5.8002,5.8002,5.8002,5.8002,5.8002,5.8002,5.8002,5.8002,5.8002,5.8002,5.8002,5.8002,5.814,5.9093,5.8232,5.684,5.684,5.6027,5.537,5.6643,5.5929,5.4657,5.4009,5.3849,5.3925,5.4193,5.439,5.4498,5.4498,5.4361,5.4223,5.4158,5.3635,5.2707,5.1123,5.0105,4.9501,4.9501,4.8819,4.8587,4.9408,4.8799,4.7983,4.7147,4.5613,4.4652,4.4645,4.3352,4.2446,4.2202,4.1726,4.1348,4.1114,4.1239,4.1459,4.1797,4.1605,4.1602,4.1801,4.1801,4.1801,4.1801,4.1801,4.1568,0.0,0.0,0.0,0.0,0.0,0.0,0.0,0.0,4.767,4.7995,4.8591,4.9976,5.3073,6.2573,6.9148,6.6763,6.751,6.8872,7.0225,6.9529,6.8721,6.8286,6.742,6.6612,6.5958,6.5534,6.5462,6.5862,6.4951,6.2769,5.9122,6.1386,6.2793,6.2793,6.2793,6.2793,6.2793,6.2793,6.2793,6.2793,6.2793,6.2462,6.1875,6.1875,6.0799,5.8896,5.8272,5.8002,5.8002,5.8002,5.8002,5.8002,5.8002,5.8002,5.8002,5.8002,5.8002,5.8002,5.8002,5.8002,5.8002,5.8002,5.8002,5.8002,5.8002,5.5752,5.4183,5.8912,5.7425,5.4224,5.3406,5.3196,5.3304,5.3737,5.4212,5.4505,5.4288,5.4166,5.4146,5.4357,5.3568,5.2889,5.2968,5.118,4.952,4.889,4.9046,4.9485,5.0158,4.9096,4.8296,4.8306,4.597,4.4436,4.4457,4.3273,4.2194,4.1379,4.1833,4.21,4.2002,4.2269,4.2599,4.2975,4.275,4.2711,4.2925,4.3045,4.3145,4.3263,4.3318,4.2872,3.5845,3.5872,3.7067,3.9222,4.2553,4.6015,0.0,0.0,5.5013,5.6566,5.9259,6.1913,6.3842,6.5439,6.6821,6.793,6.8276,6.8468,6.8641,6.9799,7.0591,7.0533,7.0417,6.9167,6.6189,6.4227,6.3917,6.5768,6.1548,5.9864,6.2132,6.2609,6.2793,6.2793,6.2793,6.2793,6.2793,6.2793,6.2793,6.2793,6.2793,6.1288,5.8529,5.8529,5.9905,6.2095,5.9245,5.8002,5.8002,5.8002,5.8002,5.8002,5.8002,5.8002,5.8002,5.8002,5.8002,5.8002,5.8002,5.8002,5.8002,5.8002,5.8002,5.8002,5.8002,5.5752,5.3915,5.735,5.8509,5.7855,5.4153,5.3196,5.3227,5.3274,5.404,5.4499,5.3553,5.3872,5.4296,5.4086,5.394,5.3944,5.4233,5.4608,5.3881,5.0962,5.1742,5.1661,4.8921,4.8416,4.8299,4.8292,4.7979,4.6639,4.3868,4.3469,4.3024,4.2213,4.2249,4.2093,4.1679,4.1973,4.2283,4.2567,4.2872,4.2783,4.2291,4.2846,4.3342,4.3818,4.4055,4.372,3.9662,3.9921,4.0786,0.0,4.4816,4.7798,5.0631,5.3274,5.5817,5.8265,6.2778,6.6179,6.5955,6.7497,6.9033,0.0,7.0699,7.1007,6.9991,7.0456,6.9739,6.6556,6.7249,6.7714,6.7009,6.4442,6.3168,6.4025,6.2045,6.138,6.2738,6.2793,6.2793,6.2793,6.2793,6.2793,6.2793,6.2793,6.2793,6.2793,6.2793,6.2095,6.0799,6.0799,6.0505,6.0034,6.056,5.9734,5.8002,5.8002,5.8002,5.8002,5.8002,5.8002,5.8002,5.8002,5.8002,5.8002,5.8002,5.8002,5.8002,5.8002,5.8002,5.8002,5.8002,5.706,5.6266,5.7611,5.8288,5.8198,5.6441,5.599,5.599,5.599,5.6347,5.6281,5.4891,5.4125,5.3671,5.3568,5.3526,5.3587,5.3713,5.4026,5.3779,5.2404,5.2775,5.2707,5.1327,4.9475,4.8297,4.8305,4.7454,4.5989,4.3694,4.3506,4.3368,4.3024,4.3174,4.3241,4.3111,4.3174,4.355,4.4293,4.3937,4.3878,4.4175,4.4432,4.4669,4.4887,4.4998,4.4878,4.197,4.2708,0.0,4.5037,4.7426,5.0157,5.2821,5.5047,5.7227,5.9699,6.4205,6.7374,6.6267,6.7968,6.9821,7.0744,7.1953,7.2136,7.0271,6.9248,6.6886,6.205,6.2015,6.3091,6.4855,6.368,6.2793,6.2793,6.2793,6.2793,6.2793,6.2793,6.2793,6.2793,6.2793,6.2793,6.2793,6.2793,6.2793,6.2793,6.2793,6.2793,6.2793,6.2793,6.1037,5.8125,6.045,6.0156,5.8002,5.8002,5.8002,5.8002,5.8002,5.8002,5.8002,5.8002,5.8002,5.8002,5.8002,5.8002,5.8002,5.8002,5.8002,5.8002,5.8002,5.8002,5.8002,5.8002,5.8002,5.8002,5.8002,5.8002,5.8002,5.8002,5.8002,5.7687,5.6504,5.5346,5.426,5.3379,5.3196,5.3196,5.3196,5.3196,5.3196,5.3196,5.3209,5.2866,5.1971,4.9763,4.8293,4.831,4.726,4.609,4.4912,4.4015,4.3508,4.3495,4.3732,4.3902,4.4007,4.4033,4.4362,4.5017,4.4726,4.4912,4.5591,4.5591,4.5607,4.5592,4.5592,4.5592,4.1136,0.0,4.4752,4.7948,5.0827,5.3724,5.7048,5.9517,6.1468,6.2719,6.4589,6.6086,6.6414,6.6255,6.7112,7.036,7.0937,7.0234,6.8091,6.5044,6.1826,5.854,5.5456,5.4829,0.0,6.1037,6.2793,6.2793,6.2793,6.2793,6.2793,6.2793,6.2793,6.2793,6.2793,6.2793,6.2793,6.2793,6.2793,6.2793,6.2793,6.2793,6.2793,6.2793,6.1037,5.8002,5.8107,5.8094,5.8002,5.8002,5.8002,5.8002,5.8002,5.8002,5.8002,5.8002,5.8002,5.8002,5.8002,5.8002,5.8002,5.8002,5.8002,5.8002,5.8002,5.8002,5.8002,5.8002,5.8002,5.8002,5.8002,5.8002,5.8002,5.8002,5.8002,5.7997,5.7936,5.7886,5.6932,5.3807,5.3196,5.3196,5.3196,5.3196,5.3196,5.3196,5.3193,5.2041,4.8852,4.835,4.8293,4.831,4.8259,4.8204,4.8158,4.5287,4.3491,4.3495,4.3518,4.3509,4.3509,4.3959,4.4001,4.3576,4.4883,4.5564,4.5609,4.5609,4.5589,4.5592,4.5592,4.5592,4.3842,0.0,4.9288,5.2542,5.5235,5.7825,6.0554,6.1756,6.2543,6.3447,6.47,6.5735,6.6045,6.6904,6.7567,6.7571,6.9456,7.0645,6.9929,6.5769,6.0811,5.5453,5.5734,0.0,0.0,0.0,0.0,5.9624,6.1582,6.2793,6.2793,6.2793,6.2793,6.2793,6.2793,6.2793,6.2793,6.2793,6.2793,6.2793,6.2793,6.2793,6.2793,6.2793,6.1037,5.8002,5.8002,5.8002,5.8002,5.8002,5.8002,5.8002,5.8002,5.8002,5.8002,5.8002,5.8002,5.8002,5.8002,5.8002,5.8002,5.8002,5.8002,5.8002,5.8002,5.8002,5.8002,5.8002,5.8002,5.8002,5.8002,5.8002,5.8002,5.8002,5.8002,5.8002,5.8002,5.8002,5.7685,5.6602,5.5519,5.4454,5.3379,5.3196,5.3196,5.3196,5.3193,5.2018,4.8722,4.8304,4.8299,4.8292,4.8306,4.8296,4.8295,4.7316,4.5764,4.3634,4.3495,4.3493,4.3493,4.3654,4.3661,4.3501,4.3963,4.4217,4.4217,4.5132,4.5593,4.5592,4.5592,4.5592,4.7604,5.0472,5.3427,5.7231,5.9575,6.1367,6.2909,6.3162,6.3175,6.346,6.388,6.4325,6.4719,6.2836,6.1632,6.2869,6.5855,6.8421,6.959,6.475,5.9985,5.6994,5.6431,5.5923,0.0,0.0,0.0,5.8002,6.0982,6.2793,6.2793,6.2793,6.2793,6.2793,6.2793,6.2793,6.2793,6.2793,6.2793,6.2793,6.2793,6.2793,6.2756,6.1606,5.996,5.8002,5.8002,5.8002,5.8002,5.8002,5.8002,5.8002,5.8002,5.8002,5.8002,5.8002,5.8002,5.8002,5.8002,5.8002,5.8002,5.8002,5.8002,5.8002,5.8002,5.8002,5.8002,5.8002,5.8002,5.8002,5.8002,5.8002,5.8002,5.8002,5.8002,5.8002,5.8002,5.8002,5.8002,5.8002,5.7158,5.613,5.5091,5.3966,5.3196,5.3196,5.3199,5.2435,5.0319,5.0049,5.0051,5.0051,5.004,4.9574,4.8405,4.8293,4.7421,4.5352,4.5214,4.4705,4.3554,4.3506,4.35,4.3493,4.3983,4.426,4.4248,4.516,4.5608,4.5592,4.5592,4.5592,5.193,5.4546,5.7085,6.1728,6.3539,6.4151,6.4103,6.3863,6.3469,6.2812,6.2287,6.1912,0.0,0.0,5.0026,5.6033,5.9991,6.3404,6.6526,6.193,5.9318,0.0,0.0,0.0,0.0,0.0,0.0,5.8002,0.0,6.2627,6.2793,6.2958,6.2976,6.2811,6.2793,6.2793,6.2793,6.2793,6.2884,6.305,6.2884,6.2719,6.2444,5.9391,5.8002,5.8002,5.8002,5.8002,5.8002,5.8002,5.8002,5.8002,5.8002,5.8002,5.8002,5.8002,5.8002,5.8002,5.8002,5.8002,5.8002,5.8002,5.8002,5.8002,5.8002,5.8002,5.8002,5.8002,5.8002,5.8002,5.8002,5.8002,5.8002,5.8002,5.8002,5.8002,5.8002,5.8002,5.8002,5.8002,5.8002,5.8002,5.8002,5.5477,5.3398,5.3214,5.3251,5.3251,5.3203,5.3198,5.3207,5.3207,5.3189,5.1868,4.8579,4.8298,4.8293,4.8305,4.8297,4.6934,4.3865,4.3587,4.3493,4.3495,4.4808,4.5523,4.5606,4.5602,4.5601,4.5592,4.5592,4.5592,5.2865,5.6994,6.1459,6.3545,6.4524,6.4836,6.4243,6.4186,6.3659,6.1453,6.1828,5.9666,0.0,0.0,0.0,4.3732,5.0393,0.0,5.678,5.9606,0.0,5.941,0.0,5.9359,6.138,5.941,0.0,0.0,5.8767,6.0266,6.2664,6.5118,6.5338,6.2884,6.2793,6.2793,6.2793,6.2793,6.4028,6.6427,6.3973,6.1545,5.9208,5.8364,5.8002,5.8002,5.8002,5.8002,5.8002,5.8002,5.8002,5.8002,5.8002,5.8002,5.8002,5.8002,5.8002,5.8002,5.8002,5.8002,5.8002,5.8002,5.8002,5.8002,5.8002,5.8002,5.8002,5.8002,5.8002,5.8002,5.8002,5.8002,5.8002,5.8002,5.8002,5.8002,5.8002,5.8002,5.8002,5.8002,5.8002,5.8002,5.8002,5.7317,5.5954,5.3563,5.3885,5.4098,5.3306,5.3199,5.3196,5.3196,5.3205,5.1872,4.8585,4.8303,4.8298,4.8293,4.831,4.7919,4.7114,4.4771,4.35,4.3497,4.3844,4.4556,4.5609,4.56,4.5601,4.5592,4.5592,4.5592,5.7495,6.1392,6.5099,6.5742,6.6476,6.6641,6.5007,6.4175,6.3325,6.1771,6.1055,0.0,4.3773,0.0,0.0,0.0,0.0,0.0,5.741,6.0517,6.2132,0.0,6.2187,0.0,6.286,6.1166,6.0101,0.0,6.0101,6.152,6.4787,6.6703,6.6189,6.2903,6.4194,6.4946,6.4946,6.4946,6.5154,6.5521,6.3673,6.1857,6.0101,6.0101,5.9336,5.8076,0.0,5.9318,5.8002,5.8002,5.8002,5.8002,5.8002,5.8002,5.8002,5.8002,5.8002,5.8002,5.8002,5.8002,5.8002,5.8002,5.8002,5.8002,5.8002,5.8002,5.8002,5.8002,5.8002,5.8002,5.8002,5.8002,5.8002,5.8002,5.8002,5.8002,5.8002,5.8002,5.8002,5.8002,5.8002,5.8002,5.8002,5.7617,5.6681,5.4876,5.4625,5.4405,5.3807,5.3416,5.3196,5.3196,5.3193,5.2168,4.9615,4.8709,4.8295,4.8292,4.8307,4.8295,4.8301,4.6576,4.5606,4.5599,4.4216,4.3885,4.4682,4.5308,4.5599,4.5592,4.5603,4.5592,6.3564,6.6214,6.7939,6.7994,6.8391,6.8091,6.5552,6.3839,6.2683,6.2242,0.0,5.2013,4.0777,3.9041,4.2233,5.1101,0.0,6.2316,6.2738,6.3178,6.3288,6.2848,6.5705,6.6574,6.3735,6.3061,6.2975,6.3417,6.3453,6.4689,6.7554,6.77,6.6391,6.3545,6.6207,6.77,6.77,6.77,6.6262,6.346,6.3013,6.2793,6.2793,6.2793,6.1276,5.8786,0.0,0.0,5.8002,5.8002,5.8002,5.8002,5.8002,5.8253,5.8639,5.8639,5.8364,5.8002,5.8002,5.8002,5.8002,5.8002,5.8002,5.8002,5.8002,5.8002,5.8002,5.8002,5.8002,5.8002,5.8002,5.8002,5.8002,5.8002,5.8002,5.8002,5.8002,5.8002,5.8002,5.8002,5.8002,5.8002,5.8002,5.7231,5.6552,5.6424,5.5359,5.4528,5.4418,5.3697,5.3196,5.3196,5.3196,5.2632,5.1244,4.9651,4.861,4.8314,4.83,4.8302,4.8296,4.83,4.8292,4.8299,4.5551,4.4133,4.4139,4.5269,4.5722,4.5592,4.5609,4.5607,6.6526,6.8024,6.9125,6.9566,6.7816,6.5515,6.3655,6.3013,0.0,0.0,4.9884,4.1364,3.9107,4.0866,4.4087,4.8438,5.4601,5.9758,6.2426,6.5136,6.5833,0.0,0.0,0.0,0.0,0.0,0.0,0.0,0.0,6.7095,6.7664,6.77,6.7444,6.6868,6.7407,6.77,6.77,6.77,6.7407,6.6813,6.4102,6.2793,6.2793,6.2793,6.2499,6.2004,6.2554,0.0,5.8002,5.8002,5.8002,5.8002,5.8002,5.963,6.1967,6.1967,6.0285,5.8002,5.8002,5.8002,5.8002,5.8002,5.8002,5.8002,5.8002,5.8002,5.8002,5.8002,5.8002,5.8002,5.8002,5.8002,5.8002,5.8002,5.8002,5.8002,5.8002,5.8002,5.8002,5.8002,5.8002,5.8002,5.8002,5.7855,5.7415,5.6534,5.5824,5.5139,5.4491,5.3697,5.3196,5.3196,5.3196,5.3091,5.2814,5.1698,5.0244,4.8414,4.8305,4.8307,4.8302,4.8302,4.8294,4.831,4.7749,4.747,4.7462,4.7055,4.6405,4.5608,4.5604,4.5604,6.7877,6.9713,7.0624,6.9199,6.8953,6.6616,5.7361,0.0,0.0,0.0,4.1658,3.6666,3.8373,3.9967,0.0,4.5285,4.5576,4.8893,5.889,6.3099,0.0,6.5338,0.0,0.0,0.0,0.0,0.0,0.0,0.0,6.77,6.77,6.77,6.77,6.77,6.77,6.77,6.77,6.77,6.77,6.7682,6.609,6.445,6.2793,6.2793,6.2793,6.2793,6.2793,0.0,6.0505,6.0505,6.0505,6.0505,6.0505,6.1441,6.2793,6.2793,6.182,6.0505,6.0505,5.9404,5.8002,5.8002,5.8002,5.8002,5.8002,5.8002,5.8345,6.0028,6.0505,6.0505,6.0505,5.9263,5.8002,5.8002,5.8002,5.8002,5.8002,5.8002,5.8002,5.8002,5.8002,5.8002,5.8002,5.8002,5.7837,5.7305,5.6662,5.6088,5.5702,5.4577,5.366,5.3232,5.3196,5.302,5.2615,5.249,5.1612,4.971,4.8781,4.83,4.8307,4.8295,4.8303,4.8296,4.8301,4.8297,4.8303,4.7074,4.7085,4.8219,4.6424,4.5599,6.8843,7.1082,7.189,6.9364,6.9577,6.6359,5.082,4.4787,0.0,3.8322,3.5605,3.4596,3.7162,0.0,3.9533,0.0,3.8766,3.9849,5.1229,5.7991,6.2982,0.0,6.6648,0.0,0.0,0.0,0.0,0.0,0.0,0.0,6.77,6.77,6.77,6.77,6.77,6.77,6.77,6.77,6.77,6.77,6.77,6.5987,6.2793,6.2793,6.2793,6.2793,6.2793,0.0,0.0,6.2793,6.2793,6.2793,6.2793,6.2793,6.2793,6.2793,6.2793,6.2793,6.2793,6.1147,5.9024,5.9024,5.8565,5.8002,5.8002,5.8002,5.8529,6.1055,6.1771,6.193,6.2627,6.0413,5.8002,5.8002,5.8002,5.8002,5.8002,5.8002,5.8002,5.8002,5.8002,5.8002,5.8002,5.8002,5.8002,5.8002,5.7317,5.6792,5.6792,5.5556,5.4344,5.355,5.3306,5.2944,5.2312,5.2839,5.2652,5.1388,5.0088,4.902,4.8335,4.8307,4.8292,4.8304,4.8304,4.8292,4.8301,4.7125,4.7883,5.037,4.7485,4.6332,7.0176,7.1791,7.2441,7.2129,6.7846,6.0224,4.6957,0.0,3.8208,3.4926,3.4009,3.388,3.4189,0.0,0.0,0.0,0.0,4.1065,3.6655,4.8967,5.9648,6.2872,0.0,0.0,0.0,0.0,0.0,0.0,0.0,0.0,6.77,6.77,6.77,6.77,6.77,6.77,6.77,6.77,6.77,6.77,6.77,6.5987,6.2793,6.2793,6.2793,6.2793,6.2793,0.0,0.0,6.2793,6.2793,6.2793,6.2793,6.2793,6.2793,6.2793,6.2793,6.2793,6.2793,6.2609,6.2352,6.2352,6.0376,5.8002,5.8002,5.8002,5.8057,5.8369,5.8437,5.9116,6.204,6.0413,5.8002,5.8002,5.8002,5.8002,5.8002,5.8002,5.8002,5.8002,5.8002,5.8002,5.8002,5.8002,5.8002,5.8002,5.7317,5.6792,5.6792,5.6033,5.5176,5.4381,5.3636,5.3177,5.3104,5.3151,5.3138,5.2988,5.2835,5.1417,4.8418,4.8303,4.8297,4.8292,4.8292,4.8297,4.8293,4.8519,4.8956,4.9577,4.84,4.8715,7.1112,7.225,7.2488,7.2488,6.6139,5.7024,4.6003,0.0,3.7767,3.4486,3.3807,3.3807,3.3807,3.4871,3.5749,0.0,0.0,0.0,4.0,4.1831,4.8246,6.1251,6.2793,0.0,0.0,0.0,0.0,0.0,0.0,0.0,6.77,6.77,6.77,6.77,6.77,6.77,6.77,6.77,6.77,6.77,6.77,6.7021,6.5687,6.3698,6.2793,6.2793,6.2793,0.0,0.0,6.2793,6.2793,6.2793,6.2793,6.2793,6.2793,6.2793,6.2793,6.2793,6.2793,6.2793,6.2793,6.2793,6.0615,5.8002,5.8002,5.8002,5.8002,5.8002,5.8002,5.8296,5.9575,5.8951,5.8002,5.8002,5.8002,5.8002,5.8002,5.8002,5.8002,5.8002,5.8002,5.8002,5.8002,5.8002,5.8002,5.8002,5.7721,5.7519,5.7519,5.6822,5.6198,5.588,5.4687,5.3733,5.3232,5.3196,5.3193,5.3199,5.2294,5.1317,5.0323,4.9019,4.8544,4.9063,4.8563,4.8301,4.8301,4.7965,4.8154,4.877,4.8386,4.9117,6.8458,7.0782,7.2159,7.0722,6.1978,5.167,0.0,0.0,3.7767,3.4486,3.3807,3.3807,3.3807,3.4596,3.4923,3.3954,0.0,4.2951,4.3433,3.9559,4.1754,0.0,0.0,0.0,0.0,0.0,0.0,0.0,0.0,0.0,0.0,6.77,6.77,6.77,6.77,6.77,6.77,6.77,6.77,6.77,6.77,6.77,6.759,6.4304,6.2793,6.2793,0.0,0.0,0.0,6.2793,6.2793,6.2793,6.2793,6.2793,6.2793,6.2793,6.2793,6.2793,6.2793,6.2793,6.2793,6.2793,6.127,5.9428,5.9428,5.8749,5.8002,5.8002,5.8694,5.9428,5.9428,5.8712,5.8002,5.8002,5.8002,5.8002,5.8002,5.8002,5.8002,5.8002,5.8002,5.8002,5.8002,5.8002,5.8002,5.8002,5.8002,5.8002,5.8002,5.7519,5.7055,5.6835,5.5789,5.4687,5.3636,5.3343,5.3196,5.3196,5.2129,5.1467,5.1378,5.0098,4.9503,4.9699,4.9035,4.8567,4.8299,4.7732,4.7822,4.8549,4.854,4.9314,6.1019,6.6781,7.1343,6.658,5.4424,4.279,0.0,0.0,3.7767,3.4486,3.3807,3.3807,3.3807,3.6464,3.7584,3.4321,3.791,0.0,4.3286,4.3433,4.3469,0.0,0.0,0.0,0.0,0.0,0.0,0.0,0.0,0.0,6.77,6.77,6.77,6.77,6.77,6.77,6.77,6.77,6.77,6.77,6.77,6.77,6.759,6.4304,6.2793,0.0,0.0,0.0,0.0,6.2793,6.2793,6.2793,6.2793,6.2793,6.2793,6.2793,6.2793,6.2793,6.2793,6.2793,6.2793,6.2793,6.2774,6.2756,6.2756,6.0523,5.8002,5.8002,6.0285,6.2756,6.2756,6.0395,5.8002,5.8002,5.8002,5.8002,5.8002,5.8002,5.8002,5.8002,5.8002,5.8002,5.8002,5.8002,5.8002,5.8002,5.8002,5.8002,5.8002,5.7997,5.7685,5.689,5.6798,5.6137,5.4528,5.366,5.3196,5.3196,5.3172,5.2457,5.0876,5.155,5.1345,5.0028,4.9731,4.9153,4.8298,4.8295,4.8569,4.9098,4.9092,4.967,5.7923,6.5613,7.1077,6.5083,5.8464,5.14,4.3729,3.8534,3.5055,3.4009,3.3807,3.3807,3.3807,3.4651,3.5752,3.6942,3.8446,0.0,0.0,0.0,0.0,0.0,0.0,0.0,0.0,0.0,0.0,0.0,0.0,0.0,6.77,6.77,6.77,6.77,6.77,6.77,6.77,6.77,6.77,6.77,6.77,6.6519,6.4322,6.327,0.0,0.0,0.0,0.0,0.0,6.2793,6.2793,6.2793,6.2793,6.2793,6.2793,6.2793,6.2793,6.2793,6.2793,6.2793,6.2793,6.2793,6.2793,6.2793,6.2793,6.2095,6.1276,6.1276,6.2004,6.2793,6.2793,6.0413,5.8002,5.8002,5.9685,6.067,5.8474,5.8002,5.8002,5.8002,5.8002,5.8002,5.8002,5.8002,5.8002,5.8002,5.8002,5.8002,5.8002,5.8002,5.7905,5.7648,5.7128,5.6376,5.5304,5.4473,5.4014,5.4014,5.3489,5.2965,5.2457,5.2684,5.2351,5.1382,5.0386,4.9652,4.9194,4.8585,4.8527,4.8973,4.925,4.9844,5.0852,6.0511,6.6396,5.6242,5.2192,0.0,0.0,4.1249,3.6766,3.4308,3.3807,3.3807,3.3807,3.3807,3.4468,3.652,3.7896,4.0245,0.0,0.0,0.0,0.0,0.0,0.0,0.0,0.0,0.0,0.0,0.0,0.0,6.77,6.77,6.77,6.77,6.77,6.77,6.77,6.77,6.77,6.7682,6.6446,6.4781,6.2793,6.2793,0.0,0.0,0.0,0.0,0.0,6.2793,6.2793,6.2793,6.2793,6.2793,6.2793,6.2793,6.2793,6.2793,6.2793,6.2793,6.2793,6.2793,6.1985,6.0982,6.0982,6.0982,6.1233,6.2462,6.193,6.0982,6.0982,5.9501,5.8002,5.8002,5.9538,6.045,5.8419,5.8002,5.8002,5.8002,5.8002,5.8002,5.8002,5.8002,5.8002,5.8002,5.8002,5.8002,5.8002,5.8002,5.8002,5.8002,5.7556,5.706,5.6552,5.5488,5.4711,5.4418,5.3935,5.3526,5.3214,5.3204,5.2952,5.2454,5.1323,5.0672,5.0505,4.9664,4.9445,4.9814,5.0235,5.0768,0.0,5.1673,5.749,4.2447,3.8703,0.0,0.0,0.0,0.0,3.4756,3.3642,3.3807,3.3807,3.3807,3.3807,3.3807,3.656,4.0869,0.0,0.0,0.0,0.0,0.0,0.0,0.0,0.0,0.0,0.0,0.0,0.0,6.77,6.748,6.7352,6.7352,6.7352,6.7352,6.7352,6.759,6.759,6.7308,6.4267,6.2793,6.2793,6.2793,0.0,0.0,0.0,0.0,0.0,6.2793,6.2793,6.2793,6.2793,6.2793,6.2793,6.2793,6.2793,6.2793,6.2793,6.2793,6.2756,6.2536,6.0432,5.8002,5.8002,5.8002,5.8621,6.1618,6.0309,5.8002,5.8002,5.8167,5.8272,5.8052,5.8002,5.8002,5.8002,5.8002,5.8002,5.8002,5.8002,5.8002,5.8002,5.8002,5.8002,5.8002,5.8002,5.8002,5.8002,5.8002,5.8002,5.8002,5.8002,5.8002,5.8002,5.6552,5.5359,5.462,5.4486,5.4113,5.3398,5.3324,5.3287,5.3287,5.2435,5.1969,5.1908,5.1151,5.0966,5.1284,5.176,5.2092,3.3642,0.0,4.3452,3.9654,3.8703,3.8437,0.0,0.0,0.0,0.0,0.0,3.3807,3.3807,3.3807,3.3807,3.3807,3.656,4.008,4.4071,0.0,0.0,0.0,0.0,0.0,0.0,0.0,0.0,0.0,0.0,6.77,6.77,6.5319,6.3955,6.3955,6.3955,6.3955,6.3955,6.6446,6.6446,6.3937,6.3178,6.2793,6.2793,6.2793,6.2793,0.0,0.0,0.0,6.2793,6.2793,6.2793,6.2793,6.2793,6.2793,6.2793,6.2793,6.2793,6.2793,6.2793,6.2793,6.2389,5.9924,5.8621,5.8002,5.8002,5.8002,5.8162,5.8914,5.8584,5.8002,5.8002,5.9826,6.1055,5.8584,5.8002,5.8002,5.8002,5.8002,5.8002,5.8002,5.8002,5.8002,5.8002,5.8002,5.8002,5.8002,5.8002,5.8002,5.8002,5.8002,5.8002,5.8002,5.8002,5.8002,5.8002,5.6891,5.6219,5.6229,5.5273,5.4814,5.5029,5.4436,5.4119,5.4119,5.2716,5.1706,5.1077,5.0894,5.0844,5.0922,5.1663,5.1684,3.0224,3.3301,3.645,3.645,3.645,3.5991,3.4211,0.0,0.0,0.0,0.0,3.1598,3.1598,3.5238,3.7261,3.4284,3.656,0.0,0.0,0.0,0.0,0.0,0.0,0.0,0.0,0.0,0.0,0.0,0.0,6.77,6.77,6.4579,6.2793,6.2793,6.2793,6.2793,6.2793,6.4561,6.4561,6.2793,6.2793,6.2793,6.2793,6.2793,6.2793,0.0,0.0,0.0,6.2793,6.2793,6.2793,6.2793,6.2793,6.2793,6.2793,6.2793,6.2793,6.2793,6.2793,6.2793,6.226,5.9043,5.8002,5.8002,5.8002,5.8002,5.8002,5.8002,5.8002,5.8345,5.9813,6.149,6.1985,5.8767,5.8002,5.8002,5.8002,5.8002,5.8002,5.8002,5.8002,5.8002,5.8002,5.8002,5.8002,5.8002,5.8002,5.8002,5.8002,5.8002,5.8002,5.8002,5.8002,5.8002,5.8002,5.7465,5.7038,5.6811,5.6128,5.5675,5.5603,5.4827,5.4234,5.3862,5.2981,5.2338,5.1898,5.1898,5.1898,5.1924,5.2755,5.2802,2.9002,3.099,3.3418,3.4911,3.5279,3.5022,3.403,0.0,0.0,0.0,0.0,0.0,0.0,3.6872,0.0,0.0,0.0,0.0,0.0,0.0,0.0,0.0,0.0,0.0,0.0,0.0,0.0,0.0,0.0,6.748,6.6978,6.4304,6.2793,6.2793,6.2793,6.2793,6.2793,6.2793,6.2793,6.2793,6.2793,6.2793,6.2793,6.2793,6.2793,6.2793,0.0,0.0,6.2793,6.2793,6.2793,6.2793,6.2793,6.2793,6.2793,6.2793,6.2793,6.2793,6.2793,6.2481,6.1618,5.8896,5.8002,5.8002,5.8002,5.8002,5.8002,5.8002,5.8002,5.8639,6.1367,6.2077,6.138,5.8639,5.8002,5.8002,5.8002,5.8002,5.8002,5.8002,5.8002,5.8002,5.8002,5.8002,5.8002,5.8002,5.8002,5.8002,5.8002,5.8002,5.8002,5.8002,5.8002,5.8002,5.8002,5.8002,5.7703,5.7036,5.6981,5.6614,5.5824,5.501,5.4197,5.3398,5.3269,5.3196,5.3196,5.3196,5.3196,5.3217,5.4024,5.429,2.9002,2.9351,3.1705,3.9959,4.2001,4.0569,3.5058,0.0,0.0,0.0,0.0,0.0,0.0,3.656,3.9992,0.0,0.0,0.0,0.0,0.0,0.0,0.0,0.0,0.0,0.0,0.0,0.0,0.0,0.0,6.6482,6.3698,6.3068,6.2793,6.2793,6.2793,6.2793,6.2793,6.2793,6.2793,6.2793,6.2793,6.2793,6.2793,6.2793,6.2793,6.2793,0.0,6.2793,6.2793,6.2793,6.2793,6.2793,6.2793,6.2793,6.2793,6.2793,6.2793,6.2793,6.2793,6.1019,5.8657,5.8162,5.8002,5.8002,5.8002,5.8002,5.8002,5.8002,5.8002,5.8112,5.8602,5.8749,5.8602,5.8112,5.8002,5.8002,5.8002,5.8002,5.8002,5.8002,5.8002,5.8002,5.8002,5.8002,5.8002,5.8002,5.8002,5.8002,5.8002,5.8002,5.8002,5.8002,5.8002,5.8002,5.8002,5.8002,5.7947,5.7813,5.7813,5.7446,5.6651,5.5836,5.5047,5.4234,5.3544,5.3196,5.3196,5.3196,5.3196,5.3206,5.3687,5.4215,2.9002,3.2824,3.7903,4.2386,4.0863,3.7481,3.4486,0.0,0.0,0.0,0.0,0.0,0.0,0.0,0.0,0.0,0.0,0.0,0.0,0.0,0.0,0.0,0.0,0.0,0.0,0.0,0.0,0.0,0.0,0.0,6.2884,6.2793,6.2793,6.2793,6.2793,6.2793,6.2793,6.1074,6.1074,6.2793,6.2793,6.2793,6.2793,6.2793,6.2793,6.2793,0.0,6.1802,6.0211,6.0211,6.1239,6.2793,6.2793,6.2793,6.2591,6.0854,6.0211,6.0211,6.0211,5.9245,5.8002,5.8002,5.8002,5.8002,5.8002,5.8002,5.8002,5.8002,5.8002,5.8002,5.8002,5.8002,5.8002,5.8002,5.8002,5.8002,5.8002,5.8002,5.8002,5.8002,5.8002,5.8002,5.8002,5.8002,5.8002,5.8002,5.8002,5.8002,5.8002,5.8002,5.8002,5.8002,5.8002,5.8002,5.8002,5.8002,5.8002,5.8002,5.8002,5.7648,5.6835,5.6436,5.5868,5.5065,5.4693,5.4491,5.4491,5.4064,5.3843,5.3859,5.3828,5.4016,2.9002,3.4424,4.029,4.1046,3.8069,3.5147,3.5903,0.0,0.0,0.0,0.0,0.0,0.0,0.0,0.0,0.0,0.0,0.0,0.0,0.0,0.0,0.0,0.0,0.0,0.0,0.0,0.0,0.0,0.0,0.0,6.2793,6.2444,6.2407,6.2793,6.2793,6.2793,6.2793,5.9612,5.9245,6.1673,6.2444,6.2407,6.1673,6.1673,6.1673,6.1673,6.1673,6.0285,5.8002,5.8002,5.9446,6.1673,6.1673,6.1673,6.138,5.8914,5.8002,5.8002,5.8002,5.8002,5.8002,5.8002,5.8002,5.8002,5.8002,5.8002,5.8002,5.8002,5.8002,5.8002,5.8002,5.8002,5.8002,5.8002,5.8002,5.8002,5.8002,5.8002,5.8002,5.8002,5.8002,5.8002,5.8002,5.8002,5.8002,5.8002,5.8002,5.8002,5.8002,5.8002,5.8002,5.8002,5.8002,5.8002,5.8002,5.8002,5.8002,5.8002,5.8002,5.7721,5.711,5.6908,5.6504,5.5891,5.5695,5.5603,5.5603,5.4974,5.468,5.4667,5.4366,5.4382,2.9002,2.9519,3.0766,3.3748,3.6446,0.0,4.2129,4.2808,0.0,0.0,0.0,0.0,0.0,0.0,0.0,0.0,0.0,0.0,0.0,0.0,0.0,0.0,0.0,0.0,0.0,0.0,0.0,0.0,0.0,0.0,6.2793,6.138,6.1257,6.2756,6.2793,6.2793,6.2793,5.9612,5.8112,5.8382,6.1367,6.1239,5.8345,5.8345,5.8345,5.8345,5.8345,5.8217,5.8002,5.8002,5.8149,5.8345,5.8345,5.8345,5.8309,5.8094,5.8002,5.8002,5.8002,5.8002,5.8002,5.8002,5.8002,5.8002,5.8002,5.8002,5.8002,5.8002,5.8002,5.8002,5.8002,5.8002,5.8002,5.8002,5.8002,5.8002,5.8002,5.8002,5.8002,5.8002,5.8002,5.8002,5.8002,5.8002,5.8002,5.8002,5.8002,5.8002,5.8002,5.8002,5.8002,5.8002,5.8002,5.8002,5.8002,5.8002,5.8002,5.8002,5.8002,5.7966,5.7929,5.7202,5.6774,5.6706,5.5983,5.5603,5.5603,5.5548,5.5511,5.5511,5.5482,5.5904,2.9002,2.9002,2.9776,3.2996,3.4724,0.0,0.0,0.0,0.0,0.0,0.0,0.0,0.0,0.0,0.0,0.0,0.0,0.0,0.0,0.0,0.0,0.0,0.0,0.0,0.0,0.0,0.0,0.0,0.0,0.0,0.0,6.127,6.1147,6.2756,6.0854,6.078,6.2774,5.9612,5.9006,6.0982,6.0193,5.9171,5.8002,5.8002,5.8002,5.8002,5.8002,5.8002,5.8002,5.8002,5.8002,5.8002,5.8002,5.8002,5.8002,5.8002,5.8002,5.8002,5.8002,5.8002,5.8002,5.8002,5.8002,5.8002,5.8002,5.8002,5.8002,5.8002,5.8002,5.8002,5.8002,5.8002,5.8002,5.8002,5.8002,5.8002,5.8002,5.8002,5.8002,5.8002,5.8002,5.8002,5.8002,5.9667,6.0309,5.8296,5.8002,5.8002,5.8002,5.8002,5.8002,5.8002,5.8002,5.8002,5.8002,5.8002,5.8002,5.8002,5.8002,5.8002,5.8002,5.7703,5.7556,5.7556,5.725,5.7085,5.7085,5.6583,5.6345,5.6326,5.5836,5.6069,2.7758,2.8235,3.0274,0.0,0.0,0.0,0.0,0.0,0.0,0.0,0.0,0.0,0.0,0.0,0.0,0.0,0.0,0.0,0.0,0.0,0.0,0.0,0.0,0.0,0.0,0.0,0.0,0.0,0.0,0.0,0.0,6.1074,6.1,6.1771,5.9312,5.9061,6.1257,5.9098,5.9116,6.1257,5.9043,5.8002,5.8002,5.8002,5.8002,5.8002,5.8002,5.8002,5.8002,5.8002,5.8002,5.8002,5.8002,5.8002,5.8002,5.8002,5.8002,5.8002,5.8002,5.8002,5.8002,5.8002,5.8002,5.8002,5.8002,5.8002,5.8002,5.8002,5.8002,5.8002,5.8002,5.8002,5.8002,5.8002,5.8786,5.9245,5.8223,5.8002,5.8002,5.8002,5.8002,5.8309,5.9336,6.1349,6.204,5.985,5.9079,5.8565,5.8076,5.8002,5.8002,5.8002,5.8002,5.8002,5.8002,5.8002,5.8002,5.8002,5.8002,5.8002,5.8002,5.8002,5.8002,5.8002,5.8002,5.8002,5.8002,5.744,5.7183,5.7165,5.6607,5.683,2.5107,2.657,3.1338,0.0,0.0,0.0,0.0,0.0,0.0,0.0,0.0,0.0,0.0,0.0,0.0,0.0,0.0,0.0,0.0,0.0,0.0,0.0,0.0,0.0,0.0,0.0,0.0,0.0,0.0,0.0,0.0,6.0597,6.0707,5.9667,5.8565,5.8002,5.8002,5.8002,5.8002,5.8002,5.8002,5.8002,5.8002,5.8002,5.8002,5.8002,5.8002,5.8002,5.8002,5.8002,5.8002,5.8002,5.8002,5.8002,5.8002,5.8002,5.8002,5.8002,5.8002,5.8002,5.8002,5.8002,5.8002,5.8002,5.8002,5.8002,5.8002,5.8002,5.8002,5.8002,5.8002,5.8002,5.8002,5.8002,6.045,6.193,5.8731,5.8052,5.8052,5.8052,5.8052,5.9043,6.2205,6.2774,6.2793,6.2793,6.1422,5.9808,5.8217,5.8002,5.8002,5.8002,5.8002,5.8002,5.8002,5.8002,5.8002,5.8002,5.8002,5.8002,5.8002,5.8002,5.8002,5.8002,5.8002,5.8002,5.8002,5.8002,5.8002,5.8002,5.8002,5.85,2.7228,2.8268,0.0,3.8267,0.0,0.0,0.0,0.0,0.0,0.0,0.0,0.0,0.0,0.0,0.0,0.0,0.0,0.0,0.0,0.0,0.0,0.0,0.0,0.0,0.0,0.0,0.0,0.0,0.0,0.0,0.0,5.8786,5.9844,6.1783,5.9355,5.8002,5.8002,5.8002,5.8002,5.8002,5.8002,5.8002,5.8002,5.8002,5.8002,5.8002,5.8002,5.8002,5.8002,5.8002,5.8002,5.8002,5.8002,5.8002,5.8002,5.8002,5.8002,5.8002,5.8002,5.8002,5.8002,5.8002,5.8002,5.8002,5.8002,5.8002,5.8002,5.8002,5.8002,5.8002,5.8002,5.8002,5.8002,5.8002,6.045,6.2536,6.1588,6.138,6.138,6.138,6.138,6.0964,5.9648,6.1288,6.2793,6.2793,6.0468,5.8529,5.8057,5.8002,5.8002,5.8002,5.8002,5.8002,5.8002,5.8002,5.8002,5.8002,5.8002,5.8002,5.8002,5.8002,5.8002,5.8002,5.8002,5.8002,5.8002,5.8002,5.8002,5.8002,5.8002,5.8324,2.8124,2.9922,0.0,3.5767,4.1116,4.6585,5.1114,0.0,0.0,0.0,0.0,0.0,0.0,0.0,0.0,0.0,0.0,0.0,0.0,0.0,0.0,0.0,0.0,0.0,0.0,0.0,0.0,0.0,0.0,0.0,0.0,5.8002,5.8896,6.0835,5.9006,5.8002,5.8002,5.8002,5.8002,5.8002,5.8002,5.8002,5.8002,5.8002,5.8002,5.8002,5.8002,5.8002,5.8002,5.8002,5.8002,5.8002,5.8002,5.8002,5.8002,5.8002,5.8002,5.8002,5.8002,5.8002,5.8002,5.8002,5.8002,5.8002,5.8002,5.8002,5.8002,5.8002,5.8002,5.8002,5.8002,5.8002,5.8002,5.8002,6.045,6.2793,6.2793,6.1808,6.127,6.2554,6.2793,6.2187,6.023,6.1508,6.2371,6.1092,5.9245,5.8002,5.8002,5.8002,5.8002,5.8002,5.8002,5.8002,5.8002,5.8002,5.8002,5.8002,5.8002,5.8002,5.8002,5.8002,5.8002,5.8002,5.8002,5.8002,5.8002,5.8002,5.8002,5.8002,5.8002,5.8249,2.829,3.1561,0.0,3.4618,4.1988,0.0,5.6644,0.0,5.5306,0.0,0.0,0.0,0.0,0.0,0.0,0.0,0.0,0.0,0.0,0.0,0.0,0.0,0.0,0.0,0.0,0.0,0.0,0.0,0.0,0.0,0.0,5.8002,5.8002,5.8002,5.8002,5.8002,5.8002,5.8002,5.8002,5.8002,5.8002,5.8002,5.8002,5.8002,5.8002,5.8002,5.8002,5.8002,5.8002,5.8002,5.8002,5.8002,5.8002,5.8002,5.8002,5.8002,5.8002,5.8002,5.8002,5.8002,5.8002,5.8002,5.8002,5.8002,5.8002,5.8002,5.8002,5.8002,5.8002,5.8002,5.8002,5.8002,5.8002,5.8002,6.045,6.2793,6.2793,6.0505,5.9226,6.1845,6.2591,6.2793,6.2793,6.2793,6.1765,5.8676,5.818,5.8149,5.8149,5.8057,5.8002,5.8002,5.8002,5.8002,5.8002,5.8002,5.8002,5.8002,5.8002,5.8002,5.8002,5.8002,5.8002,5.8002,5.8002,5.8002,5.8002,5.8002,5.8002,5.8002,5.8002,5.824,2.95,3.3231,0.0,0.0,4.8715,5.6271,5.769,5.7464,5.7354,0.0,0.0,0.0,0.0,0.0,0.0,0.0,0.0,0.0,0.0,0.0,0.0,0.0,0.0,0.0,0.0,0.0,0.0,0.0,0.0,0.0,5.8002,5.8002,5.8002,5.8002,5.8002,5.8002,5.8002,5.8002,5.8002,0.0,5.8002,5.8002,5.8002,5.8002,5.8002,5.8002,5.8002,5.8002,5.8002,5.8002,5.8002,5.8002,5.8002,5.8002,5.8002,5.8002,5.8002,5.8002,5.8002,5.8002,5.8002,5.8002,5.8002,5.8002,5.8002,5.8002,5.8002,5.8002,5.8002,5.8002,5.8002,5.8002,5.8002,5.8002,6.045,6.2793,6.2793,6.226,6.1239,5.9391,6.1074,6.2793,6.2793,6.2793,6.2132,6.0175,5.9538,5.9269,5.9268,5.8522,5.8002,5.8002,5.8002,5.8002,5.8002,5.8002,5.8002,5.8002,5.8002,5.8002,5.8002,5.8002,5.8002,5.8002,5.8002,5.8002,5.8002,5.8002,5.8002,5.8002,5.8002,5.8053,2.9464,0.0,0.0,4.6948,0.0,5.8002,5.8002,5.8002,5.8002,0.0,0.0,0.0,0.0,0.0,0.0,0.0,0.0,0.0,0.0,0.0,0.0,0.0,0.0,0.0,0.0,0.0,0.0,0.0,0.0,5.7336,5.5789,5.5697,5.6418,5.7947,5.651,5.5697,5.5697,5.7226,5.7226,5.5697,5.5697,5.5697,5.5752,5.7299,5.8002,5.8002,5.8002,5.8002,5.8002,5.8002,5.8002,5.8002,5.8002,5.8002,5.8002,5.8002,5.8002,5.8002,5.8002,5.8002,5.8002,5.8002,5.8002,5.8002,5.8002,5.8002,5.8002,5.8002,5.8002,5.8002,5.8002,5.8002,5.8002,5.8002,5.9281,6.0927,6.2462,6.2793,6.1845,5.8621,6.0597,6.2316,6.0762,6.1783,6.1985,5.9612,5.9446,5.941,5.8895,5.8357,5.8002,5.8002,5.8002,5.8002,5.8002,5.8002,5.8002,5.8002,5.8364,5.8578,5.8578,5.8578,5.84,5.8002,5.8002,5.8002,5.8002,5.8002,5.8002,5.8002,5.8002,5.8002,2.9684,0.0,4.5759,5.1709,5.5623,0.0,5.8002,5.8002,5.8002,0.0,0.0,0.0,0.0,0.0,0.0,0.0,0.0,0.0,0.0,0.0,0.0,0.0,0.0,0.0,0.0,0.0,0.0,0.0,0.0,5.6014,5.3343,5.3196,5.4431,5.7097,5.4596,5.3196,5.3196,5.5844,5.5825,5.3196,5.3196,5.3196,5.3287,5.5954,5.7464,5.8002,5.8002,5.8002,5.8002,5.8002,5.8002,5.8002,5.8002,5.8002,5.8002,5.8002,5.8002,5.8002,5.8002,5.8002,5.8002,5.8002,5.8002,5.8002,5.8002,5.8002,5.8002,5.8002,5.8002,5.8002,5.8002,5.8002,5.8002,5.8002,5.8002,5.8731,6.1404,6.2407,6.1845,5.8621,6.0597,6.1949,5.9281,6.1037,6.1893,5.9226,5.9355,5.9385,5.8407,5.8272,5.8204,5.8015,5.8003,5.8053,5.8198,5.8076,5.8057,5.8198,5.8829,5.919,5.919,5.919,5.8884,5.8217,5.807,5.8002,5.8002,5.8002,5.8002,5.8002,5.8002,5.8002,0.0,0.0,4.8558,0.0,5.5623,5.8002,0.0,0.0,5.8002,0.0,0.0,0.0,0.0,0.0,0.0,0.0,0.0,0.0,0.0,0.0,0.0,0.0,0.0,0.0,0.0,0.0,0.0,0.0,5.3838,5.3654,5.3214,5.3196,5.3398,5.382,5.3416,5.3196,5.3196,5.3636,5.3636,5.3196,5.3196,5.3196,5.3209,5.3654,5.5366,5.8002,5.8002,5.8002,5.8002,5.8002,5.8002,5.8002,5.8002,5.8002,5.8002,5.8002,5.8002,5.8002,5.8002,5.8002,5.8002,5.8002,5.8002,5.8002,5.8002,5.8002,5.8002,5.8002,5.8002,5.8002,5.8002,5.8002,5.8002,5.8002,5.8002,5.8112,5.8547,6.0835,6.1845,5.8621,6.0597,6.2664,6.2224,6.2517,6.2646,6.2224,6.1092,6.0065,5.9455,5.9392,5.9029,5.8094,5.8007,5.8277,5.8988,5.8394,5.8309,5.8994,5.9135,5.919,5.919,5.919,5.9153,5.9049,5.8364,5.8002,5.8002,5.8002,5.8002,5.8002,5.8002,5.8002,2.8047,3.6835,4.6397,0.0,5.2902,5.5311,5.5311,0.0,0.0,0.0,0.0,0.0,0.0,0.0,0.0,0.0,0.0,0.0,0.0,0.0,0.0,0.0,0.0,0.0,0.0,0.0,0.0,0.0,5.3196,5.3196,5.3196,5.3196,5.3196,5.3196,5.3196,5.3196,5.3196,5.3196,5.3196,5.3196,5.3196,5.3196,5.3196,5.3196,5.3966,5.5311,5.5311,5.5311,5.5311,5.5311,5.6363,5.8002,5.8002,5.8002,5.8002,5.8002,5.8002,5.8002,5.8002,5.8002,5.8002,5.8002,5.8002,5.8002,5.8002,5.8002,5.8002,5.8002,5.8002,5.8002,5.8002,5.8002,5.8002,5.8002,5.8002,5.8002,5.8002,6.0523,6.2114,5.9795,6.1221,6.2609,6.2004,6.2407,6.2334,6.0988,6.0945,6.0664,5.9527,5.8973,5.8876,5.9306,5.9344,5.9485,5.9838,5.9551,5.9294,5.9209,6.0046,6.034,5.9893,6.0303,6.034,5.9875,5.8639,5.8002,5.8002,5.8002,5.8002,5.8002,5.8002,5.8002,0.0,0.0,4.4075,4.6489,4.9549,5.2168,0.0,0.0,0.0,0.0,0.0,0.0,0.0,0.0,0.0,0.0,0.0,0.0,0.0,0.0,0.0,0.0,0.0,0.0,0.0,0.0,0.0,0.0,5.3196,5.3196,5.3196,5.2407,5.2333,5.3177,5.2388,5.1948,5.1948,5.2774,5.3196,5.3196,5.3196,5.3196,5.3196,5.3196,5.3196,5.3196,5.3196,5.3196,5.3196,5.3196,5.5091,5.8002,5.8002,5.8002,5.8002,5.8002,5.8002,5.8002,5.8002,5.8002,5.8002,5.8002,5.8002,5.8002,5.8002,5.8002,5.8002,5.8002,5.8002,5.8002,5.8002,5.8002,5.8002,5.8002,5.8002,5.8223,5.9043,6.1111,6.2444,6.1233,6.1985,6.2554,6.1734,6.226,6.2114,6.0114,6.0652,6.086,5.9655,5.8858,5.892,6.0248,6.0768,6.092,6.0713,6.0523,6.023,5.982,6.0933,6.1325,6.0731,6.1288,6.1214,6.0413,5.9024,5.8198,5.8002,5.8002,5.8002,5.8002,5.8002,5.8002,0.0,3.5969,0.0,4.3708,4.6177,0.0,0.0,0.0,0.0,0.0,0.0,0.0,0.0,0.0,0.0,0.0,0.0,0.0,0.0,0.0,0.0,0.0,0.0,0.0,0.0,0.0,0.0,0.0,5.3196,5.3196,5.3196,5.0241,4.9985,5.3104,5.0186,4.8558,4.8558,5.1636,5.3196,5.3196,5.3196,5.3196,5.3196,5.3196,5.3196,5.3196,5.3196,5.3196,5.3196,5.3196,5.5091,5.8002,5.8002,5.8002,5.8002,5.8002,5.8002,5.8002,5.8002,5.8002,5.8002,5.8002,5.8002,5.8002,5.8002,5.8002,5.8002,5.8002,5.8002,5.8002,5.8002,5.8002,5.8002,5.8002,5.8002,5.8841,6.1893,6.2683,6.2774,6.2683,6.2738,6.2774,6.2738,6.2756,6.2499,6.1618,6.0896,6.0432,6.034,5.9858,5.9748,6.0334,6.1765,6.2377,6.1606,6.0841,6.0713,6.1435,6.1545,6.1582,6.1545,6.1582,6.1214,6.0413,5.9563,5.8756,5.8002,5.8002,5.8002,5.8002,5.8002,5.8002,0.0,0.0,0.0,3.6765,4.0502,4.4259,4.6471,4.8576,0.0,0.0,0.0,0.0,0.0,0.0,0.0,0.0,0.0,0.0,0.0,0.0,0.0,0.0,0.0,0.0,0.0,0.0,0.0,0.0,0.0,5.2278,5.0168,4.8943,4.8847,5.0021,4.8902,4.8301,4.8301,4.9471,5.0063,5.0063,5.0063,5.1159,5.3196,5.3196,5.3196,5.3196,5.3196,5.3196,5.3196,5.3196,5.3875,5.5128,5.7189,5.8002,5.8002,5.8002,5.8002,5.8002,5.8002,5.8002,5.8002,5.8002,5.8002,5.8002,5.8002,5.8002,5.8002,5.8002,5.8002,5.8002,5.8002,5.8002,5.8002,5.8002,5.8002,5.8877,6.2114,6.2793,6.2793,6.2793,6.2793,6.2793,6.2793,6.2377,6.1759,6.0951,6.1025,6.097,6.0468,6.1123,6.1722,6.193,6.2463,6.2689,6.2395,6.212,6.1845,6.1618,6.2089,6.2144,6.1618,6.2108,6.1998,6.1196,6.0896,5.9832,5.8002,5.8002,5.8002,5.8002,5.8002,5.8002,2.6387,0.0,0.0,0.0,0.0,3.8557,4.1262,0.0,0.0,0.0,0.0,0.0,0.0,0.0,0.0,0.0,0.0,0.0,0.0,0.0,0.0,0.0,0.0,0.0,0.0,0.0,0.0,0.0,0.0,0.0,4.8411,4.8301,4.8301,4.8301,4.8301,4.8301,4.8301,4.8301,4.8301,4.8301,4.8301,4.9434,5.1563,5.1563,5.2168,5.3196,5.3196,5.3196,5.3196,5.3196,5.3196,5.3416,5.555,5.7042,5.8002,5.8002,5.8002,5.8002,5.8002,5.8002,5.8002,5.8002,5.8002,5.8002,5.8002,5.8002,5.8002,5.8002,5.8002,5.8002,5.8002,5.8002,5.8002,5.8002,5.8002,5.8877,6.2114,6.2793,6.2793,6.2793,6.2793,6.2793,6.2793,6.2126,6.1416,6.0878,6.1025,6.1098,6.0841,6.1655,6.2395,6.2756,6.2793,6.2793,6.2793,6.2793,6.2579,6.2034,6.2499,6.2554,6.2016,6.2524,6.2413,6.1618,6.16,6.0529,5.8394,5.8394,5.8253,5.8002,5.8002,5.8074,0.0,0.0,0.0,0.0,0.0,0.0,3.7492,0.0,4.3308,0.0,0.0,0.0,0.0,0.0,0.0,0.0,0.0,0.0,0.0,0.0,0.0,0.0,0.0,0.0,0.0,0.0,0.0,0.0,5.0095,4.8301,4.8301,4.8205,4.8209,4.8301,4.8205,4.8154,4.8154,4.8154,4.8209,4.8301,4.8301,4.8301,4.8301,4.8301,5.0095,5.3196,5.3196,5.3196,5.3196,5.3196,5.3196,5.3196,5.3196,5.5165,5.7997,5.7892,5.7929,5.8002,5.8002,5.8002,5.8002,5.8002,5.8002,5.8002,5.8002,5.8002,5.8002,5.8002,5.8002,5.8002,5.8002,5.8002,5.8002,5.8002,5.8002,5.8859,6.1985,6.2738,6.2793,6.2793,6.2793,6.2793,6.2793,6.2101,6.1563,6.16,6.0915,6.0688,6.1508,6.1392,6.1655,6.2695,6.2793,6.2793,6.2793,6.2793,6.2793,6.2793,6.2793,6.2793,6.2793,6.2793,6.2432,6.1655,6.1637,6.086,5.9264,5.9227,5.8792,5.8002,5.802,5.8277,2.9002,0.0,0.0,0.0,0.0,0.0,3.5445,3.6905,3.8807,0.0,0.0,0.0,0.0,0.0,0.0,0.0,0.0,0.0,0.0,0.0,0.0,0.0,0.0,0.0,0.0,0.0,0.0,0.0,4.881,4.8301,4.8301,4.6085,4.5883,4.8228,4.6035,4.4823,4.4823,4.4823,4.5993,4.8301,4.8301,4.8301,4.8301,4.8301,5.0095,5.3196,5.3196,5.3196,5.3196,5.3196,5.3196,5.3196,5.3196,5.5165,5.7721,5.5385,5.5996,5.8002,5.8002,5.8002,5.8002,5.8002,5.8002,5.8002,5.8002,5.8002,5.8002,5.8002,5.8002,5.8002,5.8002,5.8002,5.8002,5.8002,5.8002,5.8235,5.9134,6.1166,6.2793,6.2793,6.2793,6.2793,6.2793,6.1643,6.0933,6.1508,6.0915,6.0688,6.1508,6.204,6.2474,6.2774,6.2793,6.2793,6.2793,6.2793,6.2793,6.2793,6.2793,6.2793,6.2793,6.2793,6.2701,6.2469,6.2469,6.1955,6.0933,5.9765,5.8792,5.8008,5.8351,5.876,0.0,0.0,0.0,0.0,0.0,0.0,3.4054,3.4387,3.5022,0.0,0.0,0.0,0.0,0.0,0.0,0.0,0.0,0.0,0.0,0.0,0.0,0.0,0.0,0.0,0.0,4.8301,4.8026,4.7352,4.7916,4.7714,4.6379,4.4516,4.4369,4.6232,4.4475,4.3506,4.3506,4.3506,4.4442,4.6305,4.7659,4.8301,4.8301,4.8301,4.9347,5.1232,5.2609,5.2425,5.1269,5.2627,5.3196,5.3196,5.3196,5.4352,5.577,5.3893,5.5238,5.7819,5.6449,5.6877,5.8002,5.8002,5.8002,5.8002,5.8002,5.8002,5.8002,5.8002,5.8002,5.8002,5.8002,5.8002,5.8002,5.8002,5.8002,5.8002,5.8002,5.9991,6.1857,6.2095,6.2499,6.2793,6.2793,6.1734,6.1172,6.1979,6.1429,6.119,6.1998,6.2505,6.2793,6.2793,6.2793,6.2793,6.2793,6.2793,6.2793,6.2793,6.2793,6.2793,6.2793,6.2793,6.2793,6.2793,6.2793,6.2395,6.16,6.0321,5.9226,5.831,5.8565,5.9056,0.0,0.0,0.0,0.0,0.0,0.0,3.2852,3.2919,3.2311,3.1357,0.0,0.0,0.0,0.0,0.0,0.0,0.0,0.0,0.0,0.0,0.0,0.0,0.0,0.0,4.8228,4.8118,4.753,4.6108,4.709,4.6526,4.3653,4.3506,4.3506,4.3506,4.3506,4.3506,4.3506,4.3506,4.3506,4.3547,4.6764,4.8301,4.8301,4.8301,4.8301,4.8466,5.1379,5.0994,4.8558,5.1856,5.3196,5.3196,5.3196,5.3196,5.3196,5.3196,5.5018,5.706,5.4187,5.5311,5.8002,5.8002,5.8002,5.8002,5.8002,5.8002,5.8002,5.8002,5.8002,5.8002,5.8002,5.8002,5.8002,5.8002,5.8002,5.8002,5.8002,5.9116,6.034,6.1055,6.2065,6.2793,6.2793,6.2126,6.1869,6.2683,6.2126,6.1887,6.2701,6.2793,6.2793,6.2793,6.2793,6.2793,6.2793,6.2793,6.2793,6.2793,6.2793,6.2793,6.2793,6.2793,6.2793,6.2793,6.2793,6.2432,6.1691,6.0778,5.9815,5.8825,5.8857,5.9297,0.0,0.0,0.0,0.0,0.0,0.0,3.0421,3.132,3.2974,0.0,0.0,0.0,0.0,0.0,0.0,0.0,0.0,0.0,0.0,0.0,0.0,0.0,0.0,0.0,4.7127,4.7017,4.6874,4.6562,4.5245,4.4167,4.3529,4.3506,4.3506,4.3506,4.3506,4.3506,4.3506,4.3506,4.3506,4.3547,4.6764,4.8301,4.8301,4.8301,4.8301,4.8338,4.8975,4.8884,4.8558,5.1856,5.3196,5.3196,5.3196,5.3196,5.3196,5.3196,5.3599,5.404,5.3416,5.5311,5.8002,5.8002,5.8002,5.8002,5.8002,5.8002,5.8002,5.8002,5.8002,5.8002,5.8002,5.8002,5.8002,5.8002,5.8002,5.8002,5.8002,5.8259,5.9006,6.0835,6.2065,6.2793,6.2793,6.2126,6.1869,6.2683,6.2126,6.1887,6.2701,6.2793,6.2793,6.2793,6.2793,6.2793,6.2793,6.2793,6.2793,6.2793,6.2793,6.2793,6.2793,6.2793,6.2793,6.2793,6.2793,6.2621,6.2249,6.073,5.9881,5.9677,5.9775,5.992,0.0,0.0,0.0,3.703,0.0,0.0,0.0,3.0803,3.1078,3.206,3.0512,0.0,0.0,0.0,0.0,0.0,0.0,0.0,0.0,0.0,0.0,0.0,0.0,0.0,4.6287,4.6067,4.5902,4.5902,4.4406,4.3506,4.3506,4.3506,4.3506,4.3506,4.3506,4.3506,4.3506,4.3506,4.3506,4.3524,4.5135,4.6746,4.8301,4.8301,4.8301,4.8301,4.8301,4.8301,4.8425,5.0081,5.1728,5.3196,5.3196,5.3196,5.3196,5.3196,5.3196,5.3434,5.5036,5.6657,5.8002,5.8002,5.8002,5.8002,5.8002,5.8002,5.8002,5.8002,5.8002,5.8002,5.8002,5.8002,5.8002,5.8002,5.8002,5.8002,5.8002,5.8639,5.952,6.0597,6.1875,6.2793,6.2793,6.2126,6.1869,6.2683,6.2126,6.1887,6.2701,6.2793,6.2793,6.2793,6.2793,6.2793,6.2793,6.2793,6.2793,6.2793,6.2793,6.2793,6.2793,6.2793,6.2793,6.2793,6.3056,6.3137,6.3003,6.1821,6.1032,6.0643,6.0722,6.0634,0.0,0.0,0.0,0.0,0.0,3.2125,0.0,0.0,0.0,2.9131,0.0,0.0,0.0,0.0,0.0,0.0,0.0,0.0,0.0,0.0,0.0,0.0,0.0,0.0,0.0,4.4126,4.3993,4.4309,4.3373,4.3015,4.3474,4.3506,4.3506,4.3506,4.3506,4.3506,4.3506,4.3506,4.3506,4.3506,4.3506,4.486,4.7388,4.7388,4.7714,4.8301,4.8301,4.8301,4.8301,4.8301,5.0241,5.3196,5.3196,5.3196,5.3196,5.3196,5.3196,5.3563,5.618,5.7079,5.7171,5.7795,5.8002,5.8002,5.8002,5.8002,5.8002,5.8002,5.8002,5.8002,5.8002,5.8002,5.8002,5.8002,5.8002,5.8002,5.8002,5.9024,5.9936,5.9936,6.1239,6.2444,6.2756,6.2083,6.1667,6.2114,6.1722,6.1594,6.2242,6.2462,6.2579,6.2579,6.2701,6.2793,6.2793,6.2793,6.2793,6.2793,6.2793,6.2793,6.2793,6.2793,6.2855,6.2941,6.3374,6.3691,6.3899,6.3029,6.2266,6.1624,6.1399,6.1206,0.0,0.0,0.0,0.0,3.6226,0.0,0.0,0.0,3.2445,2.9592,0.0,0.0,0.0,0.0,0.0,0.0,0.0,0.0,0.0,0.0,0.0,0.0,0.0,0.0,0.0,3.9456,4.0025,4.1448,4.0781,4.123,4.3396,4.3506,4.3506,4.3506,4.3506,4.3506,4.3506,4.3506,4.3506,4.3506,4.3506,4.369,4.4057,4.4057,4.559,4.8301,4.8301,4.8301,4.8301,4.8301,5.0241,5.3196,5.3196,5.3196,5.3196,5.3196,5.3196,5.3251,5.3618,5.3746,5.4223,5.706,5.8002,5.8002,5.8002,5.8002,5.8002,5.8002,5.8002,5.8002,5.8002,5.8002,5.8002,5.8002,5.8002,5.8002,5.8002,5.8149,5.8272,5.8272,5.9575,6.1129,6.2554,6.1936,6.0945,6.0089,6.0285,6.056,6.0652,6.13,6.1747,6.1747,6.2377,6.2793,6.2793,6.2793,6.2793,6.2793,6.2793,6.2793,6.2793,6.2793,6.3026,6.3509,6.3563,6.4039,6.4939,6.3359,6.2559,6.2437,6.1371,6.1251,0.0,0.0,0.0,0.0,0.0,0.0,3.3455,0.0,3.0623,0.0,0.0,0.0,0.0,0.0,0.0,0.0,3.4086,0.0,0.0,0.0,0.0,0.0,0.0,0.0,0.0,0.0,0.0,0.0,3.8322,3.9845,4.134,4.229,4.3024,4.3488,4.3506,4.3506,4.3506,4.3506,4.3506,4.3506,4.3506,4.3506,4.3506,4.3506,4.5264,4.8301,4.8301,4.8301,4.8301,4.8301,4.9104,5.0553,5.2462,5.3196,5.3196,5.3196,5.3196,5.3196,5.3196,5.4431,5.6211,5.7562,5.8002,5.8002,5.8002,5.8002,5.8002,5.8002,5.8002,5.8002,5.8002,5.8002,5.8002,5.8002,5.8002,5.8167,5.8786,5.8443,5.818,5.8804,5.8969,5.9428,6.0725,6.1092,6.0835,5.9758,5.9661,5.9875,6.034,6.0688,6.0896,6.0896,6.1612,6.2108,6.2108,6.2536,6.2793,6.2793,6.2793,6.2793,6.2793,6.2793,6.3044,6.3585,6.3918,6.4412,6.5107,6.4201,6.3769,6.3715,6.2237,6.1749,4.3231,0.0,0.0,0.0,0.0,0.0,0.0,0.0,0.0,0.0,0.0,0.0,0.0,0.0,0.0,0.0,0.0,3.2801,0.0,0.0,0.0,0.0,0.0,0.0,0.0,0.0,0.0,3.3315,3.5033,3.6978,3.9123,4.0767,4.2107,4.3139,4.3396,4.3506,4.3506,4.3506,4.3506,4.3506,4.3506,4.3506,4.3506,4.3506,4.5264,4.8301,4.8301,4.8301,4.8301,4.8301,4.8301,4.8535,5.0925,5.2407,5.3196,5.3196,5.3196,5.3196,5.3196,5.5311,5.8002,5.8002,5.8002,5.8002,5.8002,5.8002,5.8002,5.8002,5.8002,5.8002,5.8002,5.8002,5.8002,5.8002,5.8002,5.8217,5.8988,5.8547,5.8235,5.9006,5.8529,5.8382,5.9612,6.0101,6.0064,5.9281,5.9,5.9159,5.9973,6.0064,6.0248,6.0676,6.1251,6.1692,6.1906,6.2469,6.2793,6.2793,6.2941,6.2941,6.2817,6.3086,6.3374,6.3677,6.428,6.4831,6.5313,6.4833,6.4606,6.457,6.3111,6.2422,0.0,0.0,0.0,3.9551,0.0,0.0,0.0,0.0,3.0785,0.0,0.0,0.0,0.0,0.0,0.0,0.0,0.0,0.0,0.0,0.0,0.0,0.0,0.0,0.0,0.0,0.0,3.0017,3.2103,3.0424,3.1727,3.7272,3.9104,4.0693,4.2286,4.3084,4.3506,4.3506,4.3506,4.3506,4.3506,4.3506,4.3506,4.3506,4.3506,4.5264,4.8301,4.8301,4.8301,4.8301,4.8301,4.8301,4.832,4.8411,5.0407,5.3196,5.3196,5.3196,5.3196,5.3196,5.5311,5.8002,5.8002,5.8002,5.8002,5.8002,5.8002,5.8002,5.8002,5.8002,5.8002,5.8002,5.8002,5.8002,5.8002,5.8002,5.8002,5.8033,5.8015,5.8002,5.8033,5.8015,5.851,6.0101,5.9116,5.8094,5.8057,5.8033,5.8321,5.9135,5.9245,5.9838,6.1398,6.1582,6.1924,6.2701,6.2793,6.2793,6.2793,6.3284,6.3347,6.2818,6.379,6.4201,6.39,6.467,6.5343,6.5865,6.5029,6.4606,6.4586,6.3679,6.3256,0.0,0.0,4.3231,4.2148,0.0,0.0,0.0,0.0,0.0,0.0,0.0,0.0,0.0,0.0,0.0,0.0,0.0,0.0,0.0,0.0,0.0,0.0,0.0,0.0,0.0,0.0,0.0,3.0112,3.0895,3.2461,3.4915,3.8127,4.0396,4.147,4.2804,4.3506,4.3506,4.3506,4.3506,4.3506,4.3506,4.3506,4.3506,4.3506,4.4093,4.5117,4.5117,4.6324,4.8301,4.8301,4.8301,4.8301,4.8301,4.8975,5.0223,5.2407,5.3196,5.3196,5.3196,5.5311,5.8002,5.8002,5.8002,5.8002,5.8002,5.8002,5.8002,5.8002,5.8002,5.8002,5.8002,5.8002,5.8002,5.8002,5.8002,5.8002,5.8002,5.8002,5.8002,5.8002,5.8565,5.9184,5.9545,5.9606,5.9587,5.9587,5.8676,5.829,5.9098,5.919,5.941,5.9948,6.0817,6.1441,6.1716,6.2389,6.2793,6.2793,6.2765,6.2914,6.3304,6.3085,6.3444,6.4541,6.4829,6.5272,6.59,6.5593,6.5458,6.5458,6.5166,6.4702,4.2525,4.3065,0.0,4.3506,4.1947,0.0,3.6291,0.0,0.0,0.0,0.0,0.0,0.0,0.0,0.0,0.0,0.0,0.0,0.0,2.9598,0.0,0.0,0.0,0.0,0.0,0.0,3.0115,2.9076,3.0436,3.1925,0.0,0.0,3.9239,4.0626,4.2511,4.3506,4.3506,4.3506,4.3506,4.3506,4.3506,4.3506,4.3506,4.3506,4.3506,4.3565,4.4718,4.6379,4.8301,4.8301,4.8301,4.8301,4.8301,4.8301,4.87,5.1985,5.3196,5.3361,5.4504,5.6266,5.8002,5.8002,5.8002,5.8002,5.8002,5.8002,5.8002,5.8002,5.8002,5.8002,5.8002,5.8002,5.8002,5.8002,5.8002,5.8002,5.8002,5.8002,5.8002,5.8002,5.8565,5.9226,5.982,5.9948,6.0064,6.0358,5.952,5.9134,5.9954,5.9802,5.9857,6.0419,6.1,6.1331,6.1331,6.19,6.2347,6.2631,6.2896,6.3302,6.3855,6.3644,6.3903,6.4702,6.5073,6.547,6.59,6.59,6.59,6.59,6.59,6.5593]},{"header":{"parameterUnit":"m.s-1","parameterCategory":1,"la1":30.6,"la2":29.2853,"lo1":-89.7004,"lo2":-87.6739,"dy":0.0162,"dx":0.0183,"nx":112,"ny":82,"refTime":"2023-11-21T06:00:00:Z","depth":0,"parameterNumber":3,"parameterNumberName":"V-component_of_WINDS"},"data":[0.0,0.0,0.0,0.0,0.0,0.0,0.0,0.0,0.0,0.0,0.0,0.0,0.0,0.0,0.0,0.0,0.0,0.0,0.0,0.0,0.0,0.0,0.0,0.0,0.0,0.0,0.0,0.0,0.0,0.0,0.0,0.0,0.0,0.0,0.0,0.0,0.0,0.0,0.0,0.0,0.0,0.0,0.0,0.0,0.0,0.0,0.0,0.0,0.0,0.0,0.0,0.0,0.0,0.0,0.0,0.0,0.0,0.0,0.0,0.0,0.0,0.0,0.0,0.0,0.0,0.0,0.0,0.0,0.0,0.0,0.0,0.0,0.0,0.0,0.0,0.0,0.0,0.0,0.0,0.0,0.0,0.0,0.0,0.0,0.0,0.0,0.0,0.0,0.0,0.0,0.0,0.8505,0.9587,0.9815,0.9496,0.9666,0.9194,0.7756,0.0,0.0,0.0,0.0,0.0,0.0,0.0,0.0,0.0,0.0,0.0,0.0,0.0,0.0,0.0,0.0,0.0,0.0,0.0,0.0,0.0,0.0,0.0,0.0,0.0,0.0,0.0,0.0,0.0,0.0,0.0,0.0,0.0,0.0,0.0,0.0,0.0,0.0,0.0,0.0,0.0,0.0,0.0,0.0,0.0,0.0,0.0,0.0,0.0,0.0,0.0,0.0,0.0,0.0,0.0,0.0,0.0,0.0,0.0,0.0,0.0,0.0,0.0,0.0,0.0,0.0,0.0,0.0,0.0,0.0,0.0,0.0,0.0,0.0,0.0,0.0,0.0,0.0,0.0,0.0,0.0,0.0,0.0,0.0,0.0,0.0,0.0,0.0,0.0,0.0,0.0,0.0,0.0,0.0,0.0,0.0,0.0,0.0,0.0,0.0,0.0,0.0,0.0,0.0,0.6593,0.2103,0.698,1.0344,0.9793,0.9774,0.9268,0.802,0.0,0.0,0.0,0.0,0.0,0.0,0.0,0.0,0.0,0.0,0.0,0.0,0.0,0.0,0.0,0.0,0.0,0.0,0.0,0.0,0.0,0.0,0.0,0.0,0.0,0.0,0.0,0.0,0.0,0.0,0.0,0.0,0.0,0.0,0.0,0.0,0.0,0.0,0.0,0.0,0.0,0.0,0.0,0.0,0.0,0.0,0.0,0.0,0.0,0.0,0.0,0.0,0.0,0.0,0.0,0.0,0.0,0.0,0.0,0.0,0.0,0.0,0.0,0.0,0.0,0.0,0.0,0.0,0.0,0.0,0.0,0.0,0.0,0.0,0.0,0.0,0.0,0.0,0.0,0.0,0.0,0.0,0.0,0.0,0.0,0.0,0.0,0.0,0.0,0.0,0.0,0.0,0.0,0.0,0.0,0.0,0.0,0.0,0.0,0.0,0.0,0.0,0.0,0.2624,0.4702,0.5251,0.8253,1.0223,1.0273,0.9996,0.9291,0.8075,0.669,0.0,0.0,0.0,0.0,0.0,0.0,0.0,0.0,0.0,0.0,0.0,0.0,0.0,0.0,0.0,0.0,0.0,0.0,0.0,0.0,0.0,0.0,0.0,0.0,0.0,0.0,0.0,0.0,0.0,0.0,0.0,0.0,0.0,0.0,0.0,0.0,0.0,0.0,0.0,0.0,0.0,0.0,0.0,0.0,0.0,0.0,0.0,0.0,0.0,0.0,0.0,0.0,0.0,0.0,0.0,0.0,0.0,0.0,0.0,0.0,0.0,0.0,0.0,0.0,0.0,0.0,0.0,0.0,0.0,0.0,0.0,0.0,0.0,0.0,0.0,0.0,0.0,0.0,0.0,0.0,0.0,0.0,0.0,0.0,0.0,0.0,0.0,0.0,0.0,0.0,0.0,0.0,0.0,0.0,0.0,0.0,0.0,0.0,0.0,0.0,0.0,0.0,0.1446,0.4082,0.925,0.9798,0.9979,1.0445,0.9929,0.9129,0.8069,0.5932,0.0,0.0,0.0,0.0,0.0,0.0,0.0,0.0,0.0,0.0,0.0,0.0,0.0,0.0,0.0,0.0,0.0,0.0,0.0,0.0,0.0,0.0,0.0,0.0,0.0,0.0,0.0,0.0,0.0,0.0,0.0,0.0,0.0,0.0,0.0,0.0,0.0,0.0,0.0,0.0,0.0,0.0,0.0,0.0,0.0,0.0,0.0,0.0,0.0,0.0,0.0,0.0,0.0,0.0,0.0,0.0,0.0,0.0,0.0,0.0,0.0,0.0,0.0,0.0,0.0,0.0,0.0,0.0,0.0,0.0,0.0,0.0,0.0,0.0,0.0,0.0,0.0,0.0,0.0,0.0,0.0,0.0,0.0,0.0,0.0,0.0,0.0,0.0,0.0,0.0,0.0,0.0,0.0,0.0,0.0,0.0,0.0,0.0,0.0,0.0,0.0,0.0,0.5694,0.8667,0.969,0.9802,0.9814,0.9856,0.9316,0.8691,0.8037,0.6323,0.0,0.0,0.0,0.0,0.0,0.0,0.0,0.0,0.0,0.0,0.0,0.0,0.0,0.0,0.0,0.0,0.0,0.0,0.0,0.0,0.0,0.0,0.0,0.0,0.0,0.0,0.0,0.0,0.0,0.0,0.0,0.0,0.0,0.0,0.0,0.0,0.0,0.0,0.0,0.0,0.0,0.0,0.0,0.0,0.0,0.0,0.0,0.0,0.0,0.0,0.0,0.0,0.0,0.0,0.0,0.0,0.0,0.0,0.0,0.0,0.0,0.0,0.0,0.0,0.0,0.0,0.0,0.0,0.0,0.0,0.0,0.0,0.0,0.0,0.0,0.0,0.0,0.0,0.0,0.0,0.0,0.0,0.0,0.0,0.0,0.0,0.0,0.0,0.0,0.0,0.0,0.0,0.0,0.0,0.0,0.0,0.0,0.0,0.0,0.0,0.0,0.0,0.7177,0.913,0.0,0.9466,0.9238,0.9241,0.8684,0.7782,0.6465,0.0,0.0,0.0,0.0,0.0,0.0,0.0,0.0,0.0,0.0,0.0,0.0,0.0,0.0,0.0,0.0,0.0,0.0,0.0,0.0,0.0,0.0,0.0,0.0,0.0,0.0,0.0,0.0,0.0,0.0,0.0,0.0,0.0,0.0,0.0,0.0,0.0,0.0,0.0,0.0,0.0,0.0,0.0,0.0,0.0,0.0,0.0,0.0,0.0,0.0,0.0,0.0,0.0,0.0,0.0,0.0,0.0,0.0,0.0,0.0,0.0,0.0,0.0,0.0,0.0,0.0,0.0,0.0,0.0,0.0,0.0,0.0,0.0,0.0,0.0,0.0,0.0,0.0,0.0,0.0,0.0,0.0,0.0,0.0,0.0,0.0,0.0,0.0,0.0,0.0,0.0,0.0,0.0,0.0,0.0,0.0,0.0,0.0,0.0,0.0,0.0,0.0,0.6183,0.766,0.8848,0.0,0.9152,0.8899,0.8896,0.8341,0.7404,0.6031,0.0,0.0,0.0,0.0,0.0,0.0,0.0,0.0,0.0,0.0,0.0,0.0,0.0,0.0,0.0,0.0,0.0,0.0,0.0,0.0,0.0,0.0,0.0,0.0,0.0,0.0,0.0,0.0,0.0,0.0,0.0,0.0,0.0,0.0,0.0,0.0,0.0,0.0,0.0,0.0,0.0,0.0,0.0,0.0,0.0,0.0,0.0,0.0,0.0,0.0,0.0,0.0,0.0,0.0,0.0,0.0,0.0,0.0,0.0,0.0,0.0,0.0,0.0,0.0,0.0,0.0,0.0,0.0,0.0,0.0,0.0,0.0,0.0,0.0,0.0,0.0,0.0,0.0,0.0,0.0,0.0,0.0,0.0,0.0,0.0,0.0,0.0,0.0,0.0,0.0,0.0,0.0,0.0,0.0,0.0,0.0,0.0,0.0,0.0,0.0,0.0,0.0,0.6275,0.73,0.8246,0.8839,0.8893,0.8889,0.8885,0.8339,0.7737,0.0,0.0,0.0,0.0,0.0,0.0,0.0,0.0,0.0,0.0,0.0,0.0,0.0,0.0,0.0,0.0,0.0,0.0,0.0,0.0,0.0,0.0,0.0,0.0,0.0,0.0,0.0,0.0,0.0,0.0,0.0,0.0,0.0,0.0,0.0,0.0,0.0,0.0,0.0,0.0,0.0,0.0,0.0,0.0,0.0,0.0,0.0,0.0,0.0,0.0,0.0,0.0,0.0,0.0,0.0,0.0,0.0,0.0,0.0,0.0,0.0,0.0,0.0,0.0,0.0,0.0,0.0,0.0,0.0,0.0,0.0,0.0,0.0,0.0,0.0,0.0,0.0,0.0,0.0,0.0,0.0,0.0,0.0,0.0,0.0,0.0,0.0,0.0,0.0,0.0,0.0,0.0,0.0,0.0,0.0,0.0,0.0,0.0,0.0,0.0,0.0,0.0,0.0,0.627,0.7667,0.8703,0.8883,0.8766,0.857,0.8289,0.7842,0.7177,0.6244,0.0,0.0,0.0,0.0,0.0,0.0,0.0,0.0,0.0,0.0,0.0,0.0,0.0,0.0,0.0,0.0,0.0,0.0,0.0,0.0,0.0,0.0,0.0,0.0,0.0,0.0,0.0,0.0,0.0,0.0,0.0,0.0,0.0,0.0,0.0,0.0,0.0,0.0,0.0,0.0,0.0,0.0,0.0,0.0,0.0,0.0,0.0,0.0,0.0,0.0,0.0,0.0,0.0,0.0,0.0,0.0,0.0,0.0,0.0,0.0,0.0,0.0,0.0,0.0,0.0,0.0,0.0,0.0,0.0,0.0,0.0,0.0,0.0,0.0,0.0,0.0,0.0,0.0,0.0,0.0,0.0,0.0,0.0,0.0,0.0,0.0,0.0,0.0,0.0,0.0,0.0,0.0,0.0,0.0,0.0,0.0,0.0,0.0,0.0,0.0,0.0,0.0,0.6398,0.7672,0.8588,0.8722,0.851,0.8296,0.8127,0.7604,0.6857,0.5861,0.0,0.0,0.0,0.0,0.0,0.0,0.0,0.0,0.0,0.0,0.0,0.0,0.0,0.0,0.0,0.0,0.0,0.0,0.0,0.0,0.0,0.0,0.0,0.0,0.0,0.0,0.0,0.0,0.0,0.0,0.0,0.0,0.0,0.0,0.0,0.0,0.0,0.0,0.0,0.0,0.0,0.0,0.0,0.0,0.0,0.0,0.0,0.0,0.0,0.0,0.0,0.0,0.0,0.0,0.0,0.0,0.0,0.0,0.0,0.0,0.0,0.0,0.0,0.0,0.0,0.0,0.0,0.0,0.0,0.0,0.0,0.0,0.0,0.0,0.0,0.0,0.0,0.0,0.0,0.0,0.0,0.0,0.0,0.0,0.0,0.0,0.0,0.0,0.0,0.0,0.0,0.0,0.0,0.0,0.0,0.0,0.0,0.0,0.0,0.0,0.0,0.0,0.6627,0.748,0.8121,0.8448,0.8215,0.8101,0.8283,0.7565,0.6754,0.5959,0.0,0.0,0.0,0.0,0.0,0.0,0.0,0.0,0.0,0.0,0.0,0.0,0.0,0.0,0.0,0.0,0.0,0.0,0.0,0.0,0.0,0.0,0.0,0.0,0.0,0.0,0.0,0.0,0.0,0.0,0.0,0.0,0.0,0.0,0.0,0.0,0.0,0.0,0.0,0.0,0.0,0.0,0.0,0.0,0.0,0.0,0.0,0.0,0.0,0.0,0.0,0.0,0.0,0.0,0.0,0.0,0.0,0.0,0.0,0.0,0.5209,0.0,0.0,0.0,0.0,0.0,0.0,0.0,0.0,0.0,0.0,0.0,0.0,0.0,0.0,0.0,0.0,0.0,0.0,0.0,0.0,0.0,0.0,0.0,0.0,0.0,0.0,0.0,0.0,0.0,0.0,0.0,0.0,0.0,0.0,0.0,0.0,0.0,0.0,0.0,0.0,0.0,0.6935,0.7591,0.8083,0.8325,0.8284,0.8248,0.8291,0.7562,0.698,0.6686,0.6162,0.0,0.0,0.0,0.0,0.0,0.0,0.0,0.0,0.0,0.0,0.0,0.0,0.0,0.0,0.0,0.0,0.0,0.0,0.0,0.0,0.0,0.0,0.0,0.0,0.0,0.0,0.0,0.0,0.0,0.0,0.0,0.0,0.0,0.0,0.0,0.0,0.0,0.0,0.0,0.0,0.0,0.0,0.0,0.0,0.0,0.0,0.0,0.0,0.0,0.0,0.0,0.0,0.0,0.0,0.0,0.0,0.0,0.0,0.0,0.0,0.5404,0.0,0.0,0.0,0.0,0.0,0.0,0.0,0.0,0.0,0.0,0.0,0.0,0.0,0.0,0.0,0.0,0.0,0.0,0.0,0.0,0.0,0.0,0.0,0.0,0.0,0.0,0.0,0.0,0.0,0.0,0.0,0.0,0.0,0.0,0.0,0.0,0.0,0.0,0.0,0.0,0.625,0.754,0.8364,0.8171,0.8244,0.8261,0.8166,0.7658,0.7287,0.7149,0.6576,0.0,0.0,0.0,0.0,0.0,0.0,0.0,0.0,0.0,0.0,0.0,0.0,0.0,0.0,0.0,0.0,0.0,0.0,0.0,0.0,0.0,0.0,0.0,0.0,0.0,0.0,0.0,0.0,0.0,0.0,0.0,0.0,0.0,0.0,0.0,0.0,0.0,0.0,0.0,0.0,0.0,0.0,0.0,0.0,0.0,0.0,0.0,0.0,0.0,0.0,0.0,0.0,0.0,0.6803,0.6881,0.7403,0.696,0.6993,0.7369,0.6532,0.6048,0.583,0.0,0.0,0.0,0.0,0.0,0.0,0.0,0.0,0.0,0.0,0.0,0.0,0.0,0.0,0.0,0.0,0.0,0.0,0.0,0.0,0.0,0.0,0.0,0.0,0.0,0.659,0.659,0.0,0.0,0.0,0.0,0.0,0.0,0.0,0.0,0.0,0.0,0.0,0.0,0.5673,0.7572,0.8677,0.8114,0.8196,0.823,0.8071,0.7795,0.7571,0.7406,0.6899,0.6522,0.0,0.0,0.0,0.0,0.0,0.0,0.0,0.0,0.0,0.0,0.0,0.0,0.0,0.0,0.0,0.0,0.0,0.0,0.0,0.0,0.0,0.0,0.0,0.0,0.0,0.0,0.0,0.0,0.0,0.0,0.0,0.0,0.4693,0.4693,0.0,0.0,0.0,0.0,0.0,0.0,0.0,0.0,0.0,0.0,0.0,0.0,0.0,0.5566,0.6173,0.6637,0.7214,0.7883,0.7805,0.8082,0.8659,0.8595,0.8601,0.8683,0.9065,0.0,0.7543,0.6022,0.0,0.0,0.0,0.0,0.0,0.0,0.0,0.0,0.0,0.0,0.0,0.0,0.0,0.0,0.0,0.0,0.0,0.0,0.0,0.0,0.0,0.0,0.778,0.778,0.778,0.778,0.0,0.7025,0.6467,0.6874,0.6603,0.0,0.0,0.0,0.0,0.0,0.0,0.0,0.6752,0.8065,0.8739,0.8308,0.8286,0.8287,0.8258,0.796,0.7665,0.7413,0.7159,0.6857,0.6491,0.6321,0.0,0.0,0.0,0.0,0.0,0.0,0.0,0.0,0.0,0.0,0.0,0.0,0.0,0.0,0.0,0.0,0.0,0.0,0.0,0.0,0.0,0.0,0.0,0.0,0.0,0.0,0.0,0.0,0.0,0.5185,0.5636,0.6281,0.5787,0.5298,0.0,0.0,0.0,0.0,0.0,0.0,0.0,0.0,0.0,0.6343,0.6678,0.7156,0.776,0.7996,0.8413,0.9014,0.9014,0.9149,0.9406,0.9406,0.9406,0.942,0.9677,0.9494,0.8902,0.7457,0.6481,0.5904,0.0,0.0,0.0,0.0,0.6071,0.6347,0.6641,0.6901,0.0,0.6753,0.0,0.0,0.0,0.0,0.0,0.0,0.0,0.0,0.0,0.0,0.0,0.8426,0.8507,0.8413,0.8075,0.7871,0.7543,0.0,0.6705,0.6651,0.6358,0.0,0.0,0.0,0.0,0.644,0.7916,0.8278,0.8375,0.8307,0.8306,0.8258,0.8137,0.7993,0.7802,0.7531,0.7356,0.7109,0.6746,0.6525,0.6372,0.0,0.0,0.0,0.0,0.0,0.0,0.0,0.0,0.0,0.0,0.0,0.0,0.0,0.0,0.0,0.0,0.0,0.0,0.0,0.0,0.0,0.0,0.0,0.0,0.0,0.0,0.0,0.0,0.5861,0.6671,0.7055,0.6097,0.5404,0.0,0.0,0.0,0.0,0.0,0.0,0.6705,0.6736,0.6987,0.7545,0.8146,0.8669,0.9132,0.9136,0.9433,1.0034,1.0034,1.0034,1.0034,1.0034,1.0034,1.0034,1.0034,0.9949,0.9725,0.8659,0.7643,0.6736,0.6736,0.6736,0.6736,0.6736,0.6736,0.6811,0.7371,0.7565,0.7467,0.6919,0.0,0.7663,0.7073,0.0,0.0,0.0,0.0,0.6929,0.7783,0.8115,0.8345,0.8791,0.8899,0.8774,0.8328,0.8581,0.8473,0.0,0.7,0.707,0.6586,0.0,0.0,0.0,0.0,0.7239,0.8625,0.8402,0.8172,0.8284,0.8305,0.822,0.8014,0.8001,0.7905,0.7672,0.7524,0.7307,0.6964,0.6692,0.6537,0.6504,0.0,0.0,0.0,0.0,0.0,0.0,0.0,0.0,0.0,0.0,0.0,0.0,0.0,0.0,0.0,0.0,0.0,0.0,0.0,0.0,0.0,0.0,0.0,0.0,0.0,0.0,0.0,0.0,0.0,0.7302,0.6097,0.0,0.0,0.0,0.0,0.54,0.64,0.7278,0.7883,0.7913,0.819,0.8787,0.9393,0.9729,0.9763,0.9763,1.0064,1.0657,1.0657,1.0657,1.0657,1.0657,1.0657,1.0657,1.0657,1.0335,0.9759,0.9122,0.848,0.7913,0.7913,0.7913,0.7913,0.7913,0.7913,0.7997,0.8598,0.8808,0.8706,0.8109,0.7569,0.7042,0.6505,0.6675,0.0,0.0,0.7913,0.7926,0.7987,0.8426,0.8862,0.8889,0.8899,0.8889,0.8858,0.8875,0.8703,0.0,0.7734,0.7463,0.7116,0.0,0.63,0.63,0.7224,0.806,0.8472,0.8492,0.8424,0.8315,0.8298,0.822,0.8014,0.8001,0.7946,0.7799,0.7665,0.7436,0.7109,0.6837,0.6627,0.6504,0.6361,0.0,0.0,0.0,0.0,0.0,0.0,0.0,0.0,0.0,0.0,0.0,0.0,0.0,0.0,0.0,0.0,0.0,0.0,0.0,0.0,0.0,0.0,0.0,0.0,0.0,0.0,0.0,0.0,0.9167,0.8147,0.0,0.7098,0.6563,0.6471,0.703,0.7814,0.8517,0.9125,0.9524,0.9832,1.0045,0.9898,0.9993,1.0379,1.0382,1.0491,1.0704,1.0704,1.0704,1.0704,1.0704,1.0704,1.0704,1.0704,1.0582,1.0366,1.0156,0.97,0.9156,0.9156,0.9156,0.9156,0.9156,0.9156,0.9186,0.9403,0.9477,0.9379,0.877,0.8173,0.7643,0.7457,0.753,0.7727,0.7943,0.8281,0.8578,0.8578,0.8737,0.8899,0.8899,0.8899,0.8899,0.8899,0.8899,0.8835,0.8618,0.8192,0.7824,0.77,0.7519,0.7392,0.7392,0.7743,0.8041,0.8159,0.8364,0.8451,0.8313,0.8185,0.8074,0.8007,0.7925,0.7819,0.7685,0.7418,0.7221,0.7102,0.6847,0.6682,0.663,0.6497,0.6352,0.0,0.0,0.0,0.0,0.0,0.0,0.0,0.0,0.0,0.0,0.0,0.0,0.0,0.0,0.0,0.0,0.0,0.0,0.0,0.0,0.0,0.0,0.0,0.0,0.0,0.0,0.9335,0.971,0.9434,0.8896,0.8078,0.7841,0.8073,0.8855,0.9284,0.968,1.0088,1.0487,1.0704,1.0704,1.0315,1.0301,1.0701,1.0704,1.0704,1.0704,1.0704,1.0704,1.0704,1.0704,1.0704,1.0704,1.0704,1.0704,1.0704,1.0704,1.0467,1.0072,0.9885,0.9807,0.9807,0.9807,0.9807,0.9807,0.9807,0.9807,0.9739,0.9335,0.8936,0.8564,0.8362,0.8305,0.8345,0.8544,0.8899,0.9207,0.9207,0.9207,0.9207,0.9207,0.904,0.8899,0.8899,0.8899,0.8899,0.8899,0.8575,0.8305,0.8305,0.8136,0.8001,0.8001,0.8001,0.8001,0.8001,0.8198,0.8326,0.8303,0.8125,0.798,0.793,0.7856,0.7738,0.7607,0.7348,0.7195,0.7195,0.6925,0.6766,0.6766,0.6637,0.6525,0.644,0.0,0.0,0.0,0.0,0.0,0.0,0.0,0.0,0.0,0.0,0.0,0.0,0.0,0.0,0.0,0.0,0.0,0.0,0.0,0.0,0.0,0.0,0.0,0.7565,0.8814,0.9539,0.8825,0.9729,0.9792,0.8237,0.9125,1.0054,1.0657,1.0704,1.0704,1.0704,1.0704,1.0704,1.0704,1.0704,1.0704,1.0704,1.0704,1.0704,1.0704,1.0704,1.0704,1.0704,1.0704,1.0844,1.1073,1.081,1.0704,1.0704,1.0704,1.0704,1.0647,1.0061,0.9834,0.9834,0.9834,0.9834,0.983,0.9814,0.9807,0.9807,0.9807,0.9807,0.9698,0.9112,0.8926,0.9058,0.9629,0.9807,0.9807,0.9807,0.9807,0.9807,0.9807,0.9355,0.8922,0.8898,0.8912,0.8912,0.8909,0.8902,0.8899,0.8899,0.8416,0.8031,0.8031,0.8014,0.0,0.8028,0.8014,0.8071,0.8274,0.8117,0.7943,0.7819,0.7832,0.7782,0.7607,0.7505,0.7428,0.7386,0.7074,0.6897,0.6897,0.6766,0.6702,0.6702,0.0,0.0,0.0,0.0,0.0,0.0,0.0,0.0,0.0,0.0,0.0,0.0,0.0,0.0,0.0,0.0,0.0,0.0,0.0,0.0,0.0,0.0,0.9606,0.9,0.9423,0.9783,0.9725,1.0254,1.0434,0.9994,0.9868,1.0054,1.0657,1.0704,1.0704,1.0704,1.0704,1.0704,1.0704,1.0704,1.0704,1.0704,1.0704,1.0704,1.0704,1.0704,1.0704,1.0704,1.0704,1.3947,1.9219,1.3273,1.0704,1.0704,1.0704,1.0704,1.0687,1.0521,1.0457,1.0457,1.0457,1.0457,1.0393,0.9956,0.9807,0.9807,0.9807,0.9807,0.9776,0.9595,0.9548,0.9582,0.9759,0.9807,0.9807,0.9807,0.9807,0.9807,0.9807,0.9666,0.9428,0.8994,0.909,0.9187,0.895,0.8895,0.8899,0.8899,0.876,0.8652,0.8652,0.8281,0.0,0.8595,0.8271,0.8018,0.8074,0.8028,0.7984,0.7943,0.8522,0.8519,0.7659,0.8068,0.7989,0.7219,0.7006,0.6897,0.6897,0.6766,0.6702,0.0,0.0,0.0,0.0,0.0,0.0,0.0,0.0,0.0,0.0,0.0,0.0,0.0,0.0,0.0,0.0,0.0,0.0,0.0,0.0,0.0,0.0,0.9236,1.055,1.0179,1.0162,1.0271,1.0527,1.0727,1.0796,1.0711,1.0386,1.0328,1.0677,1.0704,1.0704,1.0704,1.0704,1.2038,1.496,1.2465,1.0958,1.0704,1.3599,1.5058,1.5058,1.5058,1.5322,1.5815,1.5815,1.84,0.0,1.7345,1.5058,1.5058,1.5058,1.5058,0.0,0.0,0.0,0.0,0.0,1.0704,1.0653,1.0305,1.0183,1.0139,0.9888,0.9807,0.9807,0.9807,1.1671,1.3815,1.3815,1.2853,1.1705,1.1257,1.0464,0.9807,0.9807,0.9712,0.9541,0.9191,0.9256,0.9341,0.9144,0.8999,0.0,0.8893,0.8899,0.8899,0.8899,0.8602,0.8504,0.8851,0.8595,0.856,0.9033,0.9089,0.9219,0.9523,0.9911,0.0,0.0,0.0,0.9005,0.7903,0.7298,0.0,0.0,0.0,0.6864,0.6864,0.0,0.0,0.0,0.6773,0.6769,0.0,0.0,0.0,0.0,0.0,0.0,0.0,0.0,0.0,0.0,0.0,0.0,0.0,0.0,0.0,0.0,1.0371,1.1237,1.1117,1.0951,1.0941,1.1203,1.1138,1.1002,1.0823,1.0806,1.0806,1.0806,1.0806,1.1102,1.1831,0.0,0.0,0.0,0.0,1.262,1.2077,1.8208,2.1303,2.1303,2.1303,2.1784,2.2699,2.2699,2.2699,2.2639,2.1563,2.1093,2.1093,2.1093,2.1093,2.0494,1.4293,1.1877,1.1877,1.1877,1.1877,1.1877,1.1877,0.0,0.0,1.0327,0.9861,0.9807,0.9807,1.4058,1.8972,1.9313,1.6959,1.4172,1.3386,1.1671,1.0157,1.0157,0.98,0.9442,0.9442,0.9451,0.9448,0.9438,0.9201,0.9181,0.9779,0.9335,0.8899,0.8899,0.8899,0.9133,0.9801,0.9874,1.0158,1.0885,0.0,0.0,1.1679,1.1608,1.1427,1.1176,1.0848,1.0131,0.8945,0.7874,0.7239,0.7106,0.7095,0.7095,0.7095,0.7095,0.7095,0.7092,0.6978,0.6988,0.0,0.0,0.0,0.0,0.0,0.0,0.0,0.0,0.0,0.0,0.0,0.0,0.0,0.0,0.0,1.1026,1.1459,1.1765,1.173,1.1686,1.1636,1.1524,1.1497,1.1469,1.1432,1.1429,1.1429,1.1429,1.1429,1.3671,1.881,1.3762,0.0,1.3376,1.8162,2.0669,2.0542,2.188,2.2559,2.2559,0.0,0.0,2.145,2.145,2.145,2.1436,2.1209,2.1093,2.1093,2.1093,2.1093,2.0967,1.961,1.9094,1.9094,1.9094,1.9094,1.9094,1.9094,1.9094,1.8135,1.2386,1.0203,0.9807,0.9807,1.2629,0.0,1.8733,1.623,1.3047,1.4037,1.334,1.2384,1.2384,1.1023,0.9728,0.9728,0.9714,0.9728,0.9721,0.9677,1.097,1.519,1.2019,0.8899,0.8899,0.8899,1.0601,1.5317,1.5916,1.5208,1.3375,1.318,1.2821,1.1941,1.2561,1.2589,1.1644,1.1214,1.0373,0.896,0.8671,0.8094,0.7117,0.7095,0.7095,0.7095,0.7095,0.7095,0.7095,0.7068,0.7068,0.0,0.0,0.0,0.0,0.0,0.0,0.0,0.0,0.0,0.0,0.0,0.6793,0.0,0.0,1.1944,1.1649,1.1826,1.204,1.2189,1.2077,1.1947,1.1767,1.1662,1.1602,1.1602,1.1602,1.1602,1.1602,1.1602,1.4388,2.0766,1.8363,1.6931,1.7245,2.0922,2.2893,2.2893,2.2893,2.2893,2.2893,2.2893,2.2569,2.2001,2.2001,2.1663,2.1093,2.1093,2.1093,2.1093,2.1093,2.1093,2.1093,2.1093,2.1093,2.1093,2.1093,2.1093,2.1093,2.1093,2.1093,2.0535,1.7049,1.5705,1.5463,1.5463,1.6264,1.6895,1.5443,1.5461,1.6077,1.6803,1.6592,1.5797,1.4173,1.1747,0.9793,0.9793,1.2332,1.4592,1.4607,1.1998,1.0634,1.3251,1.3954,1.415,1.415,1.1159,1.0494,1.4885,1.6714,1.7036,1.5561,1.5221,1.4832,1.4157,1.4282,1.4099,1.3395,1.2002,1.0874,1.0132,0.9521,0.8612,0.737,0.7981,0.7993,0.7347,0.7347,0.7347,0.7347,0.7347,0.7318,0.0,0.0,0.0,0.0,0.0,0.0,0.0,0.0,0.8365,0.8436,0.8541,0.8784,0.9328,1.1016,1.2193,1.1772,1.1923,1.2183,1.2383,1.2279,1.2137,1.2021,1.1869,1.1727,1.1612,1.2924,1.3188,1.1706,1.2754,1.5796,2.1154,2.2362,2.2893,2.2893,2.2893,2.2893,2.2893,2.2893,2.2893,2.2893,2.2893,2.2773,2.2559,2.2559,2.2148,2.1436,2.1209,2.1093,2.1093,2.1093,2.1093,2.1093,2.1093,2.1093,2.1093,2.1093,2.1093,2.1093,2.1093,2.1093,2.1093,2.1093,2.1093,2.1093,2.1093,2.0309,1.8475,1.3974,1.5622,1.8836,1.9273,1.9395,1.8745,1.6157,1.3548,1.1679,1.1663,1.574,1.9407,1.9399,1.5202,1.1665,1.1667,1.5968,1.9397,1.9397,1.418,1.1226,1.391,1.6011,1.7206,1.7062,1.6689,1.6393,1.6222,1.5763,1.5357,1.5086,1.3202,1.1973,1.1673,1.0502,0.9261,0.7989,0.8734,0.8629,0.7605,0.7602,0.7595,0.7604,0.7626,0.7571,1.1539,1.0096,0.875,0.7336,0.7467,0.8075,0.0,0.0,0.9685,0.999,1.0466,1.0934,1.1239,1.152,1.1782,1.2016,1.2077,1.2111,1.2142,1.2327,1.2447,1.2437,1.2416,1.2196,1.1652,1.7699,1.8857,1.2115,1.6834,2.0814,2.2595,2.2827,2.2893,2.2893,2.2893,2.2893,2.2893,2.2893,2.2893,2.2893,2.2893,2.2345,2.1303,2.1303,2.1804,2.2639,2.1563,2.1093,2.1093,2.1093,2.1093,2.1093,2.1093,2.1093,2.1093,2.1093,2.1093,2.1093,2.1093,2.1093,2.1093,2.1093,2.1093,2.1093,2.1093,2.0309,1.9474,1.9835,1.8185,1.6761,1.8861,1.9395,1.9307,1.8947,1.8591,1.8334,1.8325,1.8895,1.9394,1.9402,1.882,1.8328,1.8327,1.892,1.9395,1.9403,1.6968,1.5733,1.7429,1.6745,1.6366,1.7101,1.6873,1.6444,1.5899,1.5795,1.5646,1.5364,1.5091,1.4353,1.3041,1.1776,1.053,0.9315,0.8321,0.7736,0.76,0.7603,0.7606,0.7603,0.7719,0.7709,1.3972,1.2181,1.0631,0.0,1.1187,1.1406,1.2156,1.2177,1.1705,1.0585,1.1087,1.1706,1.163,1.1883,1.2172,0.0,1.2506,1.256,1.2361,1.2423,1.401,1.8067,1.4659,1.3873,1.8701,2.1425,2.1596,1.8416,2.0647,2.2378,2.2873,2.2893,2.2893,2.2893,2.2893,2.2893,2.2893,2.2893,2.2893,2.2893,2.2893,2.2639,2.2148,2.2148,2.2041,2.185,2.2061,2.176,2.1093,2.1093,2.1093,2.1093,2.1093,2.1093,2.1093,2.1093,2.1093,2.1093,2.1093,2.1093,2.1093,2.1093,2.1093,2.1093,2.1093,2.0768,2.0496,2.0969,2.0052,1.9156,2.0125,2.0396,2.0396,2.0396,2.0387,2.0398,2.0387,1.9867,1.9402,1.9398,1.9399,1.9405,1.9401,1.9397,1.9391,1.9398,1.8365,1.7779,1.8302,1.7505,1.697,1.718,1.7067,1.6753,1.6147,1.6091,1.5959,1.5646,1.4932,1.4246,1.3632,1.3097,1.186,0.9832,0.9992,0.9352,0.7827,0.7834,0.7839,0.7839,0.7884,0.7888,1.5289,1.3864,0.0,1.4146,1.4217,1.4131,1.4975,1.438,1.3376,1.2417,1.2081,1.2126,1.2637,1.2463,1.2311,1.2474,1.2707,1.3553,1.5559,1.557,1.7123,2.184,1.7271,1.6353,2.2986,2.3197,2.2893,2.2893,2.2893,2.2893,2.2893,2.2893,2.2893,2.2893,2.2893,2.2893,2.2893,2.2893,2.2893,2.2893,2.2893,2.2893,2.2893,2.2893,2.2235,2.1156,2.2021,2.1914,2.1093,2.1093,2.1093,2.1093,2.1093,2.1093,2.1093,2.1093,2.1093,2.1093,2.1093,2.1093,2.1093,2.1093,2.1093,2.1093,2.1093,2.1093,2.1093,2.1093,2.1093,2.1093,2.1093,2.1093,2.1093,2.1093,2.1093,2.1103,2.1091,2.0452,1.9783,1.9461,1.9395,1.9395,1.9395,1.9395,1.9395,1.9395,1.9071,1.8753,1.8531,1.7974,1.7503,1.7226,1.7201,1.6989,1.6458,1.6347,1.6199,1.5952,1.4992,1.4424,1.4418,1.4082,1.3009,1.1107,1.1619,1.0795,0.8553,0.8553,0.8363,0.8001,0.8001,0.8001,1.501,0.0,1.4271,1.5305,1.5252,1.5152,1.5888,1.4874,1.4368,1.6385,1.4024,1.2435,1.5085,1.3405,1.1815,1.2406,1.2508,1.5269,2.3135,2.3273,2.2236,2.1271,1.9979,1.9703,0.0,2.2235,2.2893,2.2893,2.2893,2.2893,2.2893,2.2893,2.2893,2.2893,2.2893,2.2893,2.2893,2.2893,2.2893,2.2893,2.2893,2.2893,2.2893,2.2893,2.2235,2.1093,2.1149,2.1127,2.1093,2.1093,2.1093,2.1093,2.1093,2.1093,2.1093,2.1093,2.1093,2.1093,2.1093,2.1093,2.1093,2.1093,2.1093,2.1093,2.1093,2.1093,2.1093,2.1093,2.1093,2.1093,2.1093,2.1093,2.1093,2.1093,2.1093,2.1109,2.1105,2.1069,2.0722,1.9601,1.9395,1.9395,1.9395,1.9395,1.9395,1.9395,1.9115,1.8797,1.8524,1.7972,1.7503,1.7226,1.7193,1.7055,1.6715,1.6455,1.6301,1.6289,1.5947,1.5742,1.5742,1.4562,1.386,1.3779,1.2539,1.1255,0.9942,0.9942,0.9275,0.8001,0.8001,0.8001,1.5971,0.0,1.7272,1.8381,1.9019,1.9594,2.0426,2.0215,1.9551,1.8587,1.7525,1.6009,1.3456,1.2419,1.1933,1.1915,1.2247,1.3452,1.6184,2.0225,2.2171,2.0217,2.0303,0.0,0.0,0.0,0.0,2.172,2.2452,2.2893,2.2893,2.2893,2.2893,2.2893,2.2893,2.2893,2.2893,2.2893,2.2893,2.2893,2.2893,2.2893,2.2893,2.2893,2.2235,2.1093,2.1093,2.1093,2.1093,2.1093,2.1093,2.1093,2.1093,2.1093,2.1093,2.1093,2.1093,2.1093,2.1093,2.1093,2.1093,2.1093,2.1093,2.1093,2.1093,2.1093,2.1093,2.1093,2.1093,2.1093,2.1093,2.1093,2.1093,2.1093,2.1093,2.1093,2.1093,2.1093,2.0995,2.0601,2.0207,1.982,1.9461,1.9395,1.9395,1.9395,1.9115,1.8805,1.8535,1.8316,1.8163,1.8071,1.7866,1.7608,1.7325,1.7046,1.6798,1.6586,1.6289,1.6126,1.6126,1.5512,1.4344,1.2615,1.2128,1.0845,0.867,0.8671,0.8437,0.8001,0.8001,0.8001,1.7341,1.837,1.9446,2.0813,2.1683,2.2355,2.2916,2.2444,2.1637,2.0658,1.9321,1.7782,1.5968,1.4778,1.4264,1.4894,1.5677,1.6367,1.6767,1.9951,2.187,2.0779,2.0557,2.0354,0.0,0.0,0.0,2.1093,2.2214,2.2893,2.2893,2.2893,2.2893,2.2893,2.2893,2.2893,2.2893,2.2893,2.2893,2.2893,2.2893,2.2893,2.288,2.2442,2.1824,2.1093,2.1093,2.1093,2.1093,2.1093,2.1093,2.1093,2.1093,2.1093,2.1093,2.1093,2.1093,2.1093,2.1093,2.1093,2.1093,2.1093,2.1093,2.1093,2.1093,2.1093,2.1093,2.1093,2.1093,2.1093,2.1093,2.1093,2.1093,2.1093,2.1093,2.1093,2.1093,2.1093,2.1093,2.1093,2.0786,2.0412,2.0069,1.9676,1.9395,1.9395,1.9215,1.8972,1.8673,1.8557,1.8496,1.8496,1.8244,1.7982,1.7767,1.7503,1.7216,1.69,1.6596,1.6396,1.6298,1.6091,1.5124,1.3323,1.2846,1.1549,0.9393,0.8932,0.8466,0.8001,0.8001,0.8001,1.8933,1.9853,2.0759,2.2505,2.3126,2.3329,2.3292,2.1737,2.0756,2.2494,1.9583,1.7918,0.0,0.0,1.8224,2.0394,2.1853,2.3097,2.4172,2.2522,2.159,0.0,0.0,0.0,0.0,0.0,0.0,2.1093,0.0,2.2833,2.2893,2.2954,2.296,2.29,2.2893,2.2893,2.2893,2.2893,2.2927,2.2987,2.2927,2.2867,2.2766,2.1617,2.1093,2.1093,2.1093,2.1093,2.1093,2.1093,2.1093,2.1093,2.1093,2.1093,2.1093,2.1093,2.1093,2.1093,2.1093,2.1093,2.1093,2.1093,2.1093,2.1093,2.1093,2.1093,2.1093,2.1093,2.1093,2.1093,2.1093,2.1093,2.1093,2.1093,2.1093,2.1093,2.1093,2.1093,2.1093,2.1093,2.1093,2.1093,2.1093,2.0209,1.9468,1.9401,1.9415,1.93,1.8971,1.8692,1.8548,1.8548,1.8363,1.8177,1.8027,1.7773,1.7503,1.7239,1.691,1.6606,1.636,1.6323,1.6126,1.5724,1.4545,1.3215,1.1808,1.0594,0.9316,0.8001,0.8001,0.8001,1.9274,2.0779,2.2388,2.3168,2.3505,2.3618,2.3363,2.2946,2.2562,2.2291,2.1705,2.049,0.0,0.0,0.0,1.5931,1.8357,0.0,2.0684,2.1713,0.0,2.1623,0.0,2.113,2.2321,2.1623,0.0,0.0,2.139,2.1954,2.2847,2.3701,2.3781,2.2927,2.2893,2.2893,2.2893,2.2893,2.3324,2.4157,2.3304,2.2439,2.155,2.1243,2.1093,2.1093,2.1093,2.1093,2.1093,2.1093,2.1093,2.1093,2.1093,2.1093,2.1093,2.1093,2.1093,2.1093,2.1093,2.1093,2.1093,2.1093,2.1093,2.1093,2.1093,2.1093,2.1093,2.1093,2.1093,2.1093,2.1093,2.1093,2.1093,2.1093,2.1093,2.1093,2.1093,2.1093,2.1093,2.1093,2.1093,2.1093,2.1093,2.0862,2.0383,1.9528,1.9613,1.9657,1.932,1.9215,1.9165,1.9165,1.8906,1.8576,1.818,1.7985,1.7773,1.7503,1.7226,1.7043,1.6974,1.6725,1.5994,1.4712,1.4351,1.2974,1.0477,1.0162,0.9316,0.8001,0.8001,0.8001,2.0944,2.2345,2.3694,2.3928,2.4195,2.4255,2.3661,2.3378,2.3087,2.2502,2.2241,0.0,1.5932,0.0,0.0,0.0,0.0,0.0,2.0949,2.2064,2.2653,0.0,2.2328,0.0,2.2879,2.2281,2.1894,0.0,2.1894,2.2392,2.3581,2.4257,2.407,2.2934,2.3384,2.3658,2.3658,2.3658,2.3714,2.3848,2.3215,2.2552,2.1894,2.1894,2.1597,2.112,0.0,2.159,2.1093,2.1093,2.1093,2.1093,2.1093,2.1093,2.1093,2.1093,2.1093,2.1093,2.1093,2.1093,2.1093,2.1093,2.1093,2.1093,2.1093,2.1093,2.1093,2.1093,2.1093,2.1093,2.1093,2.1093,2.1093,2.1093,2.1093,2.1093,2.1093,2.1093,2.1093,2.1093,2.1093,2.1093,2.1093,2.0953,2.0613,1.9973,1.9865,1.9785,1.9601,1.9475,1.9395,1.9395,1.9229,1.8907,1.8381,1.8181,1.7952,1.7621,1.7463,1.7325,1.7193,1.7024,1.6374,1.5202,1.4594,1.3443,1.1712,1.0564,0.9614,0.8862,0.8272,0.8001,2.3116,2.4059,2.4686,2.4706,2.4871,2.4783,2.3879,2.3275,2.2853,2.2693,0.0,1.8931,1.4854,1.3969,1.502,1.8583,0.0,2.2719,2.2873,2.3034,2.3074,2.2914,2.3915,2.421,2.3217,2.3128,2.3135,2.3121,2.3134,2.3565,2.4546,2.4599,2.4144,2.3168,2.4077,2.4599,2.4599,2.4599,2.4097,2.3117,2.2974,2.2893,2.2893,2.2893,2.2321,2.1396,0.0,0.0,2.1093,2.1093,2.1093,2.1093,2.1093,2.1203,2.1343,2.1343,2.1243,2.1093,2.1093,2.1093,2.1093,2.1093,2.1093,2.1093,2.1093,2.1093,2.1093,2.1093,2.1093,2.1093,2.1093,2.1093,2.1093,2.1093,2.1093,2.1093,2.1093,2.1093,2.1093,2.1093,2.1093,2.1093,2.1093,2.0813,2.0566,2.0519,2.0132,1.9846,1.9806,1.9561,1.9395,1.9395,1.9395,1.9173,1.8588,1.8394,1.8114,1.7674,1.7654,1.7536,1.7266,1.7252,1.6983,1.6425,1.5283,1.4473,1.401,1.1549,1.0241,1.0016,0.8672,0.8029,2.4172,2.4738,2.5138,2.5298,2.4683,2.3866,2.3208,2.2974,0.0,0.0,1.8156,1.5068,1.4246,1.3278,1.3782,1.7331,1.9873,2.175,2.276,2.3708,2.3961,0.0,0.0,0.0,0.0,0.0,0.0,0.0,0.0,2.4379,2.4586,2.4599,2.4506,2.4317,2.4492,2.4599,2.4599,2.4599,2.4492,2.4297,2.3351,2.2893,2.2893,2.2893,2.2786,2.2606,2.2806,0.0,2.1093,2.1093,2.1093,2.1093,2.1093,2.1704,2.2592,2.2592,2.196,2.1093,2.1093,2.1093,2.1093,2.1093,2.1093,2.1093,2.1093,2.1093,2.1093,2.1093,2.1093,2.1093,2.1093,2.1093,2.1093,2.1093,2.1093,2.1093,2.1093,2.1093,2.1093,2.1093,2.1093,2.1093,2.1093,2.104,2.088,2.0559,2.0284,2.0052,1.9833,1.9561,1.9395,1.9395,1.9395,1.9225,1.8783,1.8769,1.8536,1.7966,1.7925,1.7806,1.7536,1.7536,1.7384,1.7048,1.6821,1.6013,1.4638,1.2967,1.1516,1.0307,0.8903,0.8157,2.4684,2.5352,2.5705,2.5165,2.5097,2.4267,2.0913,0.0,0.0,0.0,1.5175,1.3357,1.3978,1.3628,0.0,1.6287,1.6574,1.7796,2.1452,2.2966,0.0,2.3781,0.0,0.0,0.0,0.0,0.0,0.0,0.0,2.4599,2.4599,2.4599,2.4599,2.4599,2.4599,2.4599,2.4599,2.4599,2.4599,2.4592,2.4055,2.3478,2.2893,2.2893,2.2893,2.2893,2.2893,0.0,2.2041,2.2041,2.2041,2.2041,2.2041,2.2382,2.2893,2.2893,2.2539,2.2041,2.2041,2.164,2.1093,2.1093,2.1093,2.1093,2.1093,2.1093,2.1236,2.1867,2.2041,2.2041,2.2041,2.157,2.1093,2.1093,2.1093,2.1093,2.1093,2.1093,2.1093,2.1093,2.1093,2.1093,2.1093,2.1093,2.1033,2.084,2.0606,2.0414,2.0274,1.9881,1.9547,1.9408,1.9395,1.9249,1.8875,1.8878,1.8721,1.8293,1.8102,1.7939,1.7806,1.7668,1.7476,1.7206,1.7193,1.6733,1.5797,1.4238,1.2782,1.141,0.996,0.8825,2.5057,2.5872,2.6166,2.5225,2.5324,2.4173,1.8497,1.6287,0.0,1.3948,1.2959,1.2592,1.3537,0.0,1.4389,0.0,1.4098,1.4492,1.863,2.1125,2.2943,0.0,2.4237,0.0,0.0,0.0,0.0,0.0,0.0,0.0,2.4599,2.4599,2.4599,2.4599,2.4599,2.4599,2.4599,2.4599,2.4599,2.4599,2.4599,2.3997,2.2893,2.2893,2.2893,2.2893,2.2893,0.0,0.0,2.2893,2.2893,2.2893,2.2893,2.2893,2.2893,2.2893,2.2893,2.2893,2.2893,2.2275,2.1483,2.1483,2.1316,2.1093,2.1093,2.1093,2.1303,2.2241,2.2502,2.2579,2.2833,2.2007,2.1093,2.1093,2.1093,2.1093,2.1093,2.1093,2.1093,2.1093,2.1093,2.1093,2.1093,2.1093,2.1093,2.1093,2.0862,2.0706,2.0706,2.0221,1.978,1.9507,1.9435,1.9286,1.9024,1.9004,1.8888,1.8593,1.8339,1.813,1.8012,1.7806,1.7562,1.7298,1.7298,1.716,1.6897,1.5312,1.3843,1.2486,1.1031,0.9545,2.5564,2.6152,2.6366,2.6253,2.4715,2.1957,1.7062,0.0,1.3918,1.2712,1.2378,1.2331,1.2454,0.0,0.0,0.0,0.0,1.4921,1.333,1.7822,2.171,2.2903,0.0,0.0,0.0,0.0,0.0,0.0,0.0,0.0,2.4599,2.4599,2.4599,2.4599,2.4599,2.4599,2.4599,2.4599,2.4599,2.4599,2.4599,2.3997,2.2893,2.2893,2.2893,2.2893,2.2893,0.0,0.0,2.2893,2.2893,2.2893,2.2893,2.2893,2.2893,2.2893,2.2893,2.2893,2.2893,2.2827,2.2733,2.2733,2.1994,2.1093,2.1093,2.1093,2.1113,2.1227,2.1269,2.1516,2.2619,2.2007,2.1093,2.1093,2.1093,2.1093,2.1093,2.1093,2.1093,2.1093,2.1093,2.1093,2.1093,2.1093,2.1093,2.1093,2.0862,2.0706,2.0706,2.0394,2.0065,1.9793,1.9555,1.9388,1.9361,1.9345,1.921,1.8878,1.884,1.8571,1.8013,1.7985,1.7833,1.7562,1.7562,1.7549,1.7503,1.6014,1.4487,1.2908,1.1494,0.998,2.5905,2.6319,2.6406,2.6406,2.4093,2.0755,1.6715,0.0,1.3758,1.2552,1.2305,1.2305,1.2305,1.2692,1.3023,0.0,0.0,0.0,1.4534,1.5212,1.7575,2.2331,2.2893,0.0,0.0,0.0,0.0,0.0,0.0,0.0,2.4599,2.4599,2.4599,2.4599,2.4599,2.4599,2.4599,2.4599,2.4599,2.4599,2.4599,2.4352,2.3908,2.3204,2.2893,2.2893,2.2893,0.0,0.0,2.2893,2.2893,2.2893,2.2893,2.2893,2.2893,2.2893,2.2893,2.2893,2.2893,2.2893,2.2893,2.2893,2.2081,2.1093,2.1093,2.1093,2.1093,2.1093,2.1093,2.12,2.1683,2.1456,2.1093,2.1093,2.1093,2.1093,2.1093,2.1093,2.1093,2.1093,2.1093,2.1093,2.1093,2.1093,2.1093,2.1093,2.1009,2.0935,2.0935,2.0681,2.0454,2.0356,1.9922,1.9574,1.9408,1.9395,1.9344,1.9215,1.9017,1.8789,1.8549,1.819,1.7954,1.7842,1.7675,1.7595,1.7595,1.6853,1.5748,1.4287,1.2753,1.1255,2.4917,2.5784,2.6397,2.6398,2.3733,2.0174,0.0,0.0,1.3758,1.2552,1.2305,1.2305,1.2305,1.2592,1.2722,1.2358,0.0,1.562,1.5781,1.4374,1.5197,0.0,0.0,0.0,0.0,0.0,0.0,0.0,0.0,0.0,0.0,2.4599,2.4599,2.4599,2.4599,2.4599,2.4599,2.4599,2.4599,2.4599,2.4599,2.4599,2.4559,2.3424,2.2893,2.2893,0.0,0.0,0.0,2.2893,2.2893,2.2893,2.2893,2.2893,2.2893,2.2893,2.2893,2.2893,2.2893,2.2893,2.2893,2.2893,2.2338,2.163,2.163,2.1383,2.1093,2.1093,2.1363,2.163,2.163,2.137,2.1093,2.1093,2.1093,2.1093,2.1093,2.1093,2.1093,2.1093,2.1093,2.1093,2.1093,2.1093,2.1093,2.1093,2.1093,2.1093,2.1093,2.0935,2.0784,2.0704,2.0323,1.9922,1.9555,1.9448,1.9395,1.9395,1.9183,1.9003,1.8906,1.8482,1.8232,1.8151,1.7863,1.7722,1.7714,1.7447,1.6612,1.522,1.3675,1.1953,2.2228,2.4327,2.6408,2.6394,2.3735,2.0167,0.0,0.0,1.3758,1.2552,1.2305,1.2305,1.2305,1.3283,1.3691,1.2492,1.3822,0.0,1.5728,1.5781,1.5795,0.0,0.0,0.0,0.0,0.0,0.0,0.0,0.0,0.0,2.4599,2.4599,2.4599,2.4599,2.4599,2.4599,2.4599,2.4599,2.4599,2.4599,2.4599,2.4599,2.4559,2.3424,2.2893,0.0,0.0,0.0,0.0,2.2893,2.2893,2.2893,2.2893,2.2893,2.2893,2.2893,2.2893,2.2893,2.2893,2.2893,2.2893,2.2893,2.2887,2.288,2.288,2.2047,2.1093,2.1093,2.196,2.288,2.288,2.2001,2.1093,2.1093,2.1093,2.1093,2.1093,2.1093,2.1093,2.1093,2.1093,2.1093,2.1093,2.1093,2.1093,2.1093,2.1093,2.1093,2.1093,2.1109,2.0995,2.0724,2.069,2.045,1.9846,1.9547,1.9395,1.9395,1.9402,1.9255,1.8911,1.889,1.8768,1.8503,1.8177,1.7996,1.7998,1.7727,1.6842,1.5363,1.3947,1.1724,2.1082,2.3881,2.6002,2.4414,2.2534,2.0166,1.6609,1.4276,1.2759,1.2378,1.2305,1.2305,1.2305,1.2612,1.3013,1.3457,1.4005,0.0,0.0,0.0,0.0,0.0,0.0,0.0,0.0,0.0,0.0,0.0,0.0,0.0,2.4599,2.4599,2.4599,2.4599,2.4599,2.4599,2.4599,2.4599,2.4599,2.4599,2.4599,2.419,2.3431,2.3067,0.0,0.0,0.0,0.0,0.0,2.2893,2.2893,2.2893,2.2893,2.2893,2.2893,2.2893,2.2893,2.2893,2.2893,2.2893,2.2893,2.2893,2.2893,2.2893,2.2893,2.2639,2.2321,2.2321,2.2606,2.2893,2.2893,2.2007,2.1093,2.1093,2.1724,2.2101,2.1283,2.1093,2.1093,2.1093,2.1093,2.1093,2.1093,2.1093,2.1093,2.1093,2.1093,2.1093,2.1093,2.1093,2.1076,2.0982,2.0811,2.0537,2.0112,1.9826,1.9659,1.9659,1.9502,1.9343,1.9255,1.9029,1.886,1.8781,1.8261,1.7995,1.7996,1.7729,1.6843,1.5368,1.3963,1.2254,1.8524,2.2024,2.4187,2.0505,1.9012,0.0,0.0,1.3677,1.2302,1.2297,1.2305,1.2305,1.2305,1.2305,1.2545,1.3303,1.3805,1.466,0.0,0.0,0.0,0.0,0.0,0.0,0.0,0.0,0.0,0.0,0.0,0.0,2.4599,2.4599,2.4599,2.4599,2.4599,2.4599,2.4599,2.4599,2.4599,2.4592,2.4164,2.3598,2.2893,2.2893,0.0,0.0,0.0,0.0,0.0,2.2893,2.2893,2.2893,2.2893,2.2893,2.2893,2.2893,2.2893,2.2893,2.2893,2.2893,2.2893,2.2893,2.2599,2.2214,2.2214,2.2214,2.2325,2.2773,2.2579,2.2214,2.2214,2.1657,2.1093,2.1093,2.167,2.2021,2.1263,2.1093,2.1093,2.1093,2.1093,2.1093,2.1093,2.1093,2.1093,2.1093,2.1093,2.1093,2.1093,2.1093,2.1093,2.1093,2.0949,2.0768,2.0566,2.0179,1.9913,1.9806,1.9647,1.9515,1.9401,1.92,1.9093,1.9092,1.8601,1.8334,1.8336,1.8076,1.7176,1.5691,1.4212,1.2746,0.0,1.8839,2.096,1.5463,1.4099,0.0,0.0,0.0,0.0,1.2201,1.2245,1.2305,1.2305,1.2305,1.2305,1.2305,1.3307,1.4888,0.0,0.0,0.0,0.0,0.0,0.0,0.0,0.0,0.0,0.0,0.0,0.0,2.4599,2.4519,2.4472,2.4472,2.4472,2.4472,2.4472,2.4559,2.4559,2.4477,2.3411,2.2893,2.2893,2.2893,0.0,0.0,0.0,0.0,0.0,2.2893,2.2893,2.2893,2.2893,2.2893,2.2893,2.2893,2.2893,2.2893,2.2893,2.2893,2.288,2.28,2.2014,2.1093,2.1093,2.1093,2.1336,2.2465,2.1951,2.1093,2.1093,2.1153,2.1209,2.1129,2.1093,2.1093,2.1093,2.1093,2.1093,2.1093,2.1093,2.1093,2.1093,2.1093,2.1093,2.1093,2.1093,2.1093,2.1093,2.1093,2.1093,2.1093,2.1093,2.1093,2.1093,2.0566,2.0132,1.988,1.9848,1.9729,1.9468,1.9441,1.9428,1.9428,1.9085,1.8883,1.8877,1.8617,1.7798,1.6416,1.4705,1.3245,1.2967,0.0,1.5842,1.4457,1.4099,1.3859,0.0,0.0,0.0,0.0,0.0,1.2305,1.2305,1.2305,1.2305,1.2305,1.3307,1.46,1.6027,0.0,0.0,0.0,0.0,0.0,0.0,0.0,0.0,0.0,0.0,2.4599,2.4599,2.3774,2.3297,2.3297,2.3297,2.3297,2.3297,2.4164,2.4164,2.3291,2.3034,2.2893,2.2893,2.2893,2.2893,0.0,0.0,0.0,2.2893,2.2893,2.2893,2.2893,2.2893,2.2893,2.2893,2.2893,2.2893,2.2893,2.2893,2.2893,2.2746,2.181,2.1336,2.1093,2.1093,2.1093,2.1169,2.1443,2.1323,2.1093,2.1093,2.1793,2.2241,2.1323,2.1093,2.1093,2.1093,2.1093,2.1093,2.1093,2.1093,2.1093,2.1093,2.1093,2.1093,2.1093,2.1093,2.1093,2.1093,2.1093,2.1093,2.1093,2.1093,2.1093,2.1093,2.0777,2.0566,2.0483,2.0254,2.0086,2.0012,1.9813,1.9714,1.9714,1.9171,1.8804,1.8591,1.8524,1.8317,1.7923,1.5181,1.4106,1.1517,1.2378,1.3267,1.3267,1.3267,1.31,1.2452,0.0,0.0,0.0,0.0,1.152,1.152,1.2826,1.355,1.2478,1.3307,0.0,0.0,0.0,0.0,0.0,0.0,0.0,0.0,0.0,0.0,0.0,0.0,2.4599,2.4599,2.3525,2.2893,2.2893,2.2893,2.2893,2.2893,2.3518,2.3518,2.2893,2.2893,2.2893,2.2893,2.2893,2.2893,0.0,0.0,0.0,2.2893,2.2893,2.2893,2.2893,2.2893,2.2893,2.2893,2.2893,2.2893,2.2893,2.2893,2.2893,2.2699,2.149,2.1093,2.1093,2.1093,2.1093,2.1093,2.1093,2.1093,2.1236,2.177,2.2418,2.2599,2.139,2.1093,2.1093,2.1093,2.1093,2.1093,2.1093,2.1093,2.1093,2.1093,2.1093,2.1093,2.1093,2.1093,2.1093,2.1093,2.1093,2.1093,2.1093,2.1093,2.1093,2.1093,2.0969,2.0831,2.0712,2.0533,2.035,2.0204,1.9938,1.974,1.9621,1.93,1.9066,1.8905,1.8905,1.8905,1.8835,1.5689,1.4752,1.0601,1.1308,1.2174,1.2696,1.2829,1.2736,1.2376,0.0,0.0,0.0,0.0,0.0,0.0,1.342,0.0,0.0,0.0,0.0,0.0,0.0,0.0,0.0,0.0,0.0,0.0,0.0,0.0,0.0,0.0,2.4519,2.4357,2.3424,2.2893,2.2893,2.2893,2.2893,2.2893,2.2893,2.2893,2.2893,2.2893,2.2893,2.2893,2.2893,2.2893,2.2893,0.0,0.0,2.2893,2.2893,2.2893,2.2893,2.2893,2.2893,2.2893,2.2893,2.2893,2.2893,2.2893,2.278,2.2465,2.1436,2.1093,2.1093,2.1093,2.1093,2.1093,2.1093,2.1093,2.1343,2.2355,2.2633,2.2378,2.1343,2.1093,2.1093,2.1093,2.1093,2.1093,2.1093,2.1093,2.1093,2.1093,2.1093,2.1093,2.1093,2.1093,2.1093,2.1093,2.1093,2.1093,2.1093,2.1093,2.1093,2.1093,2.1093,2.1002,2.0777,2.0757,2.0623,2.0284,2.0005,1.9726,1.9468,1.9421,1.9395,1.9395,1.9395,1.9395,1.9336,1.6356,1.5232,1.0601,1.0728,1.1569,1.4532,1.5261,1.4741,1.2749,0.0,0.0,0.0,0.0,0.0,0.0,1.3307,1.4556,0.0,0.0,0.0,0.0,0.0,0.0,0.0,0.0,0.0,0.0,0.0,0.0,0.0,0.0,2.4177,2.3204,2.2994,2.2893,2.2893,2.2893,2.2893,2.2893,2.2893,2.2893,2.2893,2.2893,2.2893,2.2893,2.2893,2.2893,2.2893,0.0,2.2893,2.2893,2.2893,2.2893,2.2893,2.2893,2.2893,2.2893,2.2893,2.2893,2.2893,2.2893,2.2228,2.1349,2.1169,2.1093,2.1093,2.1093,2.1093,2.1093,2.1093,2.1093,2.1133,2.1329,2.1383,2.1329,2.1133,2.1093,2.1093,2.1093,2.1093,2.1093,2.1093,2.1093,2.1093,2.1093,2.1093,2.1093,2.1093,2.1093,2.1093,2.1093,2.1093,2.1093,2.1093,2.1093,2.1093,2.1093,2.1093,2.1073,2.1042,2.1042,2.0909,2.0637,2.0306,2.0019,1.974,1.9522,1.9395,1.9395,1.9395,1.9395,1.9366,1.7492,1.5498,1.0601,1.1977,1.3784,1.5401,1.4848,1.363,1.2552,0.0,0.0,0.0,0.0,0.0,0.0,0.0,0.0,0.0,0.0,0.0,0.0,0.0,0.0,0.0,0.0,0.0,0.0,0.0,0.0,0.0,0.0,0.0,2.2927,2.2893,2.2893,2.2893,2.2893,2.2893,2.2893,2.2248,2.2248,2.2893,2.2893,2.2893,2.2893,2.2893,2.2893,2.2893,0.0,2.2532,2.1934,2.1934,2.2308,2.2893,2.2893,2.2893,2.282,2.2168,2.1934,2.1934,2.1934,2.1563,2.1093,2.1093,2.1093,2.1093,2.1093,2.1093,2.1093,2.1093,2.1093,2.1093,2.1093,2.1093,2.1093,2.1093,2.1093,2.1093,2.1093,2.1093,2.1093,2.1093,2.1093,2.1093,2.1093,2.1093,2.1093,2.1093,2.1093,2.1093,2.1093,2.1093,2.1093,2.1093,2.1093,2.1093,2.1093,2.1093,2.1093,2.1093,2.1093,2.0982,2.0704,2.0541,2.0334,2.0025,1.9907,1.9833,1.9833,1.9694,1.9614,1.957,1.7815,1.6177,1.0601,1.2551,1.4652,1.4914,1.3844,1.2792,1.3056,0.0,0.0,0.0,0.0,0.0,0.0,0.0,0.0,0.0,0.0,0.0,0.0,0.0,0.0,0.0,0.0,0.0,0.0,0.0,0.0,0.0,0.0,0.0,2.2893,2.2766,2.2753,2.2893,2.2893,2.2893,2.2893,2.1697,2.1563,2.2485,2.2766,2.2753,2.2485,2.2485,2.2485,2.2485,2.2485,2.196,2.1093,2.1093,2.1637,2.2485,2.2485,2.2485,2.2378,2.1443,2.1093,2.1093,2.1093,2.1093,2.1093,2.1093,2.1093,2.1093,2.1093,2.1093,2.1093,2.1093,2.1093,2.1093,2.1093,2.1093,2.1093,2.1093,2.1093,2.1093,2.1093,2.1093,2.1093,2.1093,2.1093,2.1093,2.1093,2.1093,2.1093,2.1093,2.1093,2.1093,2.1093,2.1093,2.1093,2.1093,2.1093,2.1093,2.1093,2.1093,2.1093,2.1093,2.1093,2.1009,2.0804,2.073,2.0583,2.0326,2.0237,2.0204,2.0204,1.9992,1.9885,1.9863,1.8422,1.7114,1.0601,1.078,1.1236,1.2294,1.3277,0.0,1.5308,1.5555,0.0,0.0,0.0,0.0,0.0,0.0,0.0,0.0,0.0,0.0,0.0,0.0,0.0,0.0,0.0,0.0,0.0,0.0,0.0,0.0,0.0,0.0,2.2893,2.2378,2.2315,2.288,2.2893,2.2893,2.2893,2.1697,2.1133,2.1249,2.2355,2.2308,2.1236,2.1236,2.1236,2.1236,2.1236,2.1189,2.1093,2.1093,2.1147,2.1236,2.1236,2.1236,2.1223,2.1127,2.1093,2.1093,2.1093,2.1093,2.1093,2.1093,2.1093,2.1093,2.1093,2.1093,2.1093,2.1093,2.1093,2.1093,2.1093,2.1093,2.1093,2.1093,2.1093,2.1093,2.1093,2.1093,2.1093,2.1093,2.1093,2.1093,2.1093,2.1093,2.1093,2.1093,2.1093,2.1093,2.1093,2.1093,2.1093,2.1093,2.1093,2.1093,2.1093,2.1093,2.1093,2.1093,2.1093,2.108,2.1066,2.0837,2.0699,2.0657,2.0359,2.0204,2.0204,2.0184,2.017,2.017,2.0023,1.8316,1.0601,1.0601,1.0874,1.202,1.2639,0.0,0.0,0.0,0.0,0.0,0.0,0.0,0.0,0.0,0.0,0.0,0.0,0.0,0.0,0.0,0.0,0.0,0.0,0.0,0.0,0.0,0.0,0.0,0.0,0.0,0.0,2.2338,2.2275,2.288,2.2168,2.2141,2.2887,2.1697,2.1476,2.2214,2.1927,2.1537,2.1093,2.1093,2.1093,2.1093,2.1093,2.1093,2.1093,2.1093,2.1093,2.1093,2.1093,2.1093,2.1093,2.1093,2.1093,2.1093,2.1093,2.1093,2.1093,2.1093,2.1093,2.1093,2.1093,2.1093,2.1093,2.1093,2.1093,2.1093,2.1093,2.1093,2.1093,2.1093,2.1093,2.1093,2.1093,2.1093,2.1093,2.1093,2.1093,2.1093,2.1093,2.1717,2.1951,2.12,2.1093,2.1093,2.1093,2.1093,2.1093,2.1093,2.1093,2.1093,2.1093,2.1093,2.1093,2.1093,2.1093,2.1093,2.1093,2.1002,2.0949,2.0949,2.082,2.0759,2.0759,2.0595,2.0508,2.0501,2.0306,1.8438,1.0137,1.0311,1.1047,0.0,0.0,0.0,0.0,0.0,0.0,0.0,0.0,0.0,0.0,0.0,0.0,0.0,0.0,0.0,0.0,0.0,0.0,0.0,0.0,0.0,0.0,0.0,0.0,0.0,0.0,0.0,0.0,2.2248,2.2221,2.2502,2.1606,2.1496,2.2315,2.151,2.1516,2.2315,2.149,2.1093,2.1093,2.1093,2.1093,2.1093,2.1093,2.1093,2.1093,2.1093,2.1093,2.1093,2.1093,2.1093,2.1093,2.1093,2.1093,2.1093,2.1093,2.1093,2.1093,2.1093,2.1093,2.1093,2.1093,2.1093,2.1093,2.1093,2.1093,2.1093,2.1093,2.1093,2.1093,2.1093,2.1396,2.1563,2.1173,2.1093,2.1093,2.1093,2.1093,2.1223,2.1597,2.2348,2.2619,2.1784,2.1503,2.1316,2.112,2.1093,2.1093,2.1093,2.1093,2.1093,2.1093,2.1093,2.1093,2.1093,2.1093,2.1093,2.1093,2.1093,2.1093,2.1093,2.1093,2.1093,2.1093,2.0924,2.0831,2.0824,2.0586,1.8688,0.9138,0.9687,1.1435,0.0,0.0,0.0,0.0,0.0,0.0,0.0,0.0,0.0,0.0,0.0,0.0,0.0,0.0,0.0,0.0,0.0,0.0,0.0,0.0,0.0,0.0,0.0,0.0,0.0,0.0,0.0,0.0,2.2074,2.2114,2.1717,2.1316,2.1093,2.1093,2.1093,2.1093,2.1093,2.1093,2.1093,2.1093,2.1093,2.1093,2.1093,2.1093,2.1093,2.1093,2.1093,2.1093,2.1093,2.1093,2.1093,2.1093,2.1093,2.1093,2.1093,2.1093,2.1093,2.1093,2.1093,2.1093,2.1093,2.1093,2.1093,2.1093,2.1093,2.1093,2.1093,2.1093,2.1093,2.1093,2.1093,2.2021,2.2579,2.1376,2.1129,2.1129,2.1129,2.1129,2.149,2.2679,2.2887,2.2893,2.2893,2.2375,2.1787,2.1189,2.1093,2.1093,2.1093,2.1093,2.1093,2.1093,2.1093,2.1093,2.1093,2.1093,2.1093,2.1093,2.1093,2.1093,2.1093,2.1093,2.1093,2.1093,2.1093,2.1093,2.1093,2.1093,1.9237,0.9935,1.0333,0.0,1.3928,0.0,0.0,0.0,0.0,0.0,0.0,0.0,0.0,0.0,0.0,0.0,0.0,0.0,0.0,0.0,0.0,0.0,0.0,0.0,0.0,0.0,0.0,0.0,0.0,0.0,0.0,0.0,2.1396,2.18,2.2525,2.1603,2.1093,2.1093,2.1093,2.1093,2.1093,2.1093,2.1093,2.1093,2.1093,2.1093,2.1093,2.1093,2.1093,2.1093,2.1093,2.1093,2.1093,2.1093,2.1093,2.1093,2.1093,2.1093,2.1093,2.1093,2.1093,2.1093,2.1093,2.1093,2.1093,2.1093,2.1093,2.1093,2.1093,2.1093,2.1093,2.1093,2.1093,2.1093,2.1093,2.2021,2.28,2.2435,2.2378,2.2378,2.2378,2.2378,2.2208,2.171,2.2345,2.2893,2.2893,2.2027,2.1303,2.1113,2.1093,2.1093,2.1093,2.1093,2.1093,2.1093,2.1093,2.1093,2.1093,2.1093,2.1093,2.1093,2.1093,2.1093,2.1093,2.1093,2.1093,2.1093,2.1093,2.1093,2.1093,2.1093,1.9887,1.0271,1.0928,0.0,1.3029,1.4952,1.6941,1.8604,0.0,0.0,0.0,0.0,0.0,0.0,0.0,0.0,0.0,0.0,0.0,0.0,0.0,0.0,0.0,0.0,0.0,0.0,0.0,0.0,0.0,0.0,0.0,0.0,2.1093,2.1436,2.2161,2.1476,2.1093,2.1093,2.1093,2.1093,2.1093,2.1093,2.1093,2.1093,2.1093,2.1093,2.1093,2.1093,2.1093,2.1093,2.1093,2.1093,2.1093,2.1093,2.1093,2.1093,2.1093,2.1093,2.1093,2.1093,2.1093,2.1093,2.1093,2.1093,2.1093,2.1093,2.1093,2.1093,2.1093,2.1093,2.1093,2.1093,2.1093,2.1093,2.1093,2.2021,2.2893,2.2893,2.2515,2.2338,2.2806,2.2893,2.2673,2.194,2.2425,2.274,2.2255,2.1563,2.1093,2.1093,2.1093,2.1093,2.1093,2.1093,2.1093,2.1093,2.1093,2.1093,2.1093,2.1093,2.1093,2.1093,2.1093,2.1093,2.1093,2.1093,2.1093,2.1093,2.1093,2.1093,2.1093,2.1093,2.0164,1.0332,1.1507,0.0,1.2589,1.5295,0.0,2.0599,0.0,2.0164,0.0,0.0,0.0,0.0,0.0,0.0,0.0,0.0,0.0,0.0,0.0,0.0,0.0,0.0,0.0,0.0,0.0,0.0,0.0,0.0,0.0,0.0,2.1093,2.1093,2.1093,2.1093,2.1093,2.1093,2.1093,2.1093,2.1093,2.1093,2.1093,2.1093,2.1093,2.1093,2.1093,2.1093,2.1093,2.1093,2.1093,2.1093,2.1093,2.1093,2.1093,2.1093,2.1093,2.1093,2.1093,2.1093,2.1093,2.1093,2.1093,2.1093,2.1093,2.1093,2.1093,2.1093,2.1093,2.1093,2.1093,2.1093,2.1093,2.1093,2.1093,2.2021,2.2893,2.2893,2.2041,2.1557,2.2529,2.282,2.2893,2.2893,2.2893,2.2519,2.1356,2.1176,2.1147,2.1147,2.1113,2.1093,2.1093,2.1093,2.1093,2.1093,2.1093,2.1093,2.1093,2.1093,2.1093,2.1093,2.1093,2.1093,2.1093,2.1093,2.1093,2.1093,2.1093,2.1093,2.1093,2.1093,2.0249,1.0774,1.2116,0.0,0.0,1.7716,2.0481,2.098,2.0915,2.0875,0.0,0.0,0.0,0.0,0.0,0.0,0.0,0.0,0.0,0.0,0.0,0.0,0.0,0.0,0.0,0.0,0.0,0.0,0.0,0.0,0.0,2.1093,2.1093,2.1093,2.1093,2.1093,2.1093,2.1093,2.1093,2.1093,0.0,2.1093,2.1093,2.1093,2.1093,2.1093,2.1093,2.1093,2.1093,2.1093,2.1093,2.1093,2.1093,2.1093,2.1093,2.1093,2.1093,2.1093,2.1093,2.1093,2.1093,2.1093,2.1093,2.1093,2.1093,2.1093,2.1093,2.1093,2.1093,2.1093,2.1093,2.1093,2.1093,2.1093,2.1093,2.2021,2.2893,2.2893,2.2699,2.2308,2.1617,2.2248,2.2893,2.2893,2.2893,2.2653,2.192,2.167,2.1554,2.1499,2.1264,2.1093,2.1093,2.1093,2.1093,2.1093,2.1093,2.1093,2.1093,2.1093,2.1093,2.1093,2.1093,2.1093,2.1093,2.1093,2.1093,2.1093,2.1093,2.1093,2.1093,2.1093,2.0897,1.076,0.0,0.0,1.7088,0.0,2.1093,2.1093,2.1093,2.1093,0.0,0.0,0.0,0.0,0.0,0.0,0.0,0.0,0.0,0.0,0.0,0.0,0.0,0.0,0.0,0.0,0.0,0.0,0.0,0.0,2.0869,2.0323,2.0289,2.0535,2.1073,2.0568,2.0289,2.0289,2.0828,2.0828,2.0289,2.0289,2.0289,2.0309,2.0855,2.1093,2.1093,2.1093,2.1093,2.1093,2.1093,2.1093,2.1093,2.1093,2.1093,2.1093,2.1093,2.1093,2.1093,2.1093,2.1093,2.1093,2.1093,2.1093,2.1093,2.1093,2.1093,2.1093,2.1093,2.1093,2.1093,2.1093,2.1093,2.1093,2.1093,2.1577,2.2194,2.2773,2.2893,2.2529,2.1336,2.2074,2.2719,2.2134,2.2525,2.2599,2.1697,2.1637,2.1623,2.1381,2.1204,2.1093,2.1093,2.1093,2.1093,2.1093,2.1093,2.1093,2.1093,2.1243,2.1339,2.1339,2.1339,2.1256,2.1093,2.1093,2.1093,2.1093,2.1093,2.1093,2.1093,2.1093,2.1093,1.0841,0.0,1.6641,1.8853,2.0262,0.0,2.1093,2.1093,2.1093,0.0,0.0,0.0,0.0,0.0,0.0,0.0,0.0,0.0,0.0,0.0,0.0,0.0,0.0,0.0,0.0,0.0,0.0,0.0,0.0,2.0388,1.9448,1.9395,1.9828,2.0782,1.9888,1.9395,1.9395,2.0343,2.0336,1.9395,1.9395,1.9395,1.9428,2.0383,2.0915,2.1093,2.1093,2.1093,2.1093,2.1093,2.1093,2.1093,2.1093,2.1093,2.1093,2.1093,2.1093,2.1093,2.1093,2.1093,2.1093,2.1093,2.1093,2.1093,2.1093,2.1093,2.1093,2.1093,2.1093,2.1093,2.1093,2.1093,2.1093,2.1093,2.1093,2.1376,2.2368,2.2753,2.2529,2.1336,2.2074,2.2586,2.1577,2.2235,2.2566,2.1557,2.1603,2.1633,2.1295,2.1209,2.1167,2.1116,2.1147,2.1183,2.1182,2.112,2.1113,2.1182,2.1448,2.1598,2.1598,2.1598,2.1468,2.1189,2.1136,2.1093,2.1093,2.1093,2.1093,2.1093,2.1093,2.1093,0.0,0.0,1.7689,0.0,2.0262,2.1093,0.0,0.0,2.1093,0.0,0.0,0.0,0.0,0.0,0.0,0.0,0.0,0.0,0.0,0.0,0.0,0.0,0.0,0.0,0.0,0.0,0.0,0.0,1.9629,1.9562,1.9401,1.9395,1.9468,1.9622,1.9475,1.9395,1.9395,1.9555,1.9555,1.9395,1.9395,1.9395,1.9416,1.9562,2.0169,2.1093,2.1093,2.1093,2.1093,2.1093,2.1093,2.1093,2.1093,2.1093,2.1093,2.1093,2.1093,2.1093,2.1093,2.1093,2.1093,2.1093,2.1093,2.1093,2.1093,2.1093,2.1093,2.1093,2.1093,2.1093,2.1093,2.1093,2.1093,2.1093,2.1093,2.1133,2.1309,2.2161,2.2529,2.1336,2.2074,2.2847,2.2686,2.2793,2.284,2.2686,2.2255,2.1936,2.1897,2.1672,2.1412,2.1127,2.1364,2.1536,2.1525,2.1272,2.1223,2.1509,2.1578,2.1598,2.1598,2.1598,2.1585,2.1529,2.1243,2.1093,2.1093,2.1093,2.1093,2.1093,2.1093,2.1093,1.0199,1.3407,1.6887,0.0,1.9287,2.0149,2.0149,0.0,0.0,0.0,0.0,0.0,0.0,0.0,0.0,0.0,0.0,0.0,0.0,0.0,0.0,0.0,0.0,0.0,0.0,0.0,0.0,0.0,1.9395,1.9395,1.9395,1.9395,1.9395,1.9395,1.9395,1.9395,1.9395,1.9395,1.9395,1.9395,1.9395,1.9395,1.9395,1.9395,1.9676,2.0149,2.0149,2.0149,2.0149,2.0149,2.0514,2.1093,2.1093,2.1093,2.1093,2.1093,2.1093,2.1093,2.1093,2.1093,2.1093,2.1093,2.1093,2.1093,2.1093,2.1093,2.1093,2.1093,2.1093,2.1093,2.1093,2.1093,2.1093,2.1093,2.1093,2.1093,2.1093,2.2047,2.2646,2.1764,2.2301,2.2827,2.2606,2.2753,2.2726,2.2254,2.2201,2.2117,2.1813,2.1793,2.1775,2.1622,2.1746,2.1816,2.1816,2.1693,2.1599,2.1605,2.1874,2.1981,2.1836,2.1967,2.1981,2.183,2.1343,2.1093,2.1093,2.1093,2.1093,2.1093,2.1093,2.1093,0.0,0.0,1.6015,1.6921,1.805,1.902,0.0,0.0,0.0,0.0,0.0,0.0,0.0,0.0,0.0,0.0,0.0,0.0,0.0,0.0,0.0,0.0,0.0,0.0,0.0,0.0,0.0,0.0,1.9395,1.9395,1.9395,1.9107,1.908,1.9388,1.91,1.894,1.894,1.9241,1.9395,1.9395,1.9395,1.9395,1.9395,1.9395,1.9395,1.9395,1.9395,1.9395,1.9395,1.9395,2.0069,2.1093,2.1093,2.1093,2.1093,2.1093,2.1093,2.1093,2.1093,2.1093,2.1093,2.1093,2.1093,2.1093,2.1093,2.1093,2.1093,2.1093,2.1093,2.1093,2.1093,2.1093,2.1093,2.1093,2.1093,2.1173,2.149,2.2261,2.2766,2.2325,2.2599,2.2806,2.2489,2.2699,2.2646,2.1917,2.2094,2.2151,2.1749,2.1878,2.1993,2.2003,2.2061,2.2098,2.2098,2.2047,2.194,2.181,2.2178,2.2301,2.2104,2.2288,2.2261,2.2007,2.1483,2.1182,2.1093,2.1093,2.1093,2.1093,2.1093,2.1093,0.0,1.3103,0.0,1.5881,1.6807,0.0,0.0,0.0,0.0,0.0,0.0,0.0,0.0,0.0,0.0,0.0,0.0,0.0,0.0,0.0,0.0,0.0,0.0,0.0,0.0,0.0,0.0,0.0,1.9395,1.9395,1.9395,1.8317,1.8224,1.9361,1.8297,1.7689,1.7689,1.8826,1.9395,1.9395,1.9395,1.9395,1.9395,1.9395,1.9395,1.9395,1.9395,1.9395,1.9395,1.9395,2.0069,2.1093,2.1093,2.1093,2.1093,2.1093,2.1093,2.1093,2.1093,2.1093,2.1093,2.1093,2.1093,2.1093,2.1093,2.1093,2.1093,2.1093,2.1093,2.1093,2.1093,2.1093,2.1093,2.1093,2.1093,2.1416,2.2566,2.2853,2.2887,2.2853,2.2873,2.2887,2.2873,2.288,2.2786,2.2408,2.2164,2.2014,2.1981,2.199,2.2005,2.1997,2.2233,2.2377,2.2385,2.2144,2.2098,2.2341,2.2381,2.2395,2.2381,2.2395,2.2261,2.2007,2.1716,2.1422,2.1093,2.1093,2.1093,2.1093,2.1093,2.1093,0.0,0.0,0.0,1.337,1.4754,1.6136,1.6914,1.7695,0.0,0.0,0.0,0.0,0.0,0.0,0.0,0.0,0.0,0.0,0.0,0.0,0.0,0.0,0.0,0.0,0.0,0.0,0.0,0.0,0.0,1.906,1.8291,1.7829,1.7809,1.8237,1.7829,1.7595,1.7595,1.8036,1.8237,1.8237,1.8237,1.8652,1.9395,1.9395,1.9395,1.9395,1.9395,1.9395,1.9395,1.9395,1.9642,2.0082,2.0815,2.1093,2.1093,2.1093,2.1093,2.1093,2.1093,2.1093,2.1093,2.1093,2.1093,2.1093,2.1093,2.1093,2.1093,2.1093,2.1093,2.1093,2.1093,2.1093,2.1093,2.1093,2.1093,2.143,2.2646,2.2893,2.2893,2.2893,2.2893,2.2893,2.2893,2.2723,2.2478,2.2184,2.2211,2.2191,2.2027,2.2341,2.2579,2.2579,2.2657,2.272,2.2729,2.2629,2.2529,2.2408,2.2599,2.2619,2.2408,2.2605,2.2565,2.2255,2.2164,2.1777,2.1093,2.1093,2.1093,2.1093,2.1093,2.1093,0.962,0.0,0.0,0.0,0.0,1.4045,1.5006,0.0,0.0,0.0,0.0,0.0,0.0,0.0,0.0,0.0,0.0,0.0,0.0,0.0,0.0,0.0,0.0,0.0,0.0,0.0,0.0,0.0,0.0,0.0,1.7635,1.7595,1.7595,1.7595,1.7595,1.7595,1.7595,1.7595,1.7595,1.7595,1.7595,1.8023,1.8799,1.8799,1.902,1.9395,1.9395,1.9395,1.9395,1.9395,1.9395,1.9475,2.0236,2.0762,2.1093,2.1093,2.1093,2.1093,2.1093,2.1093,2.1093,2.1093,2.1093,2.1093,2.1093,2.1093,2.1093,2.1093,2.1093,2.1093,2.1093,2.1093,2.1093,2.1093,2.1093,2.143,2.2646,2.2893,2.2893,2.2893,2.2893,2.2893,2.2893,2.2612,2.2335,2.2158,2.2211,2.2238,2.2144,2.2479,2.2787,2.288,2.2893,2.2893,2.2893,2.2893,2.2796,2.2579,2.2786,2.2806,2.2572,2.2776,2.2736,2.2408,2.2402,2.2031,2.1272,2.1272,2.1203,2.1093,2.1093,2.0779,0.0,0.0,0.0,0.0,0.0,0.0,1.3658,0.0,1.5723,0.0,0.0,0.0,0.0,0.0,0.0,0.0,0.0,0.0,0.0,0.0,0.0,0.0,0.0,0.0,0.0,0.0,0.0,0.0,1.8264,1.7595,1.7595,1.7575,1.7562,1.7595,1.7575,1.7542,1.7542,1.7542,1.7562,1.7595,1.7595,1.7595,1.7595,1.7595,1.8264,1.9395,1.9395,1.9395,1.9395,1.9395,1.9395,1.9395,1.9395,2.0095,2.1109,2.1053,2.1066,2.1093,2.1093,2.1093,2.1093,2.1093,2.1093,2.1093,2.1093,2.1093,2.1093,2.1093,2.1093,2.1093,2.1093,2.1093,2.1093,2.1093,2.1093,2.1423,2.2599,2.2873,2.2893,2.2893,2.2893,2.2893,2.2893,2.2622,2.2388,2.2402,2.2171,2.2108,2.2368,2.2402,2.2536,2.2877,2.2893,2.2893,2.2893,2.2893,2.2893,2.2893,2.2893,2.2893,2.2893,2.2893,2.2743,2.2422,2.2415,2.2151,2.1625,2.1612,2.1435,2.1093,2.1046,2.0084,1.0601,0.0,0.0,0.0,0.0,0.0,1.2945,1.3444,1.41,0.0,0.0,0.0,0.0,0.0,0.0,0.0,0.0,0.0,0.0,0.0,0.0,0.0,0.0,0.0,0.0,0.0,0.0,0.0,1.7796,1.7595,1.7595,1.6774,1.67,1.7568,1.6741,1.63,1.63,1.63,1.674,1.7595,1.7595,1.7595,1.7595,1.7595,1.8264,1.9395,1.9395,1.9395,1.9395,1.9395,1.9395,1.9395,1.9395,2.0095,2.1009,2.0176,2.0381,2.1093,2.1093,2.1093,2.1093,2.1093,2.1093,2.1093,2.1093,2.1093,2.1093,2.1093,2.1093,2.1093,2.1093,2.1093,2.1093,2.1093,2.1093,2.1196,2.1523,2.2281,2.2893,2.2893,2.2893,2.2893,2.2893,2.2455,2.2178,2.2368,2.2171,2.2108,2.2368,2.2619,2.2797,2.2887,2.2893,2.2893,2.2893,2.2893,2.2893,2.2893,2.2893,2.2893,2.2893,2.2893,2.286,2.2756,2.2756,2.2569,2.2178,2.179,2.1435,2.1077,1.9807,1.8298,0.0,0.0,0.0,0.0,0.0,0.0,1.2426,1.2537,1.2736,0.0,0.0,0.0,0.0,0.0,0.0,0.0,0.0,0.0,0.0,0.0,0.0,0.0,0.0,0.0,0.0,1.7595,1.7495,1.7235,1.7455,1.7381,1.6881,1.6175,1.6122,1.6827,1.6174,1.5808,1.5808,1.5808,1.6148,1.6854,1.7361,1.7595,1.7595,1.7595,1.7976,1.8679,1.918,1.9114,1.8692,1.9187,1.9395,1.9395,1.9395,1.9816,2.0316,1.9649,2.0122,2.1026,2.0563,2.0702,2.1093,2.1093,2.1093,2.1093,2.1093,2.1093,2.1093,2.1093,2.1093,2.1093,2.1093,2.1093,2.1093,2.1093,2.1093,2.1093,2.1093,2.1853,2.2552,2.2639,2.2786,2.2893,2.2893,2.2489,2.2265,2.2559,2.2358,2.2271,2.2565,2.2769,2.2893,2.2893,2.2893,2.2893,2.2893,2.2893,2.2893,2.2893,2.2893,2.2893,2.2893,2.2893,2.2893,2.2893,2.2893,2.2729,2.2402,2.1974,2.1155,1.9989,1.8976,1.7178,0.0,0.0,0.0,0.0,0.0,0.0,1.1957,1.2002,1.179,1.1384,0.0,0.0,0.0,0.0,0.0,0.0,0.0,0.0,0.0,0.0,0.0,0.0,0.0,0.0,1.7568,1.7528,1.7314,1.6768,1.7154,1.6934,1.5861,1.5808,1.5808,1.5808,1.5808,1.5808,1.5808,1.5808,1.5808,1.5809,1.7021,1.7595,1.7595,1.7595,1.7595,1.7655,1.8732,1.8592,1.7689,1.8906,1.9395,1.9395,1.9395,1.9395,1.9395,1.9395,2.0042,2.0768,1.9756,2.0149,2.1093,2.1093,2.1093,2.1093,2.1093,2.1093,2.1093,2.1093,2.1093,2.1093,2.1093,2.1093,2.1093,2.1093,2.1093,2.1093,2.1093,2.1516,2.1981,2.2241,2.2609,2.2893,2.2893,2.2612,2.2519,2.2853,2.2612,2.2525,2.286,2.2893,2.2893,2.2893,2.2893,2.2893,2.2893,2.2893,2.2893,2.2893,2.2893,2.2893,2.2893,2.2893,2.2893,2.2893,2.2893,2.2627,2.2092,2.1803,2.0596,1.8547,1.8117,1.6253,0.0,0.0,0.0,0.0,0.0,0.0,1.11,1.1428,1.2022,0.0,0.0,0.0,0.0,0.0,0.0,0.0,0.0,0.0,0.0,0.0,0.0,0.0,0.0,0.0,1.7167,1.7127,1.7061,1.6947,1.6454,1.6048,1.5803,1.5808,1.5808,1.5808,1.5808,1.5808,1.5808,1.5808,1.5808,1.5809,1.7021,1.7595,1.7595,1.7595,1.7595,1.7608,1.7856,1.7822,1.7689,1.8906,1.9395,1.9395,1.9395,1.9395,1.9395,1.9395,1.9542,1.9702,1.9475,2.0149,2.1093,2.1093,2.1093,2.1093,2.1093,2.1093,2.1093,2.1093,2.1093,2.1093,2.1093,2.1093,2.1093,2.1093,2.1093,2.1093,2.1093,2.1187,2.1476,2.2161,2.2609,2.2893,2.2893,2.2612,2.2519,2.2853,2.2612,2.2525,2.286,2.2893,2.2893,2.2893,2.2893,2.2893,2.2893,2.2893,2.2893,2.2893,2.2893,2.2893,2.2893,2.2893,2.2893,2.2893,2.2893,2.1983,2.0151,1.9769,1.9348,1.8834,1.5755,1.3954,0.0,0.0,0.0,1.3501,0.0,0.0,0.0,1.1249,1.135,1.1679,1.1134,0.0,0.0,0.0,0.0,0.0,0.0,0.0,0.0,0.0,0.0,0.0,0.0,0.0,1.6847,1.6767,1.6707,1.6707,1.6135,1.5808,1.5808,1.5808,1.5808,1.5808,1.5808,1.5808,1.5808,1.5808,1.5808,1.5815,1.6414,1.7014,1.7595,1.7595,1.7595,1.7595,1.7595,1.7595,1.7655,1.8244,1.8859,1.9395,1.9395,1.9395,1.9395,1.9395,1.9395,1.9481,2.0049,2.0621,2.1093,2.1093,2.1093,2.1093,2.1093,2.1093,2.1093,2.1093,2.1093,2.1093,2.1093,2.1093,2.1093,2.1093,2.1093,2.1093,2.1093,2.1343,2.1663,2.2074,2.2559,2.2893,2.2893,2.2612,2.2519,2.2853,2.2612,2.2525,2.286,2.2893,2.2893,2.2893,2.2893,2.2893,2.2893,2.2893,2.2893,2.2893,2.2893,2.2893,2.2893,2.2893,2.2893,2.2893,2.1981,2.0953,1.9846,1.7599,1.6425,1.6214,1.4298,1.2905,0.0,0.0,0.0,0.0,0.0,1.1673,0.0,0.0,0.0,1.0648,0.0,0.0,0.0,0.0,0.0,0.0,0.0,0.0,0.0,0.0,0.0,0.0,0.0,0.0,0.0,1.6047,1.6012,1.6114,1.5773,1.5616,1.5783,1.5808,1.5808,1.5808,1.5808,1.5808,1.5808,1.5808,1.5808,1.5808,1.5808,1.6314,1.7248,1.7248,1.7381,1.7595,1.7595,1.7595,1.7595,1.7595,1.8317,1.9395,1.9395,1.9395,1.9395,1.9395,1.9395,1.9528,2.0448,2.0775,2.0808,2.1036,2.1093,2.1093,2.1093,2.1093,2.1093,2.1093,2.1093,2.1093,2.1093,2.1093,2.1093,2.1093,2.1093,2.1093,2.1093,2.1483,2.1833,2.1833,2.2308,2.2766,2.288,2.2616,2.2445,2.2646,2.2465,2.2418,2.2693,2.2773,2.2796,2.2796,2.286,2.2893,2.2893,2.2893,2.2893,2.2893,2.2893,2.2893,2.2893,2.2893,2.2722,2.2366,2.0859,1.9739,1.8985,1.5642,1.3857,1.3591,1.3156,1.2157,0.0,0.0,0.0,0.0,1.3196,0.0,0.0,0.0,1.1819,1.0807,0.0,0.0,0.0,0.0,0.0,0.0,0.0,0.0,0.0,0.0,0.0,0.0,0.0,0.0,0.0,1.4373,1.458,1.5124,1.4843,1.4981,1.5768,1.5808,1.5808,1.5808,1.5808,1.5808,1.5808,1.5808,1.5808,1.5808,1.5808,1.5875,1.6008,1.6008,1.6593,1.7595,1.7595,1.7595,1.7595,1.7595,1.8317,1.9395,1.9395,1.9395,1.9395,1.9395,1.9395,1.9415,1.9548,1.9595,1.9769,2.0768,2.1093,2.1093,2.1093,2.1093,2.1093,2.1093,2.1093,2.1093,2.1093,2.1093,2.1093,2.1093,2.1093,2.1093,2.1093,2.1147,2.1209,2.1209,2.1683,2.2268,2.2806,2.2562,2.2201,2.1871,2.196,2.2061,2.2094,2.2311,2.2455,2.2455,2.2723,2.2893,2.2893,2.2893,2.2893,2.2893,2.2893,2.2893,2.2893,2.2893,2.2125,2.0444,2.0213,1.8438,1.5048,1.4337,1.3976,1.3896,1.1929,1.0973,0.0,0.0,0.0,0.0,0.0,0.0,1.2187,0.0,1.1174,0.0,0.0,0.0,0.0,0.0,0.0,0.0,1.2396,0.0,0.0,0.0,0.0,0.0,0.0,0.0,0.0,0.0,0.0,0.0,1.3948,1.4502,1.5021,1.5379,1.5646,1.5801,1.5808,1.5808,1.5808,1.5808,1.5808,1.5808,1.5808,1.5808,1.5808,1.5808,1.6461,1.7595,1.7595,1.7595,1.7595,1.7595,1.7903,1.8431,1.9127,1.9395,1.9395,1.9395,1.9395,1.9395,1.9395,1.9828,2.0476,2.0933,2.1093,2.1093,2.1093,2.1093,2.1093,2.1093,2.1093,2.1093,2.1093,2.1093,2.1093,2.1093,2.1093,2.1153,2.1396,2.1253,2.1176,2.1403,2.1463,2.163,2.2121,2.2255,2.2161,2.175,2.1733,2.183,2.1981,2.2108,2.2164,2.2164,2.2425,2.2605,2.2605,2.28,2.2893,2.2893,2.2893,2.2893,2.2893,2.2893,2.2016,2.0144,1.899,1.709,1.4397,1.3117,1.2486,1.2457,1.1342,1.0853,1.5708,0.0,0.0,0.0,0.0,0.0,0.0,0.0,0.0,0.0,0.0,0.0,0.0,0.0,0.0,0.0,0.0,1.1928,0.0,0.0,0.0,0.0,0.0,0.0,0.0,0.0,0.0,1.2115,1.2762,1.347,1.4203,1.4825,1.5313,1.5675,1.5768,1.5808,1.5808,1.5808,1.5808,1.5808,1.5808,1.5808,1.5808,1.5808,1.6461,1.7595,1.7595,1.7595,1.7595,1.7595,1.7595,1.7695,1.8551,1.9107,1.9395,1.9395,1.9395,1.9395,1.9395,2.0149,2.1093,2.1093,2.1093,2.1093,2.1093,2.1093,2.1093,2.1093,2.1093,2.1093,2.1093,2.1093,2.1093,2.1093,2.1093,2.1189,2.147,2.1309,2.1196,2.1476,2.1303,2.1249,2.1697,2.1894,2.188,2.1577,2.1493,2.1569,2.1847,2.188,2.1947,2.2084,2.2275,2.2435,2.2532,2.2756,2.2893,2.2893,2.2424,2.2366,2.2883,2.1895,2.0859,1.9849,1.7581,1.5508,1.3622,1.2126,1.141,1.1385,1.111,1.0972,0.0,0.0,0.0,1.4396,0.0,0.0,0.0,0.0,1.1243,0.0,0.0,0.0,0.0,0.0,0.0,0.0,0.0,0.0,0.0,0.0,0.0,0.0,0.0,0.0,0.0,0.0,1.0953,1.1675,1.1092,1.1567,1.352,1.4197,1.4799,1.5391,1.5655,1.5808,1.5808,1.5808,1.5808,1.5808,1.5808,1.5808,1.5808,1.5808,1.6461,1.7595,1.7595,1.7595,1.7595,1.7595,1.7595,1.7602,1.7635,1.8378,1.9395,1.9395,1.9395,1.9395,1.9395,2.0149,2.1093,2.1093,2.1093,2.1093,2.1093,2.1093,2.1093,2.1093,2.1093,2.1093,2.1093,2.1093,2.1093,2.1093,2.1093,2.1093,2.1122,2.1116,2.1093,2.1122,2.1116,2.1296,2.1894,2.1516,2.1127,2.1113,2.1122,2.1245,2.1578,2.1618,2.1816,2.2328,2.2395,2.2539,2.286,2.2893,2.2893,2.2893,2.1194,2.1004,2.2825,1.935,1.7937,1.9118,1.6087,1.3573,1.1688,1.1485,1.141,1.1406,1.1264,1.1189,0.0,0.0,1.5708,1.5314,0.0,0.0,0.0,0.0,0.0,0.0,0.0,0.0,0.0,0.0,0.0,0.0,0.0,0.0,0.0,0.0,0.0,0.0,0.0,0.0,0.0,0.0,0.0,1.0978,1.1283,1.1835,1.2686,1.3854,1.4703,1.512,1.5566,1.5808,1.5808,1.5808,1.5808,1.5808,1.5808,1.5808,1.5808,1.5808,1.6021,1.6407,1.6407,1.686,1.7595,1.7595,1.7595,1.7595,1.7595,1.7856,1.8311,1.9107,1.9395,1.9395,1.9395,2.0149,2.1093,2.1093,2.1093,2.1093,2.1093,2.1093,2.1093,2.1093,2.1093,2.1093,2.1093,2.1093,2.1093,2.1093,2.1093,2.1093,2.1093,2.1093,2.1093,2.1093,2.1316,2.1559,2.1709,2.1713,2.1706,2.1706,2.1356,2.1216,2.1565,2.1598,2.1679,2.1856,2.2154,2.2382,2.2482,2.2746,2.2893,2.2893,2.102,2.0253,2.1009,1.925,1.7744,1.6673,1.5601,1.3911,1.1602,1.1547,1.1524,1.1524,1.1491,1.1427,1.5478,1.5648,0.0,1.5808,1.5801,0.0,1.284,0.0,0.0,0.0,0.0,0.0,0.0,0.0,0.0,0.0,0.0,0.0,0.0,1.0791,0.0,0.0,0.0,0.0,0.0,0.0,1.097,1.0628,1.1115,1.1649,0.0,0.0,1.4282,1.4812,1.5459,1.5808,1.5808,1.5808,1.5808,1.5808,1.5808,1.5808,1.5808,1.5808,1.5808,1.5816,1.6248,1.6881,1.7595,1.7595,1.7595,1.7595,1.7595,1.7595,1.7755,1.8953,1.9395,1.9455,1.9855,2.0496,2.1093,2.1093,2.1093,2.1093,2.1093,2.1093,2.1093,2.1093,2.1093,2.1093,2.1093,2.1093,2.1093,2.1093,2.1093,2.1093,2.1093,2.1093,2.1093,2.1093,2.1316,2.1557,2.181,2.1856,2.188,2.1987,2.1663,2.1523,2.184,2.1803,2.1823,2.2047,2.2221,2.2342,2.2342,2.2549,2.2404,2.1776,1.9925,1.8939,1.9066,1.7239,1.6174,1.6038,1.4725,1.3246,1.1602,1.1602,1.1602,1.1602,1.1602,1.1547]}]]